     2.11           OBSERVATION DATA    G (GPS)             RINEX VERSION / TYPE
teqc 2010Oct21 OPUS Account 20111026 21:33:25UTC            PGM / RUN BY / DATE
B 1524                                                      MARKER NAME
1206                                                        MARKER NUMBER
CSMIDDLETON NGS                                             OBSERVER / AGENCY
4624K01647 TRIMBLE NETR5 4.41                               REC # / TYPE / VERS
12694052 TRM41249.00 NONE                                   ANT # / TYPE
  -754609.3693 -5524003.6908  3087635.9457                  APPROX POSITION XYZ
        2.0040        0.0000        0.0000                  ANTENNA: DELTA H/E/N
     1     1                                                WAVELENGTH FACT L1/2
     5    L1    L2    C1    P1    P2                        # / TYPES OF OBSERV
    15                                                      LEAP SECONDS
  2011     8    12     0     0    0.0000000     GPS         TIME OF FIRST OBS
                                                            END OF HEADER
 11  8 12  0  0  0.0000000  0  8G17G10G04G09G02G12G05G28
 116735988.423 7  90963215.176 7  22214105.523                    22214113.219
 113376148.724 7  88345168.72345  21574747.836                    21574757.098
 106979161.995 8  83360503.54246  20357438.836                    20357446.938
 117661115.226 7  91684054.83844  22390171.422                    22390181.180
 110176515.935 8  85851867.95546  20965860.781                    20965866.871
 120729285.941 7  94074844.785 7  22974025.273                    22974033.832
 126515430.428 6  98583508.182 6  24075084.914                    24075098.020
 122960623.042 6  95813503.29143  23398633.289                    23398642.730
 11  8 12  0  0 30.0000000  0  8G17G10G04G09G02G12G05G28
 116776046.130 7  90994428.952 7  22221728.430                    22221736.121
 113314398.517 7  88297051.71945  21562997.633                    21563006.570
 107027688.736 8  83398316.58646  20366672.977                    20366680.953
 117704455.027 7  91717826.03945  22398419.227                    22398428.117
 110139644.162 8  85823136.73646  20958844.367                    20958850.598
 120638468.145 7  94004077.725 6  22956742.898                    22956751.352
 126409697.500 6  98501119.182 6  24054963.797                    24054977.254
 123051005.929 6  95883931.35143  23415832.164                    23415842.313
 11  8 12  0  1  0.0000000  0  8G17G10G04G09G02G12G05G28
 116816201.040 7  91025718.474 7  22229369.273                    22229377.789
 113253094.838 7  88249282.66245  21551331.648                    21551340.141
 107076600.776 8  83436429.85846  20375980.742                    20375988.859
 117748295.414 7  91751987.32545  22406761.852                    22406771.156
 110103140.062 8  85794692.00546  20951897.695                    20951903.625
 120547817.543 7  93933440.935 6  22939492.898                    22939501.086
 126303952.811 6  98418721.016 6  24034840.820                    24034854.688
 123141669.032 6  95954577.75843  23433085.523                    23433095.141
 11  8 12  0  1 30.0000000  0  8G17G10G04G09G02G12G05G28
 116856453.762 7  91057084.194 7  22237029.625                    22237037.785
 113192240.984 7  88201864.13045  21539751.281                    21539760.543
 107125896.249 8  83474841.91146  20385361.500                    20385369.398
 117792634.297 7  91786537.03944  22415199.578                    22415208.941
 110067004.180 8  85766534.21046  20945021.195                    20945027.313
 120457336.969 7  93862936.621 6  22922274.867                    22922283.145
 126198199.580 6  98336316.162 6  24014717.133                    24014730.438
 123232611.237 6  96025441.65343  23450390.797                    23450400.773
 11  8 12  0  2  0.0000000  0  8G17G10G04G09G02G12G05G28
 116896804.934 7  91088526.657 7  22244708.086                    22244716.203
 113131840.091 7  88154798.55045  21528257.320                    21528266.785
 107175573.065 8  83513551.10146  20394814.609                    20394822.512
 117837469.427 7  91821473.44444  22423730.852                    22423740.668
 110031236.567 8  85738663.36846  20938214.930                    20938221.066
 120367028.809 7  93792566.672 7  22905089.547                    22905097.953
 126092440.823 6  98253907.005 6  23994590.969                    23994604.031
 123323831.004 6  96096521.81143  23467749.297                    23467759.223
 11  8 12  0  2 30.0000000  0  8G17G10G04G09G02G12G05G28
 116937254.814 7  91120046.028 7  22252405.414                    22252413.246
 113071894.428 7  88108087.70045  21516850.242                    21516859.137
 107225628.430 8  83552555.27446  20404339.547                    20404347.785
 117882797.346 7  91856793.84245  22432357.219                    22432366.074
 109995835.763 8  85711078.36046  20931478.164                    20931484.227
 120276895.496 7  93722332.965 7  22887937.836                    22887946.031
 125986678.715 6  98171495.213 6  23974466.016                    23974478.113
 123415326.317 6  96167816.68444  23485160.836                    23485171.082
 11  8 12  0  3  0.0000000  0  8G17G10G04G09G02G12G05G28
 116977804.181 7  91151642.921 7  22260121.555                    22260129.297
 113012407.038 7  88061733.93645  21505529.914                    21505538.656
 107276060.524 8  83591852.99846  20413936.805                    20413944.262
 117928616.116 7  91892496.73445  22441075.641                    22441085.023
 109960802.933 8  85683780.08746  20924811.508                    20924817.563
 120186939.579 7  93652237.495 6  22870819.516                    22870827.719
 125880916.633 6  98089083.462 6  23954339.438                    23954352.027
 123507096.154 6  96239325.48244  23502624.438                    23502634.230
 11  8 12  0  3 30.0000000  0  8G17G10G04G09G02G12G05G28
 117018453.600 7  91183317.804 7  22267857.375                    22267864.762
 112953380.827 7  88015739.53545  21494297.109                    21494306.180
 107326866.780 8  83631442.28146  20423604.750                    20423612.738
 117974922.789 7  91928579.80144  22449887.148                    22449897.582
 109926137.889 8  85656768.40546  20918214.984                    20918221.270
 120097163.625 7  93582282.254 6  22853735.781                    22853743.984
 125775157.284 7  98006673.837 6  23934214.813                    23934227.184
 123599138.600 6  96311046.69944  23520139.992                    23520149.578
 11  8 12  0  4  0.0000000  0  8G17G10G04G09G02G12G05G28
 117059203.350 7  91215070.837 7  22275611.438                    22275619.297
 112894818.417 7  87970106.53945  21483153.547                    21483162.574
 107378044.877 8  83671321.31046  20433343.469                    20433351.461
 118021714.665 7  91965040.93544  22458791.898                    22458800.938
 109891839.888 8  85630042.71246  20911688.523                    20911694.391
 120007570.093 7  93512469.157 7  22836686.633                    22836694.895
 125669403.425 7  97924268.465 6  23914089.906                    23914102.105
 123691451.936 6  96382979.00743  23537706.227                    23537716.352
 11  8 12  0  4 30.0000000  0  8G17G10G04G09G02G12G05G28
 117100054.195 7  91246902.672 7  22283384.500                    22283392.805
 112836723.002 7  87924837.42745  21472097.930                    21472106.602
 107429592.875 8  83711488.56846  20443152.695                    20443160.902
 118068989.113 7  92001878.11944  22467788.211                    22467797.574
 109857909.046 8  85603603.13346  20905231.516                    20905237.633
 119918161.700 7  93442800.327 7  22819673.273                    22819681.266
 125563658.038 7  97841869.651 6  23893966.852                    23893978.551
 123784034.734 6  96455121.28943  23555324.219                    23555333.910
 11  8 12  0  5  0.0000000  0  8G17G10G04G09G02G12G05G28
 117141006.344 7  91278813.430 7  22291178.328                    22291186.395
 112779096.625 7  87879933.80045  21461132.281                    21461140.875
 107481507.970 8  83751941.87146  20453031.883                    20453040.012
 118116743.046 7  92039088.92644  22476875.211                    22476884.855
 109824344.609 8  85577449.06446  20898844.906                    20898850.867
 119828940.545 7  93373277.407 7  22802694.578                    22802703.246
 125457923.530 7  97759479.375 6  23873845.680                    23873858.129
 123876885.009 6  96527472.01843  23572993.086                    23573003.258
 11  8 12  0  5 30.0000000  0  8G17G10G04G09G02G12G05G28
 117182060.113 7  91310803.381 7  22298990.125                    22298998.461
 112721942.145 7  87835397.88745  21450256.242                    21450265.078
 107533787.806 8  83792679.40446  20462980.578                    20462988.313
 118164973.926 7  92076671.38544  22486053.273                    22486062.578
 109791145.965 8  85551580.01546  20892526.820                    20892533.109
 119739908.830 7  93303902.086 7  22785752.695                    22785760.625
 125352202.677 7  97677099.706 6  23853727.828                    23853739.957
 123970001.174 6  96600029.91543  23590712.609                    23590722.652
 11  8 12  0  6  0.0000000  0  8G17G10G04G09G02G12G05G28
 117223216.328 7  91342873.156 7  22306821.992                    22306830.285
 112665262.665 7  87791232.09645  21439470.578                    21439478.488
 107586430.399 8  83833699.60346  20472998.164                    20473006.242
 118213679.151 7  92114623.45644  22495321.680                    22495331.582
 109758313.565 8  85525996.36046  20886279.289                    20886285.297
 119651069.418 7  93234676.616 7  22768846.539                    22768855.242
 125246498.370 7  97594732.951 6  23833612.609                    23833625.195
 124063381.527 6  96672793.67643  23608482.492                    23608491.824
 11  8 12  0  6 30.0000000  0  8G17G10G04G09G02G12G05G28
 117264475.395 7  91375023.079 7  22314673.484                    22314681.734
 112609060.628 7  87747438.33345  21428775.633                    21428784.078
 107639433.058 8  83875000.36646  20483083.906                    20483092.227
 118262855.888 7  92152942.95345  22504679.992                    22504689.230
 109725847.170 8  85500697.91046  20880100.609                    20880106.676
 119562424.860 7  93165602.970 7  22751978.484                    22751986.633
 125140813.532 7  97512381.350 7  23813501.445                    23813514.086
 124157024.193 6  96745761.86143  23626301.977                    23626311.395
 11  8 12  0  7  0.0000000  0  8G17G10G04G09G02G12G05G28
 117305837.968 7  91407253.651 7  22322544.570                    22322552.297
 112553338.515 7  87704018.54345  21418171.953                    21418180.133
 107692793.682 8  83916580.06346  20493238.695                    20493246.191
 118312501.191 7  92191627.57044  22514126.516                    22514136.934
 109693746.534 8  85475684.46146  20873992.297                    20873998.539
 119473977.497 7  93096682.974 7  22735147.828                    22735155.473
 125035150.879 7  97430047.043 6  23793393.992                    23793407.066
 124250927.428 6  96818933.05243  23644171.531                    23644181.227
 11  8 12  0  7 30.0000000  0  8G17G10G04G09G02G12G05G28
 117347304.257 7  91439565.031 7  22330435.523                    22330443.426
 112498099.146 8  87660974.92145  21407660.117                    21407668.426
 107746509.779 8  83958436.75846  20503460.352                    20503468.375
 118362612.229 7  92230675.09145  22523662.781                    22523672.477
 109662010.969 8  85450955.48246  20867953.242                    20867959.375
 119385729.959 7  93027918.684 7  22718354.609                    22718362.590
 124929513.447 6  97347732.370 7  23773291.813                    23773304.930
 124345089.618 6  96892306.03543  23662089.344                    23662099.852
 11  8 12  0  8  0.0000000  0  8G17G10G04G09G02G12G05G28
 117388874.616 7  91471957.514 7  22338345.836                    22338354.289
 112443344.976 8  87618309.37545  21397240.695                    21397248.984
 107800578.592 8  84000568.30346  20513749.234                    20513757.156
 118413185.738 7  92270082.99545  22533286.281                    22533296.750
 109630639.601 8  85426510.28046  20861983.469                    20861989.621
 119297684.425 7  92959311.786 7  22701600.016                    22701608.195
 124823903.269 7  97265438.936 6  23753194.938                    23753207.828
 124439509.045 6  96965879.47243  23680058.500                    23680067.844
 11  8 12  0  8 30.0000000  0  8G17G10G04G09G02G12G05G28
 117430549.528 7  91504431.449 7  22346276.336                    22346284.148
 112389078.704 7  87576024.01245  21386913.898                    21386922.688
 107854997.863 8  84042972.92646  20524104.609                    20524112.922
 118464218.977 7  92309849.13945  22542998.141                    22543007.465
 109599632.535 8  85402348.95946  20856082.883                    20856089.313
 119209844.017 7  92890864.731 7  22684884.867                    22684892.500
 124718323.691 6  97183169.348 6  23733103.781                    23733115.234
 124534183.454 6  97039651.59043  23698073.531                    23698083.961
 11  8 12  0  9  0.0000000  0  8G17G10G04G09G02G12G05G28
 117472330.453 7  91536987.986 7  22354226.922                    22354235.488
 112335303.254 8  87534121.10445  21376680.914                    21376689.223
 107909765.662 8  84085649.13846  20534526.805                    20534534.918
 118515709.650 7  92349971.70044  22552796.484                    22552805.941
 109568989.765 8  85378471.49546  20850251.766                    20850257.625
 119122210.653 7  92822579.029 7  22668208.336                    22668216.387
 124612777.749 7  97100925.922 6  23713019.242                    23713030.965
 124629111.631 6  97113621.41643  23716138.289                    23716148.469
 11  8 12  0  9 30.0000000  0  8G17G10G04G09G02G12G05G28
 117514217.226 7  91569627.008 7  22362197.805                    22362205.703
 112282020.993 8  87492602.48945  21366541.414                    21366550.641
 107964879.918 8  84128595.31446  20545014.867                    20545022.813
 118567654.762 7  92390448.37645  22562681.266                    22562690.930
 109538710.893 8  85354877.58246  20844490.109                    20844496.074
 119034786.979 7  92754456.726 7  22651571.984                    22651580.430
 124507268.205 7  97018710.896 6  23692940.844                    23692952.668
 124724291.926 6  97187787.73443  23734250.258                    23734261.145
 11  8 12  0 10  0.0000000  0  8G17G10G04G09G02G12G05G28
 117556210.361 7  91602348.897 7  22370189.000                    22370196.723
 112229234.646 7  87451470.31245  21356496.695                    21356505.031
 108020337.941 8  84171809.36146  20555567.930                    20555575.742
 118620051.238 7  92431276.75544  22572651.609                    22572661.742
 109508795.548 8  85331566.94146  20838797.328                    20838803.137
 118947575.791 7  92686499.994 7  22634976.352                    22634984.438
 124401797.820 7  96936526.397 6  23672870.359                    23672882.285
 124819722.376 6  97262148.95444  23752410.289                    23752421.359
 11  8 12  0 10 30.0000000  0  8G17G10G04G09G02G12G05G28
 117598311.202 7  91635154.715 7  22378200.406                    22378208.504
 112176947.644 8  87410727.22145  21346546.625                    21346555.969
 108076138.047 8  84215289.95846  20566186.234                    20566194.516
 118672896.791 7  92472455.07144  22582708.133                    22582717.887
 109479244.021 8  85308539.80246  20833173.742                    20833179.711
 118860580.288 7  92618711.343 7  22618421.641                    22618429.965
 124296370.382 7  96854375.357 6  23652808.141                    23652819.961
 124915401.836 6  97336704.20643  23770617.773                    23770628.727
 11  8 12  0 11  0.0000000  0  8G17G10G04G09G02G12G05G28
 117640519.443 7  91668044.217 7  22386232.078                    22386240.590
 112125161.245 8  87370374.22445  21336692.172                    21336700.762
 108132276.947 8  84259034.56646  20576869.313                    20576877.258
 118726187.580 7  92513980.32044  22592848.664                    22592858.656
 109450055.046 8  85285795.15046  20827619.547                    20827625.258
 118773802.109 7  92551092.032 7  22601908.359                    22601916.594
 124190987.733 7  96772259.213 6  23632754.219                    23632766.176
 125011327.571 6  97411451.37643  23788871.805                    23788882.836
 11  8 12  0 11 30.0000000  0  8G17G10G04G09G02G12G05G28
 117682835.556 7  91701017.802 7  22394285.078                    22394292.852
 112073878.097 8  87330413.36845  21326933.344                    21326941.504
 108188752.210 8  84303041.26346  20587616.180                    20587624.648
 118779920.975 7  92555850.45045  22603074.781                    22603084.238
 109421228.147 8  85263332.64646  20822133.773                    20822139.477
 118687243.794 7  92483644.055 7  22585436.891                    22585445.098
 124085652.932 7  96690180.347 6  23612710.234                    23612721.012
 125107497.993 6  97486389.18043  23807171.789                    23807183.297
 11  8 12  0 12  0.0000000  0  8G17G10G04G09G02G12G05G28
 117725260.041 7  91734075.793 7  22402357.828                    22402365.477
 112023100.742 8  87290846.62445  21317270.836                    21317279.195
 108245561.802 8  84347308.48146  20598426.766                    20598434.789
 118834094.033 6  92598063.17845  22613382.875                    22613393.320
 109392762.960 8  85241151.99346  20816716.922                    20816722.477
 118600907.682 7  92416369.220 7  22569007.414                    22569015.578
 123980368.702 7  96608140.864 6  23592674.742                    23592685.770
 125203911.021 6  97561516.05743  23825519.180                    23825530.539
 11  8 12  0 12 30.0000000  0  8G17G10G04G09G02G12G05G28
 117767793.885 7  91767219.022 7  22410452.289                    22410459.945
 111972831.903 8  87251676.13545  21307704.188                    21307713.316
 108302703.328 8  84391834.35146  20609300.344                    20609308.320
 118888703.753 7  92640616.14745  22623774.609                    22623784.645
 109364659.204 8  85219252.96446  20811368.914                    20811374.801
 118514796.753 7  92349269.858 7  22552621.508                    22552628.809
 123875138.071 7  96526143.148 6  23572650.117                    23572661.188
 125300565.208 6  97636830.85943  23843911.367                    23843923.191
 11  8 12  0 13  0.0000000  0  8G17G10G04G09G02G12G05G28
 117810437.393 7  91800447.707 7  22418567.008                    22418574.613
 111923073.916 8  87212903.70845  21298236.109                    21298245.387
 108360174.287 8  84436616.92146  20620236.766                    20620244.957
 118943747.235 7  92683507.10344  22634249.375                    22634259.633
 109336916.315 8  85197635.14046  20806089.539                    20806095.648
 118428913.453 7  92282347.869 7  22536277.422                    22536285.813
 123769963.798 7  96444189.350 6  23552635.547                    23552647.086
 125397458.420 6  97712331.81943  23862350.266                    23862360.898
 11  8 12  0 13 30.0000000  0  8G17G10G04G09G02G12G05G28
 117853191.108 7  91833762.248 7  22426702.570                    22426710.289
 111873829.635 8  87174531.57345  21288865.477                    21288874.141
 108417972.384 8  84481654.40046  20631235.469                    20631243.379
 118999221.266 7  92726733.57844  22644805.898                    22644816.043
 109309534.069 8  85176298.32546  20800879.367                    20800885.094
 118343260.397 7  92215605.297 7  22519978.695                    22519986.352
 123664848.781 7  96362281.741 6  23532632.422                    23532644.355
 125494589.242 6  97788018.08443  23880833.773                    23880844.750
 11  8 12  0 14  0.0000000  0  8G17G10G04G09G02G12G05G28
 117896056.005 7  91867163.432 7  22434859.688                    22434867.656
 111825101.220 8  87136561.41145  21279593.094                    21279601.074
 108476095.454 8  84526945.11446  20642295.805                    20642303.848
 119055122.822 7  92770293.16544  22655443.141                    22655453.813
 109282512.145 8  85155242.29846  20795736.820                    20795743.145
 118257839.990 7  92149044.018 7  22503723.383                    22503731.367
 123559796.368 7  96280422.907 6  23512641.430                    23512652.805
 125591955.785 6  97863887.97842  23899362.242                    23899373.219
 11  8 12  0 14 30.0000000  0  8G17G10G04G09G02G12G05G28
 117939032.475 7  91900651.578 7  22443037.500                    22443046.191
 111776891.022 8  87098995.05945  21270418.547                    21270426.930
 108534541.028 8  84572487.11046  20653417.508                    20653425.762
 119111449.051 7  92814183.68344  22666161.719                    22666171.980
 109255849.858 8  85134466.50746  20790663.266                    20790669.133
 118172655.137 7  92082666.278 7  22487513.305                    22487521.277
 123454808.758 7  96198614.568 6  23492662.469                    23492674.461
 125689555.972 6  97939939.92243  23917936.055                    23917946.461
 11  8 12  0 15  0.0000000  0  8G17G10G04G09G02G12G05G28
 117982120.618 7  91934226.720 7  22451237.555                    22451245.328
 111729201.258 8  87061834.24545  21261343.133                    21261351.922
 108593306.481 8  84618278.36846  20664600.453                    20664608.520
 119168196.640 6  92858402.53044  22676960.516                    22676971.277
 109229546.305 8  85113970.24146  20785657.992                    20785663.891
 118087707.871 7  92016473.666 7  22471348.180                    22471356.336
 123349889.142 7  96116859.229 6  23472697.445                    23472708.684
 125787387.729 6  98016172.29342  23936551.836                    23936562.551
 11  8 12  0 15 30.0000000  0  8G17G10G04G09G02G12G05G28
 118025321.389 7  91967889.645 7  22459458.258                    22459465.965
 111682034.771 8  87025081.18345  21252367.664                    21252376.602
 108652389.983 8  84664317.45046  20675843.203                    20675851.660
 119225363.135 7  92902947.79344  22687839.258                    22687849.383
 109203601.735 8  85093753.70346  20780720.984                    20780727.000
 118003001.175 7  91950468.497 7  22455228.867                    22455237.004
 123245040.692 7  96035159.320 6  23452745.438                    23452756.855
 125885449.728 6  98092584.06443  23955212.438                    23955223.375
 11  8 12  0 16  0.0000000  0  8G17G10G04G09G02G12G05G28
 118068634.754 7  92001640.309 7  22467700.445                    22467708.234
 111635393.006 8  86988737.00145  21243492.047                    21243500.422
 108711788.330 8  84710601.87046  20687146.656                    20687154.930
 119282944.690 7  92947816.48444  22698796.555                    22698807.230
 109178014.808 8  85073815.84746  20775852.266                    20775857.762
 117918537.224 7  91884652.473 7  22439156.688                    22439164.203
 123140265.876 7  95953516.789 6  23432807.242                    23432818.746
 125983739.103 6  98169173.05443  23973916.836                    23973927.691
 11  8 12  0 16 30.0000000  0  8G17G10G04G09G02G12G05G28
 118112061.760 7  92035479.515 7  22475964.305                    22475971.898
 111589278.769 8  86952803.86845  21234716.836                    21234724.953
 108771499.569 8  84757130.08946  20698509.383                    20698517.410
 119340938.699 7  92993006.54444  22709833.039                    22709843.012
 109152785.691 8  85054156.81346  20771050.867                    20771057.102
 117834318.912 7  91819027.837 7  22423129.742                    22423138.117
 123035567.688 7  95871933.981 7  23412883.578                    23412894.930
 126082254.603 6  98245938.23543  23992663.797                    23992674.902
 11  8 12  0 17  0.0000000  0  8G17G10G04G09G02G12G05G28
 118155602.856 7  92069407.620 7  22484249.609                    22484257.734
 111543694.545 8  86917283.73345  21226042.773                    21226051.094
 108831521.392 8  84803900.31446  20709931.281                    20709939.016
 119399342.066 7  93038515.62144  22720946.727                    22720956.781
 109127913.682 8  85034776.04246  20766318.172                    20766323.867
 117750348.626 7  91753596.484 7  22407150.758                    22407158.996
 122930949.377 7  95790413.413 7  23392975.234                    23392987.000
 126180994.495 6  98322878.25043  24011453.578                    24011464.719
 11  8 12  0 17 30.0000000  0  8G17G10G04G09G02G12G05G28
 118199258.709 7  92103425.172 7  22492556.992                    22492565.508
 111498642.705 8  86882178.44446  21217469.438                    21217477.801
 108891851.657 8  84850910.89246  20721411.633                    20721419.926
 119458151.983 7  93084341.48844  22732137.789                    22732147.887
 109103398.425 8  85015673.25746  20761652.609                    20761658.836
 117666628.992 7  91688360.436 7  22391219.359                    22391227.680
 122826413.589 7  95708957.158 7  23373082.359                    23373094.199
 126279956.644 6  98399991.44643  24030284.695                    24030296.656
 11  8 12  0 18  0.0000000  0  8G17G10G04G09G02G12G05G28
 118243029.963 7  92137532.629 7  22500886.016                    22500894.625
 111454125.196 8  86847489.51146  21208997.945                    21209006.586
 108952487.601 8  84898159.65246  20732950.406                    20732958.367
 119517365.017 7  93130481.46045  22743405.477                    22743416.098
 109079238.983 8  84996847.74046  20757055.352                    20757061.344
 117583162.601 7  91623321.701 7  22375336.461                    22375344.801
 122721963.338 7  95627567.541 6  23353205.781                    23353217.402
 126379139.036 6  98477276.28543  24049159.391                    24049170.594
 11  8 12  0 18 30.0000000  0  8G17G10G04G09G02G12G05G28
 118286917.148 7  92171730.422 7  22509237.773                    22509246.172
 111410144.187 8  86813218.63246  21200628.828                    21200637.371
 109013426.746 8  84945644.67346  20744546.539                    20744554.789
 119576977.616 7  93176932.78645  22754749.227                    22754759.359
 109055434.709 8  84978298.97746  20752525.617                    20752531.527
 117499951.830 7  91558482.156 7  22359501.867                    22359510.230
 122617601.414 7  95546246.738 6  23333346.609                    23333357.664
 126478539.726 6  98554731.15943  24068075.258                    24068085.988
 11  8 12  0 19  0.0000000  0  9G30G17G10G04G09G02G12G05G28
 128105882.70916  99822821.70053  24377743.672                    24377752.523
 118330920.620 7  92206018.822 7  22517611.500                    22517619.848
 111366702.192 7  86779367.76246  21192362.055                    21192370.418
 109074667.216 8  84993364.48046  20756200.195                    20756208.621
 119636987.239 7  93223693.46444  22766168.789                    22766178.813
 109031985.665 8  84960027.01646  20748063.305                    20748069.129
 117416999.895 7  91493844.309 7  22343717.078                    22343725.125
 122513330.938 7  95464997.196 6  23313504.852                    23313515.660
 126578156.948 6  98632354.79443  24087031.164                    24087042.844
 11  8 12  0 19 30.0000000  0  9G30G17G10G04G09G02G12G05G28
 127999042.006 6  99739569.17143  24357412.758                    24357422.414
 118375041.163 7  92240398.464 7  22526007.563                    22526015.516
 111323801.420 8  86745938.61246  21184197.844                    21184206.430
 109136206.488 8  85041317.11946  20767911.211                    20767918.816
 119697390.627 7  93270760.96344  22777662.867                    22777673.176
 109008890.945 8  84942031.15246  20743668.422                    20743674.297
 117334308.820 7  91429409.713 7  22327981.258                    22327989.340
 122409154.607 7  95383820.997 6  23293680.547                    23293691.406
 126677988.842 6  98710145.71643  24106029.461                    24106040.816
 11  8 12  0 20  0.0000000  0  9G30G17G10G04G09G02G12G05G28
 127892338.557 6  99656423.67643  24337107.516                    24337117.113
 118419279.581 7  92274869.940 7  22534425.531                    22534433.871
 111281443.615 8  86712932.56145  21176137.930                    21176146.047
 109198041.879 8  85089500.50546  20779678.055                    20779685.539
 119758184.600 7  93318132.84445  22789232.516                    22789242.621
 108986149.776 8  84924310.77646  20739341.070                    20739346.871
 117251881.114 7  91365180.344 7  22312295.680                    22312303.594
 122305075.380 7  95302720.460 6  23273875.016                    23273885.188
 126778033.113 5  98788102.10942  24125066.867                    24125078.547
 11  8 12  0 20 30.0000000  0  9G30G17G10G04G09G02G12G05G28
 127785775.389 6  99573387.48043  24316829.977                    24316838.820
 118463635.785 7  92309433.201 7  22542866.273                    22542874.977
 111239631.162 8  86680351.46946  21168180.922                    21168189.316
 109260171.294 8  85137913.00446  20791500.844                    20791508.730
 119819365.820 7  93365806.47844  22800874.805                    22800884.781
 108963761.951 8  84906865.73846  20735080.617                    20735086.445
 117169719.573 7  91301158.374 7  22296660.883                    22296669.176
 122201096.722 7  95221698.272 6  23254087.875                    23254098.566
 126878288.159 5  98866222.70442  24144144.633                    24144156.129
 11  8 12  0 21  0.0000000  0  9G30G17G10G04G09G02G12G05G28
 127679354.922 6  99490462.55743  24296578.336                    24296587.574
 118508110.610 7  92344088.893 7  22551330.086                    22551338.082
 111198366.417 8  86648197.14846  21160328.352                    21160336.563
 109322592.076 8  85186552.55246  20803378.977                    20803387.207
 119880931.145 7  93413779.39944  22812590.477                    22812600.000
 108941726.217 8  84889695.06746  20730887.063                    20730893.273
 117087826.880 7  91237345.890 7  22281076.906                    22281085.258
 122097220.879 7  95140756.182 6  23234321.172                    23234331.570
 126978751.470 6  98944505.63743  24163261.844                    24163273.898
 11  8 12  0 21 30.0000000  0  9G30G17G10G04G09G02G12G05G28
 127573080.184 6  99407651.21243  24276354.430                    24276364.004
 118552704.843 7  92378837.619 7  22559815.469                    22559824.203
 111157651.510 8  86616471.26746  21152581.133                    21152589.301
 109385302.561 8  85235417.82546  20815312.422                    20815320.383
 119942877.742 7  93462049.39344  22824378.555                    22824388.211
 108920042.816 8  84872798.93846  20726760.961                    20726766.832
 117006205.693 7  91173744.975 7  22265544.852                    22265553.145
 121993450.995 7  95059896.698 6  23214574.328                    23214585.203
 127079421.867 5  99022949.92042  24182418.883                    24182430.496
 11  8 12  0 22  0.0000000  0  9G30G17G10G04G09G02G12G05G28
 127466953.544 6  99324955.19943  24256159.906                    24256169.117
 118597419.251 7  92413679.998 7  22568325.313                    22568332.953
 111117488.351 8  86585175.30945  21144937.797                    21144946.527
 109448299.976 8  85284506.69146  20827300.422                    20827308.586
 120005202.317 7  93510613.91644  22836238.492                    22836248.219
 108898710.770 8  84856176.59646  20722701.813                    20722707.840
 116924858.379 7  91110357.472 7  22250065.297                    22250073.617
 121889790.316 7  94979122.307 6  23194848.375                    23194858.719
 127180296.996 6  99101553.76542  24201615.180                    24201626.324
 11  8 12  0 22 30.0000000  0  9G30G17G10G04G09G02G12G05G28
 127360977.730 6  99242376.79043  24235991.906                    24236002.457
 118642254.489 7  92448616.518 7  22576856.813                    22576864.684
 111077879.013 8  86554310.89345  21137400.148                    21137408.895
 109511581.949 8  85333817.29246  20839342.578                    20839350.852
 120067901.524 7  93559470.37844  22848169.727                    22848179.910
 108877729.190 8  84839827.33346  20718709.203                    20718714.574
 116843787.231 7  91047185.161 7  22234637.852                    22234646.234
 121786241.556 7  94898435.135 7  23175143.023                    23175154.410
 127281374.704 6  99180315.44942  24220849.914                    24220860.844
 11  8 12  0 23  0.0000000  0  9G30G17G10G04G09G02G12G05G28
 127255155.273 6  99159917.85043  24215855.094                    24215865.109
 118687210.086 7  92483646.811 7  22585411.477                    22585419.305
 111038825.364 8  86523879.49146  21129968.594                    21129977.063
 109575145.971 8  85383347.66846  20851438.625                    20851446.633
 120130971.786 7  93608615.97144  22860171.648                    22860181.941
 108857097.446 8  84823750.67646  20714783.297                    20714788.879
 116762995.256 7  90984230.401 7  22219263.938                    22219271.242
 121682807.519 7  94817837.353 7  23155460.383                    23155471.355
 127382653.031 6  99259233.48942  24240124.000                    24240133.527
 11  8 12  0 23 30.0000000  0  9G30G17G10G04G09G02G12G05G28
 127149489.414 6  99077580.94143  24195747.859                    24195757.684
 118732287.789 7  92518772.258 7  22593989.477                    22593997.227
 111000330.012 8  86493883.12546  21122643.195                    21122652.301
 109638990.345 8  85433096.50046  20863587.570                    20863595.934
 120194410.617 7  93658048.77144  22872244.086                    22872253.910
 108836815.523 8  84807946.60546  20710923.031                    20710929.117
 116682485.452 7  90921495.521 7  22203943.570                    22203951.102
 121579491.829 7  94737331.778 7  23135799.563                    23135810.859
 127484130.503 6  99338306.77342  24259433.383                    24259444.531
 11  8 12  0 24  0.0000000  0  9G30G17G10G04G09G02G12G05G28
 127043982.723 6  98995368.08543  24175669.805                    24175679.742
 118777488.303 7  92553993.392 7  22602590.867                    22602598.766
 110962394.772 8  86464323.21645  21115424.492                    21115432.926
 109703112.395 8  85483061.70646  20875790.180                    20875798.188
 120258214.446 7  93707765.93544  22884384.953                    22884395.078
 108816882.303 8  84792414.25146  20707130.172                    20707136.129
 116602259.949 7  90858982.181 7  22188676.625                    22188684.602
 121476297.028 7  94656920.417 7  23116162.531                    23116173.492
 127585804.664 6  99417533.32143  24278781.867                    24278792.609
 11  8 12  0 24 30.0000000  0  9G30G17G10G04G09G02G12G05G28
 126938637.105 6  98913280.67843  24155623.250                    24155633.563
 118822811.048 7  92589309.769 7  22611215.508                    22611224.066
 110925020.703 8  86435200.56845  21108312.461                    21108321.121
 109767508.984 8  85533240.84746  20888044.172                    20888052.262
 120322379.883 7  93757764.91044  22896595.523                    22896604.941
 108797296.987 8  84777152.98646  20703403.141                    20703409.043
 116522321.218 8  90796692.292 7  22173465.188                    22173472.887
 121373225.658 7  94576605.212 7  23096548.375                    23096559.219
 127687673.300 6  99496911.35342  24298166.102                    24298178.477
 11  8 12  0 25  0.0000000  0  9G30G17G10G04G09G02G12G05G28
 126833456.304 6  98831321.67843  24135608.477                    24135617.316
 118868257.935 7  92624722.899 7  22619863.523                    22619871.734
 110888210.874 8  86406517.60645  21101307.938                    21101316.336
 109832178.859 8  85583632.94746  20900350.320                    20900358.332
 120386904.270 7  93808043.59144  22908874.375                    22908883.945
 108778059.354 8  84762162.64546  20699742.336                    20699748.461
 116442672.354 8  90734628.304 7  22158308.406                    22158316.016
 121270281.506 7  94496389.145 7  23076958.539                    23076969.816
 127789734.784 6  99576439.73142  24317588.156                    24317599.672
 11  8 12  0 25 30.0000000  0  8G30G17G10G04G09G02G12G05
 126728443.696 6  98749493.74143  24115625.453                    24115634.898
 118913829.807 7  92660233.391 7  22628535.641                    22628543.844
 110851967.939 8  86378276.37545  21094410.852                    21094419.277
 109897120.355 8  85634236.70446  20912707.695                    20912716.617
 120451784.878 7  93858599.83144  22921220.859                    22921230.855
 108759169.262 8  84747443.10446  20696147.625                    20696153.680
 116363316.427 7  90672792.566 7  22143207.328                    22143215.289
 121167468.063 7  94416274.926 7  23057393.180                    23057405.016
 11  8 12  0 26  0.0000000  0  8G30G17G10G04G09G02G12G05
 126623600.428 6  98667797.70843  24095674.070                    24095684.215
 118959526.094 7  92695840.823 7  22637231.688                    22637239.766
 110816292.109 8  86350477.04846  21087621.773                    21087630.203
 109962329.581 8  85685049.07746  20925117.031                    20925125.602
 120517017.017 7  93909430.00844  22933633.711                    22933644.121
 108740624.589 8  84732992.71646  20692618.727                    20692624.801
 116284254.737 8  90611186.105 7  22128161.898                    22128170.184
 121064787.111 7  94336263.925 7  23037854.430                    23037864.980
 11  8 12  0 26 30.0000000  0  8G30G17G10G04G09G02G12G05
 126518929.606 6  98586236.06643  24075755.758                    24075765.469
 119005347.096 7  92731545.464 7  22645950.781                    22645959.512
 110781185.640 8  86323121.38245  21080941.617                    21080949.566
 110027804.456 8  85736068.45246  20937576.516                    20937585.172
 120582597.802 7  93960531.84044  22946113.305                    22946123.758
 108722425.122 8  84718811.32046  20689155.297                    20689161.496
 116205490.293 7  90549811.282 7  22113173.672                    22113181.934
 120962241.878 7  94256358.677 7  23018340.844                    23018351.039
 11  8 12  0 27  0.0000000  0  8G30G17G10G04G09G02G12G05
 126414433.749 6  98504810.75343  24055871.211                    24055880.520
 119051293.838 7  92767348.081 7  22654694.195                    22654702.910
 110746650.453 8  86296210.86645  21074369.828                    21074378.055
 110093542.518 8  85787292.91146  20950086.008                    20950094.453
 120648523.880 7  94011902.73344  22958658.828                    22958669.195
 108704569.809 8  84704898.10546  20685757.828                    20685763.805
 116127025.443 7  90488669.901 7  22098241.914                    22098250.664
 120859834.852 7  94176561.108 7  22998852.344                    22998863.336
 11  8 12  0 27 30.0000000  0  8G30G17G10G04G09G02G12G05
 126310115.616 6  98423523.90543  24036019.648                    24036028.863
 119097366.530 7  92803248.818 7  22663461.656                    22663470.348
 110712688.313 8  86269746.87946  21067906.625                    21067915.250
 110159541.391 8  85838720.59946  20962644.992                    20962654.008
 120714791.855 7  94063540.04644  22971269.281                    22971279.625
 108687057.761 8  84691252.37546  20682425.523                    20682431.000
 116048862.771 7  90427763.976 7  22083368.789                    22083376.531
 120757568.898 7  94096873.475 7  22979392.438                    22979402.410
 11  8 12  0 28  0.0000000  0  8G30G17G10G04G09G02G12G05
 126205978.483 6  98342378.11743  24016202.531                    24016211.938
 119143566.436 7  92839248.702 7  22672252.906                    22672262.152
 110679301.268 8  86243731.01546  21061553.117                    21061562.066
 110225799.177 8  85890350.03446  20975253.711                    20975262.195
 120781398.852 7  94115441.54544  22983943.734                    22983954.980
 108669888.997 8  84677874.13546  20679158.234                    20679163.715
 115971004.960 7  90367095.606 7  22068552.648                    22068560.781
 120655447.988 7  94017298.866 7  22959959.352                    22959969.855
 11  8 12  0 28 30.0000000  0  8G30G17G10G04G09G02G12G05
 126102024.611 6  98261375.14543  23996421.234                    23996430.547
 119189893.780 7  92875347.906 7  22681069.477                    22681077.750
 110646490.622 7  86218164.30446  21055309.516                    21055318.305
 110292313.382 8  85942179.28146  20987910.820                    20987919.449
 120848341.120 7  94167604.26344  22996682.766                    22996693.801
 108653062.134 8  84664762.31646  20675956.391                    20675961.977
 115893454.567 8  90306666.774 7  22053795.195                    22053803.395
 120553474.314 7  93937838.983 7  22940554.688                    22940564.598
 11  8 12  0 29  0.0000000  0  8G30G17G10G04G09G02G12G05
 125998257.286 6  98180517.55943  23976674.766                    23976684.516
 119236350.097 7  92911547.563 7  22689909.719                    22689917.762
 110614258.469 8  86193048.36246  21049176.313                    21049184.883
 110359081.673 8  85994206.52246  21000616.641                    21000625.242
 120915615.949 7  94220026.13344  23009485.578                    23009495.777
 108636577.111 8  84651916.86646  20672819.383                    20672825.063
 115816214.586 8  90246479.818 7  22039097.406                    22039104.777
 120451651.273 7  93858496.478 7  22921178.016                    22921188.281
 11  8 12  0 29 30.0000000  0  8G30G17G10G04G09G02G12G05
 125894678.518 6  98099806.90343  23956964.203                    23956973.750
 119282933.981 7  92947846.655 7  22698774.367                    22698783.594
 110582605.927 7  86168384.07245  21043152.992                    21043161.398
 110426101.392 8  86046429.68646  21013369.758                    21013378.566
 120983219.268 7  94272703.97444  23022349.734                    23022360.547
 108620431.998 8  84639336.27246  20669746.508                    20669752.578
 115739286.538 8  90186535.911 7  22024457.898                    22024465.762
 120349981.367 7  93779273.268 7  22901830.320                    22901840.438
 11  8 12  0 30  0.0000000  0  8G30G17G10G04G09G02G12G05
 125791291.674 6  98019245.81543  23937290.977                    23937300.207
 119329647.301 7  92984246.616 7  22707663.906                    22707672.164
 110551535.360 7  86144173.27646  21037240.234                    21037248.414
 110493370.602 8  86098847.25046  21026170.648                    21026179.539
 121051148.492 7  94325635.78944  23035276.477                    23035286.750
 108604627.067 8  84627020.74546  20666739.250                    20666745.051
 115662674.031 7  90126837.878 7  22009879.203                    22009886.590
 120248467.918 7  93700172.001 7  22882513.086                    22882523.375
 11  8 12  0 30 30.0000000  0  8G30G17G10G04G09G02G12G05
 125688099.177 6  97938836.19443  23917653.359                    23917663.211
 119376490.653 7  93020747.868 7  22716577.805                    22716586.129
 110521048.149 8  86120417.02846  21031438.633                    21031447.164
 110560886.842 8  86151457.31046  21039018.805                    21039026.961
 121119399.666 7  94378818.46144  23048263.656                    23048274.543
 108589160.991 8  84614969.27246  20663796.047                    20663802.109
 115586379.122 8  90067387.334 7  21995360.617                    21995368.301
 120147113.830 7  93621194.896 7  22863226.523                    22863236.789
 11  8 12  0 31  0.0000000  0  8G30G17G10G04G09G02G12G05
 125585103.970 6  97858580.28443  23898054.016                    23898063.918
 119423464.565 7  93057350.867 7  22725516.469                    22725525.207
 110491145.840 8  86097116.54946  21025748.586                    21025757.137
 110628647.873 8  86204258.11546  21051913.492                    21051921.281
 121187969.508 7  94432249.45044  23061312.695                    23061323.227
 108574033.340 8  84603181.49946  20660917.609                    20660923.230
 115510404.756 7  90008186.562 7  21980903.336                    21980911.141
 120045922.194 7  93542344.388 7  22843969.820                    22843980.184
 11  8 12  0 31 30.0000000  0  8G30G17G10G04G09G02G12G05
 125482308.721 6  97778480.23243  23878493.383                    23878502.313
 119470569.579 7  93094056.025 7  22734480.344                    22734488.828
 110461830.372 8  86074273.35145  21020169.797                    21020178.613
 110696651.422 8  86257247.89646  21064854.063                    21064862.160
 121256854.760 7  94485926.20444  23074420.805                    23074431.742
 108559243.105 8  84591656.65846  20658102.977                    20658108.605
 115434753.623 8  89949237.656 7  21966507.211                    21966515.309
 119944895.726 7  93463622.574 7  22824745.070                    22824755.090
 11  8 12  0 32  0.0000000  0  8G30G17G10G04G09G02G12G05
 125379716.164 6  97698538.08743  23858969.906                    23858979.594
 119517806.096 7  93130863.668 6  22743469.656                    22743477.473
 110433103.315 7  86051888.66246  21014703.453                    21014711.832
 110764894.984 8  86310424.70346  21077839.953                    21077848.543
 121326052.000 7  94539846.06944  23087588.852                    23087598.773
 108544789.154 8  84580393.84746  20655352.453                    20655358.063
 115359427.716 8  89890542.160 7  21952173.055                    21952180.449
 119844037.525 7  93385031.875 7  22805552.594                    22805562.574
 11  8 12  0 32 30.0000000  0  8G30G17G10G04G09G02G12G05
 125277329.871 6  97618756.67043  23839486.383                    23839495.551
 119565175.531 7  93167774.878 7  22752483.719                    22752491.551
 110404966.803 8  86029964.13246  21009348.867                    21009357.430
 110833376.962 8  86363787.28546  21090872.008                    21090880.543
 121395558.665 7  94594007.04344  23100815.555                    23100826.027
 108530671.816 8  84569393.34546  20652666.156                    20652672.152
 115284430.395 7  89832102.724 7  21937901.703                    21937909.461
 119743351.311 7  93306575.190 7  22786391.938                    22786402.125
 11  8 12  0 33  0.0000000  0  8G30G17G10G04G09G02G12G05
 125175151.857 6  97539137.54243  23820042.789                    23820051.984
 119612677.623 7  93204789.441 7  22761522.727                    22761531.043
 110377421.687 7  86008500.43646  21004107.422                    21004116.059
 110902094.430 8  86417333.36146  21103948.406                    21103956.723
 121465370.643 7  94648405.92544  23114100.352                    23114110.801
 108516889.113 8  84558653.58346  20650043.422                    20650049.227
 115209763.469 7  89773920.719 7  21923693.125                    21923700.625
 119642839.229 7  93228254.200 7  22767265.164                    22767275.430
 11  8 12  0 33 30.0000000  0  8G30G17G10G04G09G02G12G05
 125073185.480 6  97459683.32043  23800639.273                    23800648.719
 119660313.497 7  93241908.256 7  22770587.320                    22770595.766
 110350470.029 8  85987499.16445  20998978.391                    20998987.043
 110971045.639 8  86471061.58546  21117069.250                    21117077.824
 121535485.401 7  94703040.72144  23127442.609                    23127453.461
 108503441.346 8  84548174.81346  20647484.266                    20647490.207
 115135430.122 7  89715998.663 7  21909547.773                    21909555.219
 119542505.040 7  93150071.822 7  22748171.539                    22748182.359
 11  8 12  0 34  0.0000000  0  8G30G17G10G04G09G02G12G05
 124971432.685 6  97380395.52643  23781275.523                    23781285.281
 119708083.257 7  93279131.387 6  22779677.633                    22779686.504
 110324112.376 8  85966960.76746  20993963.016                    20993971.285
 111040227.660 8  86524969.66346  21130233.891                    21130242.816
 121605898.572 7  94757908.06044  23140841.727                    23140852.242
 108490326.420 8  84537955.40946  20644988.227                    20644994.074
 115061432.330 8  89658338.085 7  21895466.539                    21895474.180
 119442350.940 7  93072029.765 7  22729113.469                    22729123.719
 11  8 12  0 34 30.0000000  0  8G30G17G10G04G09G02G12G05
 124869896.933 6  97301276.82843  23761954.117                    23761963.184
 119755987.872 7  93316459.605 7  22788793.359                    22788802.344
 110298350.672 8  85946886.74545  20989060.734                    20989068.590
 111109638.653 8  86579056.14446  21143442.484                    21143451.160
 121676607.240 7  94813005.65444  23154297.570                    23154307.648
 108477544.027 8  84527995.11246  20642556.070                    20642561.414
 114987773.186 7  89600941.391 7  21881449.766                    21881457.238
 119342379.919 7  92994130.382 7  22710089.281                    22710099.590
 11  8 12  0 35  0.0000000  0  8G30G17G10G04G09G02G12G05
 124768580.778 6  97222329.22543  23742675.078                    23742683.535
 119804027.708 7  93353893.204 7  22797935.133                    22797943.633
 110273186.444 8  85927278.26946  20984272.016                    20984280.387
 111179276.073 8  86633319.07245  21156694.484                    21156702.332
 121747607.954 7  94868330.81944  23167807.922                    23167818.848
 108465093.169 8  84518293.15346  20640186.672                    20640192.754
 114914454.869 8  89543810.267 7  21867497.766                    21867505.203
 119242595.297 7  92916376.234 7  22691101.391                    22691111.254
 11  8 12  0 35 30.0000000  0  8G30G17G10G04G09G02G12G05
 124667486.799 6  97143554.72843  23723436.609                    23723446.113
 119852203.347 7  93391432.619 7  22807102.773                    22807111.645
 110248620.591 8  85908136.07346  20979597.641                    20979605.574
 111249137.514 8  86687756.55745  21169988.320                    21169996.754
 121818897.005 7  94923880.64244  23181374.461                    23181385.074
 108452972.591 8  84508848.54946  20637880.141                    20637886.219
 114841479.759 7  89486946.585 7  21853610.891                    21853618.895
 119142999.740 7  92838769.410 7  22672148.570                    22672158.582
 11  8 12  0 36  0.0000000  0  8G30G17G10G04G09G02G12G05
 124566618.233 6  97064955.85543  23704242.414                    23704251.430
 119900515.878 7  93429078.703 7  22816296.750                    22816305.652
 110224655.315 8  85889461.85746  20975036.961                    20975045.160
 111319221.018 8  86742367.07046  21183324.984                    21183333.449
 121890471.402 7  94979652.81844  23194994.617                    23195005.145
 108441182.053 8  84499661.12146  20635636.602                    20635642.375
 114768850.975 7  89430352.774 7  21839790.063                    21839797.863
 119043596.697 7  92761312.607 7  22653232.172                    22653243.055
 11  8 12  0 36 30.0000000  0  8G30G17G10G04G09G02G12G05
 124465978.242 6  96986535.09243  23685091.492                    23685100.098
 119948965.638 7  93466831.722 7  22825516.609                    22825524.883
 110201291.971 8  85871256.69246  20970591.063                    20970598.918
 111389524.875 8  86797149.28946  21196703.242                    21196711.410
 121962328.333 7  95035645.14544  23208668.680                    23208678.891
 108429721.300 8  84490730.67046  20633455.500                    20633461.457
 114696571.110 7  89374030.843 7  21826035.977                    21826043.313
 118944389.274 7  92684008.227 7  22634353.734                    22634363.867
 11  8 12  0 37  0.0000000  0  8G30G17G10G04G09G02G12G05
 124365569.533 7  96908294.58943  23665983.797                    23665993.051
 119997553.399 7  93504692.278 7  22834762.258                    22834771.125
 110178531.794 8  85853521.52546  20966259.711                    20966268.496
 111460046.463 8  86852101.17245  21210123.219                    21210131.082
 122034463.947 7  95091854.61944  23222395.195                    23222406.242
 108418588.964 8  84482056.13046  20631337.570                    20631343.215
 114624642.653 7  89317982.739 7  21812347.945                    21812355.844
 118845380.538 7  92606858.664 7  22615513.531                    22615523.219
 11  8 12  0 37 30.0000000  0  8G30G17G10G04G09G02G12G05
 124265394.695 6  96830236.30743  23646921.539                    23646930.852
 120046279.733 7  93542660.835 7  22844034.930                    22844043.605
 110156375.974 8  85836257.28946  20962043.375                    20962052.078
 111530783.534 8  86907220.95645  21223584.039                    21223592.344
 122106874.784 7  95148278.54244  23236175.219                    23236185.688
 108407783.973 8  84473636.66546  20629281.375                    20629286.727
 114553068.076 8  89262210.374 7  21798728.047                    21798735.563
 118746573.096 7  92529865.968 7  22596710.672                    22596720.266
 11  8 12  0 38  0.0000000  0  8G30G17G10G04G09G02G12G05
 124165456.147 6  96752362.14644  23627904.109                    23627913.465
 120095144.634 7  93580737.374 7  22853334.102                    22853342.324
 110134825.147 8  85819464.47946  20957942.578                    20957950.699
 111601733.352 8  86962506.51345  21237085.523                    21237093.793
 122179557.182 7  95204914.10444  23250006.641                    23250016.793
 108397305.011 8  84465471.24046  20627286.828                    20627292.668
 114481849.523 7  89206715.433 7  21785174.727                    21785183.109
 118647969.773 7  92453032.294 7  22577947.250                    22577956.621
 11  8 12  0 38 30.0000000  0  8G30G17G10G04G09G02G12G05
 124065756.803 6  96674674.37443  23608931.641                    23608940.922
 120144148.831 7  93618922.465 7  22862658.438                    22862667.441
 110113881.027 8  85803144.41746  20953957.492                    20953965.477
 111672893.664 8  87017956.08745  21250626.805                    21250635.160
 122252507.959 7  95261758.77644  23263887.844                    23263898.871
 108387151.035 8  84457559.03846  20625354.789                    20625360.766
 114410989.600 7  89151499.950 7  21771691.188                    21771698.809
 118549573.501 7  92376359.970 7  22559222.641                    22559232.910
 11  8 12  0 39  0.0000000  0  9G25G30G17G10G04G09G02G12G05
 129586735.19716 100976692.44916  24659534.617                    24659545.328
 123966299.830 6  96597175.47643  23590004.984                    23590014.918
 120193293.234 7  93657216.797 7  22872010.852                    22872019.297
 110093545.028 8  85787298.20546  20950087.203                    20950095.398
 111744262.790 7  87073568.37745  21264207.906                    21264216.266
 122325723.592 7  95318809.83244  23277820.930                    23277831.031
 108377321.804 8  84449899.89746  20623484.406                    20623490.359
 114340491.164 8  89096566.131 7  21758275.688                    21758283.605
 118451387.565 7  92299851.552 7  22540538.188                    22540548.324
 11  8 12  0 39 30.0000000  0  9G25G30G17G10G04G09G02G12G05
 129483435.693 6 100896199.336 6  24639877.227                    24639888.766
 123867088.563 6  96519868.04944  23571126.672                    23571135.730
 120242579.156 7  93695621.429 7  22881389.453                    22881398.145
 110073818.781 8  85771927.13545  20946333.164                    20946341.152
 111815838.722 8  87129341.81045  21277828.375                    21277836.953
 122399201.366 7  95376065.16644  23291803.234                    23291813.781
 108367816.690 8  84442493.32546  20621675.367                    20621681.109
 114270356.726 8  89041915.950 7  21744929.570                    21744937.176
 118353415.481 7  92223509.760 7  22521894.156                    22521905.066
 11  8 12  0 40  0.0000000  0  9G25G30G17G10G04G09G02G12G05
 129380242.194 6 100815788.842 6  24620239.688                    24620251.297
 123768125.743 6  96442754.23243  23552293.563                    23552303.418
 120292006.613 7  93734136.337 7  22890795.039                    22890803.848
 110054703.075 8  85757031.80946  20942695.781                    20942703.785
 111887619.702 8  87185275.01545  21291487.281                    21291495.602
 122472937.880 7  95433522.11344  23305834.578                    23305845.594
 108358635.070 8  84435338.84646  20619928.320                    20619933.965
 114200589.119 8  88987551.607 7  21731652.883                    21731660.402
 118255660.086 7  92147336.821 7  22503292.914                    22503302.664
 11  8 12  0 40 30.0000000  0  9G25G30G17G10G04G09G02G12G05
 129277157.247 7 100735462.919 6  24600623.336                    24600635.199
 123669414.249 6  96365836.20343  23533510.016                    23533519.156
 120341576.707 7  93772762.389 7  22900227.961                    22900236.402
 110036199.365 8  85742613.36846  20939174.625                    20939182.770
 111959603.125 8  87241365.97445  21305185.594                    21305193.973
 122546929.645 7  95491177.93844  23319915.219                    23319925.590
 108349775.722 8  84428435.48446  20618242.250                    20618248.316
 114131191.002 8  88933475.185 7  21718447.344                    21718454.617
 118158124.317 7  92071335.017 7  22484732.570                    22484741.891
 11  8 12  0 41  0.0000000  0  9G25G30G17G10G04G09G02G12G05
 129174182.281 6 100655222.719 6  24581028.578                    24581039.730
 123570955.924 6  96289115.46143  23514774.523                    23514783.266
 120391288.824 7  93811499.087 7  22909687.563                    22909696.691
 110018307.917 8  85728672.00346  20935770.117                    20935778.070
 112031785.845 8  87297612.23345  21318921.820                    21318929.969
 122621172.412 6  95549029.34544  23334043.211                    23334053.449
 108341236.507 8  84421781.55446  20616617.516                    20616623.195
 114062163.915 7  88879687.863 7  21705311.711                    21705319.637
 118060810.402 7  91995506.094 7  22466213.438                    22466223.465
 11  8 12  0 41 30.0000000  0  9G25G30G17G10G04G09G02G12G05
 129071319.931 6 100575070.314 6  24561453.930                    24561465.543
 123472753.688 6  96212594.26343  23496086.977                    23496095.609
 120441143.671 7  93850346.993 6  22919174.781                    22919183.207
 110001029.995 8  85715208.72246  20932482.063                    20932490.516
 112104165.768 8  87354012.15545  21332695.313                    21332703.039
 122695663.007 7  95607073.86544  23348218.391                    23348229.152
 108333016.734 8  84415376.54946  20615053.039                    20615058.734
 113993510.452 7  88826191.684 7  21692247.242                    21692255.086
 117963721.351 7  91919852.379 7  22447738.266                    22447748.359
 11  8 12  0 42  0.0000000  0  9G25G30G17G10G04G09G02G12G05
 128968572.874 6 100495007.771 6  24541901.586                    24541913.242
 123374810.581 6  96136274.99243  23477448.648                    23477457.773
 120491141.984 6  93889306.722 6  22928688.938                    22928697.707
 109984366.511 8  85702224.22046  20929311.016                    20929319.230
 112176740.952 7  87410564.22345  21346505.922                    21346513.754
 122770397.979 6  95665308.80044  23362440.445                    23362451.250
 108325115.613 8  84409219.84746  20613549.586                    20613555.148
 113925233.187 8  88772988.642 7  21679254.500                    21679262.219
 117866860.415 7  91844376.426 7  22429306.234                    22429315.727
 11  8 12  0 42 30.0000000  0  9G25G30G17G10G04G09G02G12G05
 128865943.378 6 100415036.814 6  24522371.797                    24522383.219
 123277129.439 7  96060159.80443  23458861.133                    23458869.664
 120541284.388 6  93928378.719 6  22938231.063                    22938239.453
 109968318.579 8  85689719.37946  20926257.375                    20926265.305
 112249509.127 8  87467266.68945  21360352.992                    21360360.891
 122845373.653 7  95723731.32744  23376707.016                    23376718.594
 108317531.961 8  84403310.52146  20612106.711                    20612112.254
 113857334.501 8  88720080.593 7  21666333.797                    21666341.836
 117770230.281 7  91769080.314 7  22410918.000                    22410927.973
 11  8 12  0 43  0.0000000  0  9G25G30G17G10G04G09G02G12G05
 128763434.330 6 100335159.734 6  24502864.945                    24502876.375
 123179713.207 7  95984251.06043  23440323.141                    23440332.508
 120591571.608 6  93967563.541 6  22947800.758                    22947808.867
 109952887.404 8  85677695.12346  20923320.789                    20923328.809
 112322468.467 8  87524118.11145  21374236.734                    21374245.238
 122920587.409 7  95782339.33944  23391019.953                    23391031.148
 108310265.456 8  84397648.32946  20610723.813                    20610729.711
 113789817.110 8  88667469.656 7  21653485.617                    21653493.383
 117673834.188 7  91693966.578 7  22392574.477                    22392584.340
 11  8 12  0 43 30.0000000  0  9G25G30G17G10G04G09G02G12G05
 128661048.058 6 100255378.356 6  24483381.086                    24483392.898
 123082564.851 7  95908551.07744  23421836.125                    23421845.516
 120642004.094 6  94006861.553 6  22957397.180                    22957405.527
 109938073.764 8  85666152.05046  20920502.164                    20920510.461
 112395616.709 8  87581116.73145  21388155.914                    21388164.473
 122996035.573 6  95841130.02744  23405377.664                    23405388.484
 108303314.825 8  84392232.27046  20609401.344                    20609406.875
 113722683.775 8  88615157.998 7  21640710.500                    21640718.359
 117577675.014 7  91619037.443 7  22374275.906                    22374285.605
 11  8 12  0 44  0.0000000  0  9G25G30G17G10G04G09G02G12G05
 128558787.059 6 100175694.606 6  24463921.453                    24463932.781
 122985686.963 7  95833061.81843  23403400.797                    23403409.832
 120692582.424 6  94046273.194 6  22967022.016                    22967030.629
 109923878.358 8  85655090.72946  20917800.617                    20917808.887
 112468951.455 8  87638260.67245  21402111.563                    21402119.578
 123071714.414 6  95900100.44744  23419778.898                    23419790.238
 108296678.968 8  84387061.48846  20608138.609                    20608144.043
 113655936.577 8  88563147.230 7  21628009.195                    21628016.926
 117481755.805 7  91544295.297 7  22356023.000                    22356033.020
 11  8 12  0 44 30.0000000  0  9G25G30G17G10G04G09G02G12G05
 128456653.951 6 100096110.474 6  24444486.117                    24444497.633
 122889082.645 7  95757785.75943  23385017.211                    23385026.801
 120743307.247 7  94085798.993 6  22976674.234                    22976682.637
 109910302.404 8  85644512.09046  20915216.875                    20915225.191
 112542470.687 8  87695548.38245  21416101.773                    21416110.363
 123147620.567 7  95959248.00944  23434223.336                    23434234.516
 108290356.879 8  84382135.18646  20606935.289                    20606941.250
 113589578.261 8  88511439.484 7  21615381.773                    21615389.242
 117386079.635 7  91469742.540 7  22337816.375                    22337825.863
 11  8 12  0 45  0.0000000  0  9G25G30G17G10G04G09G02G12G05
 128354651.037 6 100016627.767 6  24425075.828                    24425086.473
 122792754.620 7  95682725.01643  23366686.727                    23366695.926
 120794179.364 6  94125439.555 6  22986355.148                    22986363.902
 109897346.734 8  85634416.78546  20912751.414                    20912760.008
 112616172.250 8  87752978.16745  21430126.914                    21430135.348
 123223750.769 7  96018570.15344  23448710.461                    23448721.652
 108284347.685 8  84377452.69646  20605791.914                    20605797.785
 113523610.636 8  88460036.168 7  21602828.219                    21602835.836
 117290649.271 7  91395381.300 7  22319656.594                    22319666.109
 11  8 12  0 45 30.0000000  0  9G25G30G17G10G04G09G02G12G05
 128252780.950 7  99937248.572 6  24405689.852                    24405701.340
 122696705.728 7  95607881.76744  23348408.969                    23348418.527
 120845198.916 6  94165195.013 6  22996063.352                    22996072.523
 109885012.192 8  85624805.46846  20910404.688                    20910412.547
 112690054.165 8  87810548.48345  21444185.891                    21444194.410
 123300101.344 7  96078064.01644  23463240.180                    23463250.445
 108278650.525 8  84373013.36846  20604707.813                    20604713.328
 113458036.575 8  88408939.520 7  21590350.078                    21590357.695
 117195467.775 7  91321213.992 7  22301544.031                    22301553.332
 11  8 12  0 46  0.0000000  0  9G25G30G17G10G04G09G02G12G05
 128151046.074 7  99857974.728 6  24386330.648                    24386341.613
 122600938.725 6  95533258.18243  23330185.602                    23330194.137
 120896366.713 6  94205065.972 6  23005801.109                    23005809.402
 109873299.569 8  85615678.77345  20908175.594                    20908184.070
 112764113.841 8  87868257.32145  21458278.859                    21458287.723
 123376668.980 6  96137726.98744  23477810.305                    23477821.148
 108273263.737 8  84368815.88746  20603682.758                    20603688.297
 113392858.516 8  88358151.445 7  21577946.930                    21577954.180
 117100538.023 7  91247242.867 7  22283479.273                    22283488.730
 11  8 12  0 46 30.0000000  0  9G25G30G17G10G04G09G02G12G05
 128049449.478 6  99778808.623 6  24366998.047                    24367009.102
 122505456.933 7  95458856.85943  23312016.469                    23312024.949
 120947683.810 7  94245053.273 6  23015566.555                    23015574.895
 109862210.117 8  85607037.65946  20906065.227                    20906073.332
 112838349.869 8  87926103.56445  21472406.109                    21472414.457
 123453450.725 6  96197556.82144  23492421.273                    23492432.551
 108268187.562 8  84364860.43446  20602716.703                    20602722.418
 113328079.182 8  88307674.063 7  21565619.438                    21565626.598
 117005863.231 7  91173470.399 7  22265463.438                    22265472.816
 11  8 12  0 47  0.0000000  0  9G25G30G17G10G04G09G02G12G05
 127947993.347 6  99699751.954 6  24347690.906                    24347702.781
 122410262.878 7  95384679.77644  23293901.914                    23293910.203
 120999150.211 7  94285156.920 6  23025360.266                    23025368.566
 109851744.215 8  85598882.43146  20904073.617                    20904081.785
 112912759.855 8  87984085.36945  21486565.320                    21486573.930
 123530442.824 6  96257550.57444  23507072.094                    23507083.340
 108263420.298 8  84361145.69046  20601809.563                    20601815.410
 113263700.900 8  88257509.194 7  21553368.867                    21553376.676
 116911446.405 7  91099898.934 7  22247496.305                    22247505.945
 11  8 12  0 47 30.0000000  0  9G25G30G17G10G04G09G02G12G05
 127846680.508 6  99620806.920 6  24328412.039                    24328423.566
 122315359.689 7  95310729.32243  23275840.719                    23275850.223
 121050766.948 7  94325377.713 6  23035183.242                    23035191.488
 109841902.672 8  85591213.72146  20902201.180                    20902209.309
 112987341.837 8  88042201.18145  21500758.102                    21500766.305
 123607642.119 6  96317705.75744  23521762.867                    23521774.547
 108258961.018 8  84357670.93346  20600960.867                    20600966.563
 113199726.380 8  88207658.950 7  21541194.875                    21541202.363
 116817290.461 7  91026530.767 7  22229578.805                    22229588.188
 11  8 12  0 48  0.0000000  0  9G25G30G17G10G04G09G02G12G05
 127745513.220 7  99541975.305 6  24309160.602                    24309171.773
 122220749.834 6  95237007.42543  23257837.609                    23257846.160
 121102534.061 7  94365715.693 7  23045034.039                    23045042.484
 109832685.990 8  85584031.90346  20900446.922                    20900455.152
 113062093.510 8  88100449.23045  21514982.727                    21514991.301
 123685044.833 7  96378019.46344  23536492.602                    23536503.422
 108254808.453 8  84354435.17146  20600170.656                    20600176.426
 113136157.693 8  88158124.926 7  21529098.328                    21529105.695
 116723397.993 7  90953367.897 7  22211711.563                    22211721.188
 11  8 12  0 48 30.0000000  0  9G25G30G17G10G04G09G02G12G05
 127644494.049 6  99463259.098 6  24289936.930                    24289948.168
 122126436.251 6  95163516.40543  23239890.594                    23239899.313
 121154452.151 7  94406171.331 7  23054913.383                    23054921.988
 109824094.901 8  85577337.56546  20898812.320                    20898820.406
 113137012.648 8  88158827.75045  21529239.516                    21529248.141
 123762647.571 7  96438489.03144  23551259.875                    23551270.855
 108250961.604 8  84351437.63246  20599438.648                    20599444.500
 113072996.936 8  88108908.773 7  21517078.930                    21517086.570
 116629772.061 7  90880412.723 7  22193895.297                    22193904.684
 11  8 12  0 49  0.0000000  0  9G25G30G17G10G04G09G02G12G05
 127543625.444 6  99384660.210 6  24270742.188                    24270753.633
 122032421.653 6  95090258.36144  23221999.766                    23222008.875
 121206521.997 7  94446745.204 7  23064822.211                    23064831.031
 109816130.060 8  85571131.21546  20897296.328                    20897304.441
 113212097.200 8  88217335.17845  21543527.406                    21543536.363
 123840447.014 7  96499111.87344  23566064.961                    23566076.180
 108247419.474 8  84348677.53846  20598764.742                    20598770.422
 113010246.820 7  88060012.581 7  21505138.320                    21505145.797
 116536415.663 7  90807667.562 7  22176130.391                    22176139.715
 11  8 12  0 49 30.0000000  0  9G25G30G17G10G04G09G02G12G05
 127442910.111 7  99306180.754 6  24251576.805                    24251588.535
 121938709.027 6  95017235.62744  23204166.938                    23204175.359
 121258743.994 7  94487437.642 7  23074759.336                    23074768.109
 109808792.158 8  85565413.39046  20895900.391                    20895908.473
 113287345.085 8  88275969.87245  21557847.203                    21557855.035
 123918439.696 7  96559885.30644  23580906.234                    23580917.180
 108244181.041 8  84346154.09546  20598148.477                    20598154.102
 112947909.686 7  88011438.198 7  21493275.922                    21493283.590
 116443331.688 7  90735134.690 7  22158416.539                    22158425.754
 11  8 12  0 50  0.0000000  0  9G25G30G17G10G04G09G02G12G05
 127342350.527 7  99227822.653 6  24232440.953                    24232453.180
 121845301.164 6  94944450.33944  23186391.469                    23186400.316
 121311118.649 7  94528249.017 7  23084726.305                    23084734.938
 109802081.644 8  85560184.44046  20894623.070                    20894631.656
 113362754.199 7  88334730.19745  21572197.070                    21572204.949
 123996622.229 6  96620806.62444  23595783.523                    23595795.137
 108241245.119 7  84343866.38646  20597589.813                    20597595.309
 112885987.783 7  87963187.372 7  21481492.094                    21481499.715
 116350522.958 7  90662816.289 7  22140755.648                    22140765.129
 11  8 12  0 50 30.0000000  0  9G25G30G17G10G04G09G02G12G05
 127241949.052 7  99149587.756 6  24213335.109                    24213347.047
 121752200.487 6  94871904.42344  23168674.930                    23168684.035
 121363646.483 7  94569179.795 7  23094721.820                    23094731.129
 109795998.814 8  85555444.59846  20893465.633                    20893473.906
 113438322.318 8  88393614.43145  21586576.813                    21586585.078
 124074990.848 6  96681872.99344  23610696.648                    23610708.051
 108238610.412 8  84341813.37846  20597088.086                    20597094.375
 112824483.296 7  87915261.813 7  21469788.648                    21469796.156
 116257992.605 7  90590714.808 7  22123147.672                    22123156.969
 11  8 12  0 51  0.0000000  0  9G25G30G17G10G04G09G02G12G05
 127141708.873 7  99071478.518 6  24194260.227                    24194271.391
 121659410.684 6  94799600.73844  23151017.469                    23151027.109
 121416328.507 7  94610230.693 7  23104746.898                    23104755.992
 109790544.903 7  85551194.82246  20892427.875                    20892435.777
 113514047.905 8  88452621.34545  21600986.938                    21600995.383
 124153542.642 7  96743082.08244  23625644.758                    23625656.219
 108236276.559 8  84339994.80646  20596644.086                    20596649.992
 112763399.170 7  87867663.804 7  21458164.594                    21458172.332
 116165743.225 7  90518832.260 7  22105593.406                    22105602.391
 11  8 12  0 51 30.0000000  0  9G25G30G17G10G04G09G02G12G05
 127041632.069 7  98993496.597 6  24175216.477                    24175227.496
 121566933.941 7  94727540.99744  23133420.664                    23133429.266
 121469164.885 7  94651401.872 7  23114801.039                    23114809.883
 109785719.835 8  85547435.04746  20891509.727                    20891517.730
 113589928.425 8  88511748.99145  21615426.406                    21615435.230
 124232274.150 7  96804431.22744  23640626.680                    23640638.527
 108234241.810 7  84338409.30246  20596257.211                    20596262.344
 112702737.351 7  87820394.868 7  21446620.820                    21446628.711
 116073777.955 7  90447171.106 7  22088092.922                    22088102.125
 11  8 12  0 52  0.0000000  0  9G25G30G17G10G04G09G02G12G05
 126941721.238 6  98915644.020 6  24156203.875                    24156215.129
 121474773.110 7  94655727.39744  23115882.766                    23115891.359
 121522155.851 7  94692693.512 7  23124885.445                    23124893.738
 109781524.331 8  85544165.84646  20890711.461                    20890719.199
 113665961.710 8  88570995.68345  21629894.961                    21629903.570
 124311181.586 7  96865917.44144  23655642.156                    23655653.719
 108232505.201 7  84337056.11346  20595926.414                    20595932.004
 112642500.111 7  87773456.778 7  21435158.188                    21435165.520
 115982099.682 7  90375733.600 7  22070646.875                    22070656.125
 11  8 12  0 52 30.0000000  0  9G25G30G17G10G04G09G02G12G05
 126841979.168 6  98837922.935 6  24137223.438                    24137234.789
 121382931.259 6  94584162.32544  23098406.023                    23098414.449
 121575302.157 7  94734106.191 7  23134998.219                    23135007.781
 109777958.801 7  85541387.52146  20890032.672                    20890040.766
 113742146.300 8  88630360.26845  21644392.492                    21644401.184
 124390261.670 7  96927538.17044  23670691.234                    23670702.770
 108231065.777 8  84335934.49746  20595652.563                    20595658.188
 112582690.111 7  87726851.608 7  21423776.938                    21423784.223
 115890711.331 7  90304522.007 7  22053256.344                    22053265.309
 11  8 12  0 53  0.0000000  0  9G25G30G17G10G04G09G02G12G05
 126742408.675 6  98760335.557 6  24118275.289                    24118287.309
 121291411.409 6  94512848.17344  23080990.031                    23080998.707
 121628604.831 7  94775640.723 7  23145141.836                    23145150.848
 109775023.837 7  85539100.55746  20889473.977                    20889482.547
 113818480.087 8  88689841.10645  21658918.000                    21658927.215
 124469511.405 6  96989291.11344  23685771.953                    23685783.531
 108229923.000 8  84335044.03746  20595435.047                    20595441.043
 112523309.564 7  87680581.078 7  21412476.617                    21412484.387
 115799615.880 7  90233538.628 7  22035920.852                    22035930.648
 11  8 12  0 53 30.0000000  0  9G25G30G17G10G04G09G02G12G05
 126643012.033 6  98682883.634 6  24099361.258                    24099372.027
 121200216.036 6  94441786.86144  23063636.617                    23063645.098
 121682064.138 7  94817297.315 6  23155314.461                    23155323.816
 109772719.251 7  85537304.80246  20889035.859                    20889043.582
 113894960.711 8  88749436.37145  21673472.039                    21673480.824
 124548926.949 7  97051173.26644  23700884.773                    23700895.828
 108229075.011 8  84334383.28046  20595273.578                    20595279.336
 112464360.630 7  87634646.888 7  21401259.406                    21401266.551
 115708816.134 7  90162785.674 7  22018642.875                    22018651.543
 11  8 12  0 54  0.0000000  0  9G25G30G17G10G04G09G02G12G05
 126543791.833 7  98605569.189 6  24080480.438                    24080491.340
 121109347.966 6  94370980.58044  23046345.078                    23046353.305
 121735680.580 7  94859076.336 6  23165517.430                    23165526.633
 109771045.616 7  85536000.69246  20888717.031                    20888725.148
 113971586.249 8  88809144.54445  21688054.375                    21688062.699
 124628505.062 7  97113182.08444  23716027.453                    23716038.539
 108228520.947 8  84333951.54946  20595168.211                    20595173.898
 112405845.648 7  87589050.834 7  21390124.203                    21390131.918
 115618314.837 7  90092265.269 7  22001420.344                    22001429.758
 11  8 12  0 54 30.0000000  0  9G25G30G17G10G04G09G02G12G05
 126444750.574 7  98528394.222 6  24061633.352                    24061644.461
 121018809.982 6  94300431.52044  23029116.008                    23029125.023
 121789454.190 7  94900977.837 6  23175749.945                    23175759.141
 109770003.380 8  85535188.58646  20888518.523                    20888526.785
 114048354.319 8  88868963.78845  21702662.109                    21702670.723
 124708242.057 7  97175314.72444  23731201.906                    23731212.555
 108228259.547 8  84333747.86946  20595118.633                    20595124.113
 112347766.916 7  87543794.715 7  21379072.156                    21379079.473
 115528114.316 7  90021979.242 7  21984255.727                    21984265.301
 11  8 12  0 55  0.0000000  0  9G25G30G17G10G04G09G02G12G05
 126345890.870 7  98451360.712 6  24042821.406                    24042832.328
 120928604.722 7  94230141.73244  23011949.719                    23011958.492
 121843385.708 7  94943002.368 6  23186013.836                    23186021.879
 109769592.314 8  85534868.29546  20888440.586                    20888448.664
 114125263.457 8  88928892.96945  21717297.281                    21717305.875
 124788134.638 7  97237568.57344  23746404.383                    23746415.313
 108228289.707 8  84333771.37646  20595124.430                    20595129.801
 112290126.343 7  87498880.016 7  21368103.594                    21368111.445
 115438218.193 7  89951930.392 7  21967149.086                    21967158.473
 11  8 12  0 55 30.0000000  0  9G25G30G17G10G04G09G02G12G05
 126247215.661 7  98374470.985 6  24024043.984                    24024054.211
 120838735.555 7  94160113.84044  22994848.695                    22994857.496
 121897475.942 7  94985150.594 6  23196307.000                    23196315.012
 109769813.215 8  85535040.45746  20888482.258                    20888490.922
 114202311.406 8  88988930.30145  21731959.211                    21731967.563
 124868179.658 7  97299941.22044  23761636.844                    23761648.570
 108228610.485 8  84334021.35046  20595185.359                    20595190.895
 112232926.713 7  87454308.908 7  21357218.477                    21357226.367
 115348629.420 7  89882121.054 7  21950101.031                    21950110.047
 11  8 12  0 56  0.0000000  0  9G25G30G17G10G04G09G02G12G05
 126148727.578 7  98297727.077 6  24005301.742                    24005313.359
 120749205.164 6  94090349.95044  22977811.266                    22977820.352
 121951725.479 7  95027422.939 6  23206629.836                    23206638.059
 109770666.187 8  85535705.13146  20888644.875                    20888652.984
 114279496.654 8  89049074.61345  21746647.555                    21746655.754
 124948373.762 7  97362430.00944  23776896.727                    23776908.672
 108229220.942 8  84334497.04546  20595301.570                    20595307.109
 112176170.495 7  87410083.304 7  21346418.250                    21346426.023
 115259350.736 7  89812553.333 7  21933111.500                    21933120.801
 11  8 12  0 56 30.0000000  0  9G25G30G17G10G04G09G02G12G05
 126050429.330 7  98221131.138 6  23986597.055                    23986607.105
 120660016.497 6  94020852.32544  22960840.211                    22960848.363
 122006135.010 7  95069819.950 6  23216983.867                    23216992.012
 109772151.579 8  85536862.60046  20888927.797                    20888935.461
 114356817.189 8  89109324.36645  21761360.922                    21761369.133
 125028713.345 7  97425032.19644  23792185.266                    23792197.129
 108230120.175 8  84335197.76146  20595472.648                    20595478.230
 112119859.792 7  87366204.859 7  21335703.094                    21335710.285
 115170385.340 7  89743229.735 7  21916182.445                    21916191.563
 11  8 12  0 57  0.0000000  0  9G25G30G17G10G04G09G02G12G05
 125952323.353 7  98144684.975 6  23967927.961                    23967938.320
 120571172.221 7  93951623.05044  22943932.734                    22943941.531
 122060704.813 7  95112341.839 6  23227367.430                    23227375.855
 109774269.561 7  85538512.99446  20889330.188                    20889338.383
 114434270.846 8  89169677.83545  21776100.102                    21776108.520
 125109194.953 6  97487745.01044  23807501.008                    23807512.160
 108231306.471 8  84336122.16246  20595698.016                    20595703.953
 112063996.735 7  87322675.214 7  21325071.859                    21325079.934
 115081735.638 7  89674152.126 7  21899312.813                    21899321.555
 11  8 12  0 57 30.0000000  0  9G25G30G17G10G04G09G02G12G05
 125854412.379 7  98068390.797 6  23949295.711                    23949306.547
 120482675.157 7  93882664.34744  22927092.016                    22927100.684
 122115435.101 7  95154988.803 6  23237782.953                    23237790.684
 109777020.419 7  85540656.54546  20889854.320                    20889862.184
 114511855.624 8  89230133.48845  21790864.070                    21790872.492
 125189815.576 6  97550566.16744  23822842.297                    23822854.094
 108232779.207 8  84337269.75646  20595978.547                    20595984.215
 112008583.442 8  87279496.043 7  21314527.445                    21314534.770
 114993404.691 7  89605322.889 7  21882503.750                    21882512.863
 11  8 12  0 58  0.0000000  0  9G25G30G17G10G04G09G02G12G05
 125756698.986 7  97992250.565 6  23930701.211                    23930711.641
 120394528.117 6  93813978.41544  22910319.031                    22910327.668
 122170326.826 7  95197761.560 6  23248227.508                    23248236.430
 109780404.019 7  85543293.14146  20890497.945                    20890505.586
 114589569.708 8  89290689.90045  21805652.484                    21805660.957
 125270571.809 7  97613492.97944  23838209.602                    23838221.676
 108234537.048 7  84338639.50546  20596312.883                    20596318.617
 111953622.273 7  87236669.150 7  21304068.711                    21304076.168
 114905395.244 7  89536744.184 7  21865756.195                    21865764.730
 11  8 12  0 58 30.0000000  0  9G25G30G17G10G04G09G02G12G05
 125659185.801 7  97916266.350 6  23912144.328                    23912156.047
 120306733.816 7  93745567.33444  22893611.672                    22893620.469
 122225380.307 7  95240660.352 6  23258703.867                    23258712.602
 109784420.452 7  85546422.85946  20891262.422                    20891269.965
 114667411.202 8  89351345.59645  21820465.234                    21820473.484
 125351460.004 6  97676522.61744  23853602.133                    23853613.844
 108236578.721 7  84340230.43146  20596701.688                    20596707.086
 111899115.653 8  87194196.457 7  21293696.523                    21293703.777
 114817710.235 7  89468418.277 7  21849070.633                    21849079.621
 11  8 12  0 59  0.0000000  0  9G25G30G17G10G04G09G02G12G05
 125561875.463 7  97840440.177 6  23893627.172                    23893638.332
 120219295.127 7  93677433.33544  22876972.391                    22876981.363
 122280596.113 7  95283685.618 6  23269211.359                    23269220.168
 109789069.744 8  85550045.70746  20892146.773                    20892155.121
 114745378.050 7  89412098.99045  21835301.523                    21835310.375
 125432477.181 6  97739652.77543  23869019.336                    23869031.258
 108238903.428 8  84342041.90046  20597143.945                    20597149.738
 111845065.374 8  87152079.343 7  21283411.195                    21283418.953
 114730352.376 7  89400347.292 7  21832445.797                    21832454.934
 11  8 12  0 59 30.0000000  0  9G25G30G17G10G04G09G02G12G05
 125464770.745 7  97764774.219 6  23875148.148                    23875159.832
 120132214.939 7  93609578.68144  22860401.664                    22860410.496
 122335974.924 7  95326837.897 6  23279749.883                    23279758.508
 109794352.283 7  85554161.99846  20893151.883                    20893160.051
 114823468.555 7  89472948.73445  21850161.961                    21850170.309
 125513619.820 6  97802880.70744  23884460.641                    23884472.086
 108241509.965 7  84344072.96546  20597639.852                    20597645.316
 111791474.593 8  87110320.287 7  21273213.016                    21273220.582
 114643324.611 7  89332533.528 7  21815885.148                    21815894.766
 11  8 12  1  0  0.0000000  0  9G25G30G17G10G04G09G02G12G05
 125367873.949 7  97689270.276 6  23856709.891                    23856720.879
 120045495.663 7  93542005.23944  22843899.477                    22843908.598
 122391516.670 7  95370117.161 6  23290319.625                    23290328.379
 109800267.723 8  85558771.46046  20894277.633                    20894285.688
 114901680.367 8  89533893.00345  21865044.773                    21865053.750
 125594884.098 7  97866203.40244  23899924.531                    23899935.656
 108244396.628 7  84346322.30546  20598189.461                    20598195.031
 111738344.039 8  87068919.859 7  21263102.648                    21263110.367
 114556629.278 7  89264978.809 7  21799387.641                    21799396.590
 11  8 12  1  0 30.0000000  0  9G25G30G17G10G04G09G02G12G05
 125271187.990 7  97613930.640 6  23838311.156                    23838322.422
 119959140.391 7  93474715.44144  22827466.867                    22827475.797
 122447222.378 7  95413524.187 6  23300919.602                    23300928.355
 109806815.834 8  85563873.91746  20895523.984                    20895531.789
 114980011.903 7  89594930.57145  21879951.352                    21879959.488
 125676267.270 6  97929618.75943  23915411.406                    23915422.555
 108247563.086 8  84348789.67746  20598791.953                    20598797.605
 111685676.323 8  87027880.084 7  21253080.703                    21253088.301
 114470269.668 7  89197685.685 7  21782953.914                    21782962.711
 11  8 12  1  1  0.0000000  0  9G25G30G17G10G04G09G02G12G05
 125174715.395 7  97538757.214 6  23819952.984                    23819963.402
 119873151.717 7  93407711.31044  22811103.586                    22811113.289
 122503092.301 7  95457059.167 6  23311551.852                    23311560.449
 109813996.724 8  85569469.44646  20896890.102                    20896898.434
 115058461.240 7  89656059.93645  21894879.078                    21894888.074
 125757765.541 6  97993123.75344  23930920.430                    23930931.883
 108251007.855 8  84351473.92746  20599447.180                    20599453.113
 111633473.554 8  86987202.607 7  21243146.648                    21243154.578
 114384248.440 7  89130656.238 7  21766584.813                    21766593.773
 11  8 12  1  1 30.0000000  0  9G25G30G17G10G04G09G02G12G05
 125078459.146 7  97463752.366 6  23801635.969                    23801646.793
 119787532.779 7  93340995.28644  22794811.211                    22794819.984
 122559127.120 7  95500722.646 7  23322214.289                    23322223.305
 109821810.559 8  85575558.17746  20898376.922                    20898384.707
 115137026.753 8  89717279.82645  21909829.742                    21909838.676
 125839375.557 6  98056715.76443  23946450.156                    23946461.961
 108254730.058 8  84354374.35246  20600155.602                    20600161.188
 111581738.430 8  86946889.540 7  21233301.742                    21233309.383
 114298568.701 7  89063892.889 7  21750280.156                    21750289.234
 11  8 12  1  2  0.0000000  0  9G25G30G17G10G04G09G02G12G05
 124982421.624 7  97388917.932 6  23783360.781                    23783371.328
 119702286.026 7  93274569.26844  22778588.828                    22778598.484
 122615327.117 7  95544514.853 6  23332909.070                    23332917.371
 109830256.910 8  85582139.77946  20899984.297                    20899992.121
 115215706.259 7  89778588.53845  21924801.438                    21924810.582
 125921094.300 7  98120392.58443  23962000.180                    23962012.574
 108258728.126 8  84357489.75046  20600916.547                    20600921.918
 111530472.628 8  86906942.189 7  21223546.305                    21223553.750
 114213233.019 8  88997397.623 7  21734041.602                    21734050.227
 11  8 12  1  2 30.0000000  0  9G25G30G17G10G04G09G02G12G05
 124886605.387 7  97314255.980 6  23765127.719                    23765138.449
 119617414.104 7  93208435.30944  22762438.367                    22762447.313
 122671692.482 7  95588435.897 6  23343634.711                    23343643.738
 109839335.133 8  85589213.75446  20901712.023                    20901719.574
 115294497.880 7  89839984.62245  21939795.148                    21939804.141
 126002918.099 7  98184151.27143  23977571.883                    23977582.883
 108263000.927 8  84360819.23246  20601729.461                    20601735.199
 111479678.314 8  86867362.217 7  21213880.438                    21213887.766
 114128243.775 8  88931172.327 7  21717868.430                    21717877.262
 11  8 12  1  3  0.0000000  0  9G25G30G17G10G04G09G02G12G05
 124791013.331 7  97239768.700 6  23746936.695                    23746947.668
 119532919.976 7  93142595.73944  22746359.914                    22746368.359
 122728224.224 7  95632486.620 6  23354393.000                    23354402.133
 109849045.649 8  85596780.42446  20903559.523                    20903567.699
 115373399.722 7  89901466.58245  21954810.063                    21954818.352
 126084843.464 7  98247989.12444  23993161.508                    23993173.199
 108267547.405 8  84364361.96246  20602594.805                    20602600.188
 111429357.802 8  86828151.465 7  21204304.484                    21204311.918
 114043604.217 8  88865219.506 7  21701761.930                    21701771.027
 11  8 12  1  3 30.0000000  0  9G25G30G17G10G04G09G02G12G05
 124695648.006 7  97165458.094 6  23728789.047                    23728800.117
 119448806.401 7  93077052.73344  22730353.430                    22730362.781
 122784922.473 6  95676667.076 6  23365181.180                    23365191.203
 109859388.101 8  85604839.50945  20905527.742                    20905535.879
 115452410.032 8  89963033.06445  21969845.453                    21969854.199
 126166867.384 7  98311903.77243  24008770.023                    24008781.824
 108272366.251 8  84368116.92746  20603511.445                    20603517.230
 111379512.789 8  86789311.236 7  21194819.641                    21194827.152
 113959316.730 8  88799541.028 7  21685722.414                    21685731.379
 11  8 12  1  4  0.0000000  0  9G25G30G17G10G04G09G02G12G05
 124600512.078 7  97091326.263 6  23710685.977                    23710696.867
 119365076.017 7  93011808.31844  22714419.953                    22714428.793
 122841787.797 7  95720977.722 6  23376003.156                    23376012.434
 109870362.308 8  85613390.87046  20907616.219                    20907623.992
 115531526.909 7  90024682.57845  21984900.594                    21984909.238
 126248986.683 7  98375892.73943  24024396.719                    24024408.309
 108277456.566 8  84372083.42346  20604480.313                    20604485.867
 111330145.530 8  86750843.292 7  21185425.344                    21185432.691
 113875384.081 8  88734139.036 7  21669750.391                    21669759.441
 11  8 12  1  4 30.0000000  0  9G25G30G17G10G04G09G02G12G05
 124505608.237 7  97017375.241 6  23692626.531                    23692636.543
 119281731.588 7  92946864.66944  22698560.086                    22698568.941
 122898820.654 6  95765418.914 6  23386855.547                    23386865.117
 109881967.845 8  85622434.17846  20909824.688                    20909832.281
 115610748.693 7  90086413.83945  21999976.141                    21999984.902
 126331197.960 7  98439953.38643  24040041.461                    24040053.594
 108282817.247 8  84376260.59346  20605500.656                    20605505.625
 111281258.213 8  86712749.329 7  21176122.031                    21176129.691
 113791809.224 8  88669015.866 7  21653846.836                    21653855.711
 11  8 12  1  5  0.0000000  0  9G25G30G17G10G04G09G02G12G05
 124410939.029 7  96943607.072 6  23674610.867                    23674622.238
 119198775.690 7  92882223.74844  22682773.828                    22682782.324
 122956021.786 6  95809991.208 6  23397740.867                    23397749.922
 109894204.191 8  85631969.02146  20912153.031                    20912160.926
 115690073.354 7  90148225.25745  22015071.242                    22015079.441
 126413497.401 6  98504082.70143  24055702.266                    24055714.813
 108288446.720 8  84380647.21146  20606571.453                    20606577.078
 111232852.441 8  86675030.583 7  21166910.867                    21166917.883
 113708594.824 8  88604173.552 7  21638011.563                    21638020.746
 11  8 12  1  5 30.0000000  0  9G25G30G17G10G04G09G02G12G05
 124316507.340 7  96870024.003 6  23656641.000                    23656652.191
 119116211.372 7  92817887.99044  22667062.836                    22667071.730
 123013391.084 6  95854694.551 6  23408658.227                    23408667.023
 109907071.477 8  85641995.51446  20914601.367                    20914609.109
 115769499.323 7  90210115.61945  22030185.359                    22030193.938
 126495882.322 6  98568278.63944  24071380.109                    24071391.762
 108294344.185 8  84385242.67046  20607694.000                    20607699.313
 111184930.803 8  86637689.077 7  21157791.320                    21157799.055
 113625743.589 8  88539614.234 7  21622245.547                    21622254.344
 11  8 12  1  6  0.0000000  0  9G25G30G17G10G04G09G02G12G05
 124222315.803 7  96796628.047 6  23638717.398                    23638728.098
 119034041.235 7  92753859.37244  22651426.336                    22651435.195
 123070929.313 7  95899529.539 6  23419607.531                    23419616.250
 109920569.264 8  85652513.30446  20917169.711                    20917177.477
 115849024.681 7  90272083.43445  22045318.570                    22045327.004
 126578348.965 6  98632538.23843  24087073.203                    24087085.023
 108300508.437 8  84390046.01446  20608866.680                    20608872.348
 111137494.672 8  86600725.890 7  21148764.945                    21148772.039
 113543258.160 7  88475339.955 7  21606548.859                    21606557.441
 11  8 12  1  6 30.0000000  0  9G25G30G17G10G04G09G02G12G05
 124128367.088 7  96723421.300 6  23620839.648                    23620850.133
 118952268.023 7  92690140.08344  22635865.180                    22635873.672
 123128636.845 7  95944496.457 6  23430589.281                    23430597.039
 109934697.307 8  85663522.19346  20919858.445                    20919866.246
 115928647.895 7  90334127.47745  22060470.031                    22060478.988
 126660894.248 6  98696859.13843  24102780.594                    24102792.719
 108306938.387 8  84395056.38146  20610090.453                    20610095.645
 111090546.356 8  86564142.817 7  21139830.859                    21139838.195
 113461141.369 7  88411352.918 7  21590922.898                    21590931.379
 11  8 12  1  7  0.0000000  0  9G25G30G17G10G04G09G02G12G05
 124034663.682 7  96650405.673 6  23603008.078                    23603018.145
 118870894.129 7  92626731.93144  22620380.117                    22620388.277
 123186513.926 7  95989595.474 6  23441602.047                    23441610.555
 109949454.716 8  85675021.50346  20922666.781                    20922674.375
 116008366.807 7  90396246.10945  22075640.406                    22075648.723
 126743514.795 6  98761238.57143  24118502.500                    24118514.621
 108313632.618 8  84400272.68346  20611364.469                    20611369.578
 111044087.708 8  86527941.303 7  21130989.984                    21130997.270
 113379395.847 7  88347655.186 7  21575366.875                    21575375.727
 11  8 12  1  7 30.0000000  0  9G25G30G17G10G04G09G02G12G05
 123941208.560 7  96577583.521 6  23585223.703                    23585234.516
 118789922.757 7  92563637.43444  22604971.867                    22604979.742
 123244561.448 7  96034827.322 6  23452648.266                    23452657.031
 109964841.279 8  85687011.05646  20925594.805                    20925602.637
 116088179.919 7  90458438.14445  22090828.063                    22090836.652
 126826207.270 6  98825674.07343  24134238.852                    24134250.957
 108320590.232 8  84405694.21546  20612687.961                    20612693.781
 110998121.162 8  86492123.239 7  21122242.836                    21122249.895
 113298024.500 7  88284249.018 7  21559882.305                    21559891.121
 11  8 12  1  8  0.0000000  0  9G25G30G17G10G04G09G02G12G05
 123848004.302 7  96504956.826 6  23567487.656                    23567498.297
 118709356.322 7  92500858.48544  22589640.422                    22589648.734
 123302779.469 7  96080191.982 6  23463726.625                    23463735.137
 109980856.402 8  85699490.39646  20928642.492                    20928649.574
 116168085.448 7  90520702.17845  22106034.203                    22106042.297
 126908968.451 6  98890163.12843  24149988.297                    24150000.109
 108327809.994 8  84411320.02746  20614061.938                    20614067.895
 110952648.300 8  86456689.856 7  21113589.625                    21113596.832
 113217029.772 8  88221136.312 7  21544469.289                    21544478.383
 11  8 12  1  8 30.0000000  0  9G25G30G17G10G04G09G02G12G05
 123755053.918 7  96432527.975 6  23549799.641                    23549811.004
 118629197.903 7  92438397.46644  22574386.656                    22574395.246
 123361168.768 7  96125690.124 6  23474838.063                    23474846.801
 109997499.931 8  85712459.40046  20931809.313                    20931816.906
 116248082.015 7  90583037.14845  22121255.992                    22121265.141
 126991795.469 6  98954703.51643  24165749.398                    24165761.723
 108335291.138 8  84417149.51146  20615485.797                    20615491.539
 110907671.543 8  86421643.050 7  21105031.000                    21105037.762
 113136414.669 8  88158319.415 7  21529128.992                    21529137.629
 11  8 12  1  9  0.0000000  0  9G25G30G17G10G04G09G02G12G05
 123662359.608 7  96360298.666 6  23532160.477                    23532171.309
 118549449.727 7  92376256.10244  22559210.922                    22559219.496
 123419729.577 7  96171321.881 6  23485982.156                    23485989.848
 110014771.217 8  85725917.56346  20935096.164                    20935103.863
 116328167.424 7  90645441.34745  22136496.359                    22136505.207
 127074684.501 6  99019292.22843  24181523.422                    24181535.316
 108343031.848 8  84423181.25046  20616958.422                    20616964.449
 110863192.188 8  86386983.830 7  21096566.664                    21096573.766
 113056181.609 8  88095800.218 7  21513860.969                    21513869.727
 11  8 12  1  9 30.0000000  0  9G25G30G17G10G04G09G02G12G05
 123569923.942 7  96288270.853 6  23514570.477                    23514581.941
 118470114.240 7  92314436.31844  22544113.516                    22544122.367
 123478462.014 7  96217087.389 6  23497158.289                    23497166.816
 110032669.226 7  85739864.08846  20938501.586                    20938509.570
 116408339.686 7  90707913.22045  22151752.758                    22151760.941
 127157632.184 6  99083926.63843  24197307.070                    24197319.844
 108351030.402 8  84429413.89846  20618480.656                    20618486.391
 110819211.989 8  86352713.561 7  21088197.625                    21088204.691
 112976332.655 8  88033580.311 7  21498666.359                    21498674.910
 11  8 12  1 10  0.0000000  0  9G25G30G17G10G04G09G02G12G05
 123477749.686 7  96216446.771 6  23497030.672                    23497041.727
 118391194.190 7  92252940.24944  22529095.922                    22529104.492
 123537366.571 6  96262987.023 6  23508367.242                    23508375.813
 110051193.590 8  85754298.66946  20942026.828                    20942034.957
 116488597.295 7  90770451.60845  22167025.203                    22167034.352
 127240635.472 6  99148604.32243  24213102.328                    24213115.418
 108359286.485 8  84435847.22746  20620051.844                    20620057.465
 110775733.012 8  86318833.857 7  21079923.859                    21079931.133
 112896870.846 7  87971662.079 7  21483545.164                    21483553.617
 11  8 12  1 10 30.0000000  0  9G25G30G17G10G04G09G02G12G05
 123385839.600 7  96144828.537 6  23479540.508                    23479551.449
 118312692.197 7  92191769.91144  22514157.633                    22514166.238
 123596443.731 6  96309021.146 6  23519609.188                    23519618.152
 110070343.613 8  85769220.77746  20945670.625                    20945678.887
 116568938.645 7  90833055.24145  22182313.641                    22182322.164
 127323691.042 6  99213322.74244  24228907.719                    24228920.215
 108367798.650 8  84442480.11146  20621671.445                    20621676.809
 110732757.199 8  86285346.223 7  21071745.664                    21071752.879
 112817798.863 8  87910047.609 7  21468497.906                    21468506.469
 11  8 12  1 11  0.0000000  0  9G25G30G17G10G04G09G02G12G05
 123294196.205 7  96073418.126 6  23462101.922                    23462112.926
 118234610.819 7  92130927.32644  22499298.828                    22499307.375
 123655694.023 6  96355190.164 6  23530883.969                    23530893.234
 110090118.668 7  85784629.91946  20949433.789                    20949441.996
 116649361.843 7  90895722.65445  22197617.188                    22197626.824
 127406795.453 6  99278079.23743  24244722.648                    24244734.523
 108376565.613 8  84449311.52746  20623339.305                    20623345.262
 110690286.042 8  86252251.820 7  21063663.656                    21063670.832
 112739119.442 7  87848739.038 7  21453525.859                    21453534.348
 11  8 12  1 11 30.0000000  0  9G25G30G17G10G04G09G02G12G05
 123202822.494 7  96002217.880 7  23444713.578                    23444725.109
 118156952.978 7  92070414.73744  22484520.609                    22484529.160
 123715117.468 6  96401494.105 6  23542192.234                    23542201.105
 110110518.202 7  85800525.66646  20953316.164                    20953323.543
 116729865.315 7  90958452.61145  22212936.859                    22212946.059
 127489945.986 6  99342871.71343  24260545.547                    24260558.316
 108385586.454 8  84456340.78046  20625056.523                    20625062.156
 110648321.993 8  86219552.576 7  21055678.039                    21055685.652
 112660835.058 8  87787738.289 7  21438628.484                    21438637.297
 11  8 12  1 12  0.0000000  0  9G25G30G17G10G04G09G02G12G05
 123111720.960 7  95931229.743 6  23427377.391                    23427388.586
 118079721.133 7  92010234.08745  22469824.688                    22469832.934
 123774714.563 6  96447933.373 6  23553533.172                    23553542.188
 110131541.392 8  85816907.37646  20957316.422                    20957324.441
 116810447.422 7  91021243.82245  22228271.406                    22228280.590
 127573139.119 6  99407697.35944  24276376.453                    24276389.434
 108394860.025 8  84463566.96546  20626820.930                    20626826.895
 110606866.431 8  86187249.552 7  21047789.227                    21047796.449
 112582948.109 8  87727047.222 7  21423807.430                    21423815.840
 11  8 12  1 12 30.0000000  0  9G25G30G17G10G04G09G02G12G05
 123020894.297 7  95860455.794 7  23410094.641                    23410104.801
 118002917.945 7  91950387.43944  22455208.938                    22455217.543
 123834485.823 7  96494508.341 6  23564906.867                    23564915.762
 110153187.285 8  85833774.32246  20961435.422                    20961442.961
 116891106.587 7  91084095.08145  22243620.156                    22243629.379
 127656371.370 6  99472553.49543  24292214.836                    24292228.129
 108404384.791 8  84470988.88646  20628633.508                    20628639.219
 110565921.248 8  86155344.221 7  21039998.117                    21040005.418
 112505461.070 8  87666667.792 7  21409061.758                    21409070.512
 11  8 12  1 13  0.0000000  0  9G25G30G17G10G04G09G02G12G05
 122930345.156 7  95789898.124 6  23392863.047                    23392873.566
 117926545.993 7  91890876.80844  22440676.133                    22440684.648
 123894431.642 7  96541219.335 6  23576315.297                    23576323.598
 110175455.325 7  85851126.04546  20965673.445                    20965680.922
 116971840.912 7  91147004.92245  22258983.219                    22258992.438
 127739639.691 6  99537437.69343  24308061.344                    24308073.609
 108414159.594 8  84478605.62346  20630493.531                    20630499.285
 110525488.287 8  86123838.030 7  21032303.398                    21032311.285
 112428376.729 8  87606602.126 7  21394393.188                    21394401.762
 11  8 12  1 13 30.0000000  0  9G25G30G17G10G04G09G02G12G05
 122840076.092 7  95719558.688 6  23375685.078                    23375695.922
 117850607.659 7  91831704.06545  22426225.445                    22426234.211
 123954552.417 7  96588066.668 6  23587755.508                    23587764.027
 110198344.517 8  85868961.78246  20970028.953                    20970036.621
 117052648.655 7  91209971.94945  22274360.719                    22274369.605
 127822940.749 6  99602347.42443  24323912.680                    24323925.457
 108424183.227 8  84486416.25646  20632401.078                    20632407.055
 110485569.025 8  86092732.123 7  21024707.133                    21024714.785
 112351697.525 8  87546852.159 7  21379801.141                    21379809.809
 11  8 12  1 14  0.0000000  0  9G25G30G17G10G04G09G02G12G05
 122750090.058 7  95649439.826 6  23358561.703                    23358571.879
 117775105.824 7  91772871.46345  22411858.266                    22411866.117
 124014848.530 7  96635050.634 6  23599229.758                    23599238.574
 110221854.254 8  85887281.06846  20974502.406                    20974510.254
 117133528.581 7  91272995.24145  22289751.305                    22289760.039
 127906271.666 6  99667280.40443  24339770.289                    24339782.715
 108434454.743 8  84494420.05146  20634355.844                    20634361.496
 110446165.561 8  86062028.123 7  21017209.172                    21017216.426
 112275426.287 8  87487420.093 7  21365287.289                    21365296.027
 11  8 12  1 14 30.0000000  0  9G25G30G17G10G04G09G02G12G05
 122660389.566 7  95579543.440 6  23341492.008                    23341502.219
 117700042.900 7  91714380.85444  22397573.945                    22397582.246
 124075319.773 7  96682171.078 6  23610736.953                    23610746.109
 110245983.666 8  85906083.21646  20979094.375                    20979102.176
 117214478.825 7  91336073.29945  22305155.742                    22305165.039
 127989629.128 6  99732234.10443  24355632.977                    24355645.602
 108444972.644 8  84502615.83246  20636357.258                    20636362.672
 110407279.366 8  86031727.190 7  21009809.625                    21009816.809
 112199565.111 8  87428307.537 7  21350852.078                    21350860.445
 11  8 12  1 15  0.0000000  0  9G25G30G17G10G04G09G02G12G05
 122570977.353 7  95509871.699 6  23324477.281                    23324487.977
 117625421.629 7  91656234.39245  22383374.211                    22383382.113
 124135967.166 7  96729428.780 6  23622277.461                    23622286.746
 110270731.981 8  85925367.62746  20983803.781                    20983811.469
 117295497.841 7  91399204.96944  22320573.773                    22320582.262
 128073009.613 6  99797205.75743  24371499.648                    24371512.012
 108455736.249 8  84511003.06446  20638405.102                    20638410.828
 110368912.288 8  86001830.781 7  21002508.164                    21002515.375
 112124116.830 8  87369516.728 7  21336493.734                    21336502.621
 11  8 12  1 15 30.0000000  0  9G25G30G17G10G04G09G02G12G05
 122481856.241 7  95440426.812 6  23307518.000                    23307528.621
 117551244.617 7  91598434.11044  22369258.398                    22369267.250
 124196791.007 7  96776823.984 6  23633851.641                    23633860.863
 110296098.205 8  85945133.53146  20988630.375                    20988638.363
 117376584.194 7  91462389.10444  22336004.242                    22336012.484
 128156410.409 6  99862193.23643  24387370.344                    24387383.777
 108466744.357 8  84519580.81546  20640499.992                    20640505.410
 110331066.419 8  85972340.510 7  20995306.602                    20995313.434
 112049083.943 8  87311049.595 7  21322216.156                    21322224.539
 11  8 12  1 16  0.0000000  0  9G25G30G17G10G04G09G02G12G05
 122393028.593 7  95371210.587 7  23290614.125                    23290625.738
 117477514.159 7  91540981.79845  22355227.805                    22355236.777
 124257791.268 6  96824356.663 6  23645459.367                    23645468.660
 110322081.514 7  85965380.28346  20993574.773                    20993583.152
 117457736.104 7  91525624.32245  22351446.727                    22351455.148
 128239828.072 6  99927193.85343  24403243.664                    24403257.539
 108477995.336 8  84528347.82646  20642640.883                    20642646.605
 110293742.856 8  85943257.230 7  20988203.703                    20988210.797
 111974468.885 8  87252908.055 7  21308017.313                    21308025.914
 11  8 12  1 16 30.0000000  0  9G25G30G17G10G04G09G02G12G05
 122304497.205 7  95302225.188 6  23273767.094                    23273777.953
 117404233.016 7  91483879.64945  22341283.000                    22341291.887
 124318968.764 7  96872027.431 6  23657101.297                    23657110.375
 110348680.606 7  85986106.86246  20998636.766                    20998644.598
 117538952.005 7  91588909.42144  22366901.469                    22366909.906
 128323259.604 6  99992205.28743  24419120.156                    24419133.820
 108489488.198 8  84537303.31246  20644827.719                    20644833.395
 110256943.598 8  85914582.505 7  20981201.273                    20981208.461
 111900274.145 8  87195094.038 7  21293898.281                    21293906.883
 11  8 12  1 17  0.0000000  0  9G25G30G17G10G04G09G02G12G05
 122216264.785 7  95233472.725 6  23256977.359                    23256987.742
 117331403.533 7  91427129.44244  22327424.133                    22327432.250
 124380323.652 6  96919836.411 6  23668776.664                    23668785.418
 110375894.816 7  86007312.76446  21003815.398                    21003823.363
 117620230.452 7  91652243.25144  22382368.273                    22382376.379
 128406701.738 6 100057225.01143  24434999.078                    24435012.473
 108501221.907 8  84546446.47346  20647060.992                    20647066.422
 110220670.314 8  85886317.635 7  20974298.516                    20974306.027
 111826502.208 8  87137609.460 7  21279860.281                    21279868.477
 11  8 12  1 17 30.0000000  0  9G25G30G17G10G04G09G02G12G05
 122128333.771 7  95164955.117 6  23240244.156                    23240255.520
 117259028.030 7  91370732.98645  22313651.742                    22313660.129
 124441856.289 6  96967783.915 6  23680486.391                    23680494.973
 110403722.872 7  86028996.98146  21009110.750                    21009118.645
 117701569.468 7  91715624.28544  22397846.484                    22397854.559
 128490150.907 6 100122250.17643  24450879.945                    24450892.340
 108513194.906 8  84555776.07546  20649339.188                    20649345.172
 110184923.950 8  85858463.354 7  20967496.461                    20967503.801
 111753155.279 8  87080456.073 7  21265902.500                    21265911.074
 11  8 12  1 18  0.0000000  0  9G25G30G17G10G04G09G02G12G05
 122040707.091 7  95096674.628 7  23223569.266                    23223580.977
 117187109.401 7  91314692.54745  22299966.391                    22299974.570
 124503566.672 6  97015869.924 6  23692229.359                    23692238.164
 110432164.009 7  86051158.93146  21014522.945                    21014530.766
 117782967.946 7  91779051.66244  22413336.172                    22413344.316
 128573604.484 6 100187278.77243  24466760.352                    24466773.324
 108525406.228 8  84565291.39846  20651663.047                    20651669.105
 110149706.684 8  85831021.360 7  20960794.844                    20960801.863
 111680236.072 8  87023635.960 7  21252026.203                    21252034.734
 11  8 12  1 18 30.0000000  0  9G25G30G17G10G04G09G02G12G05
 121953387.469 7  95028633.380 6  23206953.086                    23206964.391
 117115650.001 7  91259009.96245  22286367.859                    22286376.570
 124565455.295 6  97064094.819 6  23704006.180                    23704015.102
 110461216.958 8  86073797.60646  21020051.656                    21020059.441
 117864424.352 7  91842524.16644  22428837.008                    22428844.953
 128657059.063 5 100252308.15543  24482641.164                    24482654.324
 108537854.921 8  84574991.68446  20654032.352                    20654037.656
 110115020.373 8  85803993.107 7  20954193.992                    20954201.637
 111607747.074 8  86967151.087 7  21238231.859                    21238240.438
 11  8 12  1 19  0.0000000  0  9G25G30G17G10G04G09G02G12G05
 121866377.415 7  94960833.336 7  23190395.742                    23190407.211
 117044652.257 7  91203687.08045  22272857.125                    22272866.004
 124627522.611 6  97112458.945 6  23715817.234                    23715825.688
 110490880.877 8  86096912.37445  21025696.352                    21025704.031
 117945937.002 7  91906040.50944  22444347.836                    22444356.289
 128740511.585 6 100317335.93143  24498521.508                    24498535.371
 108550539.566 8  84584875.82746  20656445.633                    20656451.445
 110080866.068 8  85777379.404 7  20947694.672                    20947701.926
 111535690.565 8  86911003.212 7  21224520.531                    21224528.484
 11  8 12  1 19 30.0000000  0  9G25G30G17G10G04G09G02G12G05
 121779679.631 7  94893276.596 7  23173898.016                    23173908.633
 116974118.646 7  91148725.87845  22259434.711                    22259443.449
 124689768.869 6  97160962.529 6  23727662.281                    23727671.035
 110521154.460 7  86120502.20646  21031457.281                    21031465.066
 118027504.451 7  91969599.55444  22459869.781                    22459878.461
 128823959.056 6 100382359.71943  24514401.398                    24514414.094
 108563459.303 8  84594943.17346  20658904.406                    20658910.184
 110047245.409 8  85751181.518 7  20941296.680                    20941304.137
 111464068.953 8  86855194.219 7  21210891.297                    21210899.832
 11  8 12  1 20  0.0000000  0  9G25G30G17G10G04G09G02G12G05
 121693297.119 7  94825965.490 7  23157460.055                    23157470.785
 116904051.939 7  91094128.49145  22246101.945                    22246110.539
 124752194.741 6  97209606.049 6  23739541.211                    23739550.168
 110552037.119 7  86144566.63846  21037333.641                    21037341.598
 118109125.581 7  92033200.45544  22475401.172                    22475410.578
 128907398.709 6 100447377.53043  24530279.711                    24530292.766
 108576613.102 8  84605192.87846  20661407.617                    20661412.926
 110014160.411 8  85725401.035 7  20935000.828                    20935008.313
 111392884.975 8  86799726.253 7  21197345.195                    21197353.953
 11  8 12  1 20 30.0000000  0  9G25G30G17G10G04G09G02G12G05
 121607232.129 7  94758901.799 7  23141082.633                    23141093.516
 116834454.199 7  91039896.53445  22232857.734                    22232866.023
 124814800.080 6  97258389.431 6  23751454.938                    23751463.563
 110583527.259 8  86169104.43446  21043326.430                    21043333.910
 118190798.342 7  92096841.56744  22490943.672                    22490952.340
 128990826.929 6 100512386.35743  24546156.102                    24546168.555
 108589999.281 8  84615623.67546  20663955.047                    20663960.652
 109981612.173 8  85700038.798 7  20928807.203                    20928814.219
 111322140.585 8  86744600.812 7  21183883.172                    21183890.977
 11  8 12  1 21  0.0000000  0  9G25G30G17G10G04G09G02G12G05
 121521487.102 7  94692087.415 7  23124765.055                    23124775.910
 116765327.538 7  90986031.66245  22219703.602                    22219711.594
 124877585.068 6  97307312.763 6  23763403.219                    23763411.168
 110615622.983 8  86194114.10046  21049434.109                    21049441.918
 118272520.984 7  92160521.55644  22506494.922                    22506503.805
 129074240.288 6 100577383.57943  24562029.500                    24562042.059
 108603616.133 8  84626234.21446  20666546.117                    20666551.430
 109949601.817 8  85675095.681 7  20922715.531                    20922723.020
 111251837.794 8  86689819.488 7  21170504.984                    21170512.875
 11  8 12  1 21 30.0000000  0  9G25G30G17G10G04G09G02G12G05
 121436064.857 7  94625524.594 7  23108509.773                    23108521.125
 116696674.571 7  90932535.86945  22206639.453                    22206647.758
 124940549.991 6  97356376.335 6  23775383.836                    23775393.098
 110648323.452 7  86219595.00946  21055656.805                    21055664.848
 118354292.414 7  92224239.55644  22522055.047                    22522064.156
 129157636.058 6 100642367.10143  24577898.914                    24577912.355
 108617463.261 8  84637024.19446  20669180.805                    20669186.523
 109918131.049 8  85650573.023 7  20916726.930                    20916734.129
 111181979.351 8  86635384.407 7  21157211.359                    21157219.301
 11  8 12  1 22  0.0000000  0  9G25G30G17G10G04G09G02G12G05
 121350968.147 7  94559215.438 7  23092316.938                    23092327.570
 116628497.607 7  90879410.96845  22193664.977                    22193673.922
 125003695.119 6  97405580.310 6  23787400.703                    23787409.641
 110681627.598 8  86245546.31546  21061994.117                    21062002.176
 118436110.951 7  92287994.25344  22537625.164                    22537633.625
 129241010.950 6 100707334.32743  24593764.383                    24593777.773
 108631539.221 8  84647992.47046  20671859.563                    20671864.980
 109887201.076 8  85626471.770 7  20910841.055                    20910848.277
 111112567.454 8  86581297.276 7  21144002.609                    21144010.738
 11  8 12  1 22 30.0000000  0  9G25G30G17G10G04G09G02G12G05
 121266199.470 7  94493161.934 7  23076186.094                    23076196.984
 116560799.072 7  90826658.87945  22180782.563                    22180790.719
 125067020.695 6  97454924.907 6  23799450.891                    23799459.961
 110715533.908 7  86271966.83946  21068445.922                    21068454.563
 118517975.116 7  92351784.51044  22553203.438                    22553211.797
 129324361.979 6 100772282.95743  24609626.188                    24609639.641
 108645842.761 8  84659138.09746  20674581.461                    20674587.070
 109856813.397 8  85602793.071 7  20905058.750                    20905065.969
 111043604.166 8  86527559.720 7  21130879.070                    21130887.234
 11  8 12  1 23  0.0000000  0  9G25G30G17G10G04G09G02G12G05
 121181761.505 7  94427366.132 6  23060118.023                    23060128.430
 116493581.282 7  90774281.38845  22167991.539                    22168000.234
 125130526.872 6  97504410.217 6  23811535.711                    23811544.582
 110750041.251 8  86298855.70645  21075012.859                    21075020.742
 118599883.596 7  92415609.29844  22568789.664                    22568799.020
 129407685.929 6 100837210.43643  24625482.523                    24625496.332
 108660372.794 8  84670460.21146  20677346.617                    20677351.828
 109826969.463 8  85579538.070 7  20899379.898                    20899386.977
 110975092.089 8  86474173.751 7  21117841.563                    21117849.207
 11  8 12  1 23 30.0000000  0  9G25G30G17G10G04G09G02G12G05
 121097656.928 7  94361830.135 6  23044113.594                    23044124.039
 116426846.710 7  90722280.44845  22155292.484                    22155301.105
 125194214.106 6  97554036.621 6  23823655.469                    23823664.344
 110785148.462 8  86326212.00046  21081693.492                    21081701.813
 118681834.964 7  92479467.51244  22584385.039                    22584394.199
 129490980.170 6 100902114.89243  24641332.438                    24641346.695
 108675127.946 8  84681957.75846  20680154.258                    20680159.617
 109797671.256 8  85556708.314 7  20893804.180                    20893811.762
 110907033.187 8  86421140.911 7  21104890.141                    21104898.430
 11  8 12  1 24  0.0000000  0  9G25G30G17G10G04G09G02G12G05
 121013888.400 7  94296556.018 6  23028172.633                    23028183.027
 116360597.662 7  90670657.82445  22142685.492                    22142693.875
 125258082.541 6  97603804.219 6  23835809.508                    23835818.020
 110820853.896 8  86354034.44546  21088488.055                    21088496.215
 118763827.661 7  92543357.92144  22599987.742                    22599996.137
 129574241.262 6 100966993.50543  24657177.016                    24657191.121
 108690107.309 8  84693630.01946  20683004.641                    20683010.250
 109768919.370 8  85534304.260 7  20888333.328                    20888340.301
 110839430.081 8  86368463.229 7  21092025.617                    21092034.059
 11  8 12  1 24 30.0000000  0  9G25G30G17G10G04G09G02G12G05
 120930458.413 7  94231545.710 6  23012296.922                    23012306.801
 116294836.416 7  90619415.30645  22130171.344                    22130179.781
 125322132.403 6  97653713.202 6  23847997.344                    23848006.023
 110857156.014 8  86382321.83545  21095395.875                    21095403.930
 118845860.333 7  92607279.47744  22615598.086                    22615606.867
 129657466.151 6 101031843.81843  24673014.516                    24673028.020
 108705309.427 8  84705475.84246  20685897.383                    20685902.863
 109740715.151 8  85512326.953 7  20882966.078                    20882972.770
 110772284.746 8  86316142.253 7  21079248.453                    21079256.777
 11  8 12  1 25  0.0000000  0  9G25G30G17G10G04G09G02G12G05
 120847369.689 7  94166801.357 7  22996484.586                    22996495.762
 116229565.262 7  90568554.68545  22117751.023                    22117758.719
 125386363.931 6  97703763.729 6  23860220.227                    23860228.898
 110894053.698 8  86411073.30945  21102416.867                    21102425.141
 118927931.613 7  92671231.12844  22631215.680                    22631224.270
 129740652.035 6 101096663.72243  24688843.922                    24688857.879
 108720733.404 8  84717494.54846  20688832.898                    20688838.070
 109713060.061 8  85490777.541 7  20877703.180                    20877710.641
 110705599.897 8  86264180.100 7  21066558.586                    21066566.926
 11  8 12  1 25 30.0000000  0  9G25G30G17G10G04G09G02G12G05
 120764624.987 7  94102325.054 7  22980739.117                    22980750.168
 116164786.737 7  90518077.93945  22105423.633                    22105432.285
 125450777.489 6  97753956.096 6  23872478.242                    23872486.895
 110931545.836 8  86440287.98746  21109551.680                    21109560.078
 119010040.232 7  92735211.86344  22646840.234                    22646849.195
 129823795.918 6 101161450.92343  24704665.938                    24704679.715
 108736378.161 8  84729685.27746  20691809.898                    20691815.074
 109685955.764 8  85469657.324 7  20872545.578                    20872552.590
 110639377.339 8  86212578.170 7  21053956.477                    21053964.660
 11  8 12  1 26  0.0000000  0  9G25G30G17G10G04G09G02G12G05
 120682226.509 7  94038118.517 7  22965059.352                    22965070.234
 116100502.780 7  90467986.60745  22093191.258                    22093199.008
 125515373.151 6  97804290.389 6  23884770.172                    23884779.234
 110969630.484 8  86469964.35845  21116799.039                    21116806.973
 119092184.652 7  92799220.48744  22662471.695                    22662480.563
 129906894.502 6 101226202.85543  24720478.516                    24720493.512
 108752242.085 8  84742046.78946  20694828.664                    20694834.203
 109659403.275 8  85448967.080 7  20867492.680                    20867500.063
 110573619.082 8  86161338.019 7  21041443.234                    21041451.754
 11  8 12  1 26 30.0000000  0  9G25G30G17G10G04G09G02G12G05
 120600177.128 7  93974183.988 7  22949445.461                    22949456.578
 116036715.862 7  90418282.56145  22081052.898                    22081061.406
 125580151.359 6  97854766.916 6  23897097.070                    23897105.598
 111008306.293 8  86500101.38445  21124158.703                    21124166.223
 119174363.342 7  92863255.84744  22678109.641                    22678118.430
 129989944.773 6 101290917.07943  24736283.039                    24736297.328
 108768324.322 8  84754578.42346  20697888.680                    20697894.168
 109633403.637 8  85428707.639 7  20862545.008                    20862552.293
 110508327.584 8  86110461.601 7  21029018.695                    21029027.348
 11  8 12  1 27  0.0000000  0  9G25G30G17G10G04G09G02G12G05
 120518479.399 7  93910523.477 7  22933898.867                    22933909.902
 115973428.145 7  90368967.51845  22069009.539                    22069017.777
 125645112.416 6  97905385.921 6  23909458.508                    23909467.363
 111047571.664 8  86530697.80546  21131630.352                    21131638.383
 119256575.200 7  92927317.02344  22693754.148                    22693763.285
 130072943.847 6 101355591.42343  24752077.969                    24752091.887
 108784623.928 8  84767279.43846  20700990.586                    20700995.699
 109607958.395 8  85408880.191 7  20857702.789                    20857710.324
 110443505.210 8  86059950.709 7  21016683.211                    21016691.242
 11  8 12  1 27 30.0000000  0  9G25G30G17G10G04G09G02G12G05
 120437136.087 7  93847139.131 6  22918419.625                    22918430.664
 115910642.071 7  90320043.35145  22057061.766                    22057069.938
 125710256.153 6  97956147.272 6  23921855.320                    23921864.281
 111087425.288 8  86561752.60845  21139214.938                    21139222.633
 119338818.881 7  92991403.00444  22709404.836                    22709413.691
 130155889.004 6 101420223.72043  24767862.008                    24767875.598
 108801139.653 8  84780148.86546  20704133.164                    20704138.539
 109583068.878 8  85389485.786 7  20852966.461                    20852973.719
 110379153.863 8  86009806.870 7  21004437.508                    21004445.781
 11  8 12  1 28  0.0000000  0  9G25G30G17G10G04G09G02G12G05
 120356149.302 7  93784032.574 6  22903008.859                    22903018.727
 115848359.335 7  90271511.41345  22045209.391                    22045218.219
 125775582.690 7  98007051.075 6  23934285.469                    23934294.953
 111127865.222 8  86593264.27045  21146910.148                    21146918.012
 119421092.852 7  93055512.60144  22725060.656                    22725070.094
 130238776.737 6 101484811.32743  24783634.813                    24783649.555
 108817869.718 8  84793185.29546  20707316.906                    20707322.477
 109558735.676 8  85370524.874 7  20848336.117                    20848343.379
 110315275.512 8  85960031.601 8  20992282.078                    20992290.352
 11  8 12  1 28 30.0000000  0  9G25G30G17G10G04G09G02G12G05
 120275521.890 7  93721206.041 6  22887666.102                    22887676.074
 115786582.505 7  90223373.66245  22033454.000                    22033462.527
 125841092.536 6  98058097.674 6  23946752.125                    23946760.617
 111168890.263 8  86625231.85945  21154716.555                    21154724.309
 119503395.755 7  93119644.74344  22740721.992                    22740731.426
 130321604.278 6 101549352.00743  24799396.461                    24799411.012
 108834813.412 8  84806388.19746  20710540.961                    20710546.492
 109534960.260 8  85351998.590 7  20843811.656                    20843818.813
 110251872.357 7  85910626.609 7  20980216.984                    20980224.895
 11  8 12  1 29  0.0000000  0  9G25G30G17G10G04G09G02G12G05
 120195256.513 7  93658661.591 7  22872392.023                    22872402.121
 115725313.682 7  90175631.77345  22021794.969                    22021803.000
 125906785.603 6  98109287.068 6  23959253.102                    23959261.914
 111210498.915 8  86657654.20345  21162634.828                    21162642.715
 119585726.506 7  93183798.58744  22756389.633                    22756398.602
 130404368.795 6 101613843.55542  24815147.227                    24815160.844
 108851969.768 8  84819756.80446  20713806.078                    20713811.219
 109511743.720 8  85333907.794 7  20839393.727                    20839400.930
 110188946.555 7  85861593.583 8  20968242.383                    20968250.875
 11  8 12  1 29 30.0000000  0  9G25G30G17G10G04G09G02G12G05
 120115355.574 7  93596401.113 7  22857187.117                    22857197.141
 115664554.966 7  90128287.35745  22010232.570                    22010240.988
 125972662.336 6  98160619.586 6  23971789.305                    23971798.063
 111252689.185 8  86690529.76545  21170663.227                    21170670.922
 119668083.503 7  93247972.87244  22772061.844                    22772070.305
 130487067.079 6 101678283.49942  24830883.695                    24830898.234
 108869337.277 8  84833289.95346  20717110.984                    20717115.977
 109489087.004 8  85316253.237 7  20835082.664                    20835089.566
 110126499.955 8  85812933.956 7  20956359.266                    20956367.180
 11  8 12  1 30  0.0000000  0  9G25G30G17G10G04G09G02G12G05
 120035821.924 7  93534426.830 6  22842052.008                    22842062.680
 115604308.742 7  90081342.28445  21998768.172                    21998776.352
 126038722.709 6  98212095.155 6  23984359.617                    23984368.980
 111295459.580 7  86723857.35745  21178802.086                    21178809.727
 119750465.732 7  93312166.81644  22787738.289                    22787747.152
 130569696.519 6 101742669.77343  24846607.445                    24846622.191
 108886915.109 8  84846986.98246  20720455.570                    20720460.965
 109466991.826 8  85299036.232 7  20830878.156                    20830885.117
 110064535.140 8  85764649.745 7  20944567.813                    20944575.699
 11  8 12  1 30 30.0000000  0  9G25G30G17G10G04G09G02G12G05
 119956658.566 7  93472741.100 7  22826988.281                    22826998.504
 115544577.501 8  90034798.48745  21987401.781                    21987410.363
 126104967.361 6  98263714.360 6  23996965.813                    23996974.945
 111338809.093 8  86757636.21145  21187051.406                    21187059.027
 119832872.325 7  93376379.75844  22803420.148                    22803428.547
 130652254.449 6 101807000.33342  24862318.758                    24862332.637
 108904702.587 8  84860847.37646  20723840.578                    20723846.031
 109445459.488 8  85282257.803 7  20826780.234                    20826787.602
 110003054.415 8  85716742.738 7  20932868.000                    20932876.184
 11  8 12  1 31  0.0000000  0  8G25G30G17G10G04G02G12G05
 119877868.237 7  93411346.057 7  22811994.547                    22812005.344
 115485363.566 7  89988657.78345  21976133.438                    21976141.918
 126171396.788 6  98315477.520 6  24009607.102                    24009616.098
 111382736.210 8  86791865.15045  21195410.445                    21195418.125
 119915302.196 7  93440610.84944  22819105.180                    22819115.004
 108922698.625 8  84874870.28646  20727264.852                    20727270.664
 109424491.164 8  85265918.873 7  20822790.219                    20822797.520
 109942060.023 8  85669214.688 7  20921261.492                    20921269.410
 11  8 12  1 31 30.0000000  0  8G25G30G17G10G04G02G12G05
 119799452.750 7  93350243.119 7  22797072.938                    22797083.023
 115426668.349 7  89942921.25245  21964964.695                    21964972.688
 126238010.454 6  98367384.239 6  24022283.586                    24022292.137
 111427238.497 7  86826542.26445  21203878.633                    21203886.469
 119997753.383 7  93504858.52844  22834795.195                    22834804.480
 108940901.560 8  84889054.41946  20730728.867                    20730734.113
 109404087.110 8  85250019.631 8  20818907.609                    20818914.418
 109881553.140 8  85622066.521 8  20909746.914                    20909755.082
 11  8 12  1 32  0.0000000  0  8G25G30G17G10G04G02G12G05
 119721414.137 7  93289433.855 7  22782222.297                    22782233.074
 115368493.397 7  89897590.13045  21953894.258                    21953902.352
 126304807.783 6  98419434.062 6  24034994.586                    24035003.031
 111472313.583 7  86861665.70645  21212456.211                    21212464.320
 120080224.006 7  93569121.33944  22850489.297                    22850497.656
 108959309.407 8  84903398.22046  20734231.742                    20734237.172
 109384247.750 8  85234560.401 7  20815131.805                    20815139.270
 109821535.528 8  85575299.609 8  20898325.750                    20898333.992
 11  8 12  1 32 30.0000000  0  8G25G30G17G10G04G02G12G05
 119643755.323 7  93228920.536 7  22767444.398                    22767454.797
 115310841.157 7  89852666.30645  21942923.266                    21942931.734
 126371789.221 6  98471627.404 6  24047740.727                    24047749.523
 111517960.223 7  86897234.51645  21221142.719                    21221150.383
 120162713.427 7  93633398.82244  22866186.352                    22866195.324
 108977921.593 8  84917901.25746  20737773.445                    20737778.820
 109364974.521 8  85219542.314 7  20811464.680                    20811471.395
 109762009.325 8  85528915.600 8  20886998.844                    20887006.723
 11  8 12  1 33  0.0000000  0  8G25G30G17G10G04G02G12G05
 119566478.603 7  93168704.968 7  22752738.891                    22752749.594
 115253713.449 7  89808151.21645  21932052.609                    21932060.742
 126438955.363 6  98523964.621 6  24060521.836                    24060530.664
 111564176.173 7  86933246.94245  21229937.320                    21229945.172
 120245219.953 6  93697689.62244  22881886.500                    22881895.262
 108996736.816 8  84932562.49246  20741353.992                    20741358.996
 109346268.345 8  85204966.092 7  20807905.203                    20807911.910
 109702976.273 8  85482915.878 8  20875764.852                    20875772.820
 11  8 12  1 33 30.0000000  0  8G25G30G17G10G04G02G12G05
 119489586.652 7  93108789.224 7  22738107.023                    22738117.223
 115197112.453 7  89764046.56145  21921281.164                    21921289.621
 126506305.975 6  98576445.626 6  24073338.461                    24073346.637
 111610960.009 7  86969701.88045  21238839.703                    21238847.902
 120327742.612 7  93761993.00544  22897590.703                    22897599.059
 109015754.072 8  84947381.14346  20744972.977                    20744978.527
 109328130.329 8  85190832.590 7  20804453.570                    20804460.730
 109644438.300 8  85437301.919 7  20864625.398                    20864633.508
 11  8 12  1 34  0.0000000  0  8G25G30G17G10G04G02G12G05
 119413082.211 7  93049175.469 7  22723548.711                    22723559.145
 115141040.433 7  89720354.08045  21910611.047                    21910619.445
 126573841.112 6  98629070.357 6  24086190.398                    24086198.254
 111658310.213 7  87006598.14445  21247850.555                    21247858.133
 120410280.306 7  93826308.09944  22913296.781                    22913305.539
 109034972.426 8  84962356.50246  20748629.914                    20748635.242
 109310561.329 8  85177142.473 7  20801110.352                    20801117.195
 109586397.713 8  85392075.538 8  20853581.008                    20853589.074
 11  8 12  1 34 30.0000000  0  8G25G30G17G10G04G02G12G05
 119336967.413 7  92989865.326 7  22709064.539                    22709075.168
 115085498.917 7  89677074.99045  21900042.320                    21900050.375
 126641560.977 6  98681839.064 6  24099076.672                    24099084.867
 111706224.531 8  87043933.97945  21256968.391                    21256975.891
 120492831.595 7  93890633.79044  22929005.852                    22929014.656
 109054390.225 8  84977487.27446  20752325.133                    20752330.855
 109293561.979 8  85163896.241 7  20797875.523                    20797882.520
 109528855.853 8  85347237.782 8  20842630.977                    20842638.895
 11  8 12  1 35  0.0000000  0  8G25G30G17G10G04G02G12G05
 119261245.038 7  92930860.947 7  22694654.734                    22694665.629
 115030490.286 7  89634211.13445  21889574.383                    21889582.797
 126709465.673 6  98734751.775 6  24111998.430                    24112006.805
 111754701.117 8  87081707.93845  21266192.914                    21266200.691
 120575395.546 7  93954969.34744  22944716.820                    22944725.809
 109074006.921 8  84992773.02646  20756058.055                    20756063.258
 109277133.286 8  85151094.675 8  20794748.945                    20794756.316
 109471815.213 8  85302790.571 8  20831776.383                    20831783.824
 11  8 12  1 35 30.0000000  0  8G25G30G17G10G04G02G12G05
 119185917.403 7  92872164.154 7  22680320.828                    22680330.996
 114976016.394 7  89591763.97245  21879208.609                    21879216.719
 126777555.107 7  98787808.469 6  24124955.273                    24124963.781
 111803738.114 8  87119918.59245  21275523.984                    21275531.934
 120657970.752 7  94019313.66044  22960430.273                    22960439.676
 109093821.163 8  85008212.72446  20759828.617                    20759833.805
 109261276.101 8  85138738.447 7  20791731.406                    20791738.328
 109415277.385 8  85258735.167 8  20821017.625                    20821025.367
 11  8 12  1 36  0.0000000  0  8G25G30G17G10G04G02G12G05
 119110986.839 7  92813776.757 7  22666061.820                    22666072.672
 114922078.836 8  89549734.75945  21868944.125                    21868952.547
 126845829.763 6  98841009.476 6  24137947.836                    24137956.063
 111853333.454 8  87158564.30845  21284962.180                    21284969.727
 120740556.019 7  94083665.84044  22976146.391                    22976154.941
 109113831.648 8  85023805.33846  20763636.320                    20763641.902
 109245991.063 8  85126828.048 7  20788822.758                    20788829.918
 109359243.972 8  85215072.818 7  20810354.766                    20810362.508
 11  8 12  1 36 30.0000000  0  8G25G30G17G10G04G02G12G05
 119036456.092 7  92755700.899 7  22651879.469                    22651889.609
 114868680.006 8  89508125.31145  21858782.352                    21858790.648
 126914289.423 6  98894354.658 6  24150974.523                    24150983.535
 111903485.664 8  87197643.95645  21294505.906                    21294513.664
 120823150.288 7  94148025.01844  22991863.391                    22991871.750
 109134037.519 8  85039550.20046  20767481.398                    20767487.133
 109231279.385 8  85115364.411 7  20786023.078                    20786030.258
 109303717.036 8  85171805.123 7  20799788.297                    20799795.844
 11  8 12  1 37  0.0000000  0  8G25G30G17G10G04G02G12G05
 118962327.498 7  92697938.398 7  22637772.555                    22637783.324
 114815821.519 7  89466936.91845  21848724.344                    21848732.520
 126982933.970 6  98947843.894 6  24164037.977                    24164046.570
 111954192.633 8  87237155.89045  21304154.805                    21304162.508
 120905752.433 7  94212390.32444  23007582.188                    23007590.953
 109154437.667 8  85055446.44846  20771363.422                    20771368.898
 109217141.756 8  85104348.095 7  20783333.336                    20783339.820
 109248698.599 8  85128933.655 8  20789318.648                    20789326.250
 11  8 12  1 37 30.0000000  0  8G25G30G17G10G04G02G12G05
 118888603.766 8  92640491.368 7  22623743.930                    22623753.750
 114763505.585 7  89426171.30345  21838768.273                    21838776.746
 127051763.885 6  99001477.585 6  24177135.672                    24177144.574
 112005452.616 7  87277098.73345  21313909.234                    21313917.277
 120988361.340 7  94276760.91444  23023301.688                    23023311.078
 109175030.891 8  85071493.15746  20775282.078                    20775287.324
 109203578.801 8  85093779.573 7  20780751.898                    20780758.965
 109194190.091 8  85086459.546 8  20778945.797                    20778953.762
 11  8 12  1 38  0.0000000  0  8G25G30G17G10G04G02G12G05
 118815286.897 7  92583361.362 7  22609791.469                    22609802.238
 114711733.510 8  89385829.46745  21828916.313                    21828924.938
 127120778.906 6  99055255.499 6  24190268.445                    24190278.234
 112057263.006 8  87317470.47945  21323768.078                    21323776.301
 121070975.769 7  94341135.80744  23039022.672                    23039031.492
 109195815.994 8  85087689.37246  20779237.445                    20779242.410
 109190591.025 8  85083659.243 7  20778280.711                    20778287.730
 109140193.247 8  85044384.135 7  20768670.617                    20768678.492
 11  8 12  1 38 30.0000000  0  8G25G30G17G10G04G02G12G05
 118742379.798 7  92526550.665 7  22595918.047                    22595928.586
 114660507.611 7  89345913.23745  21819168.586                    21819177.254
 127189979.424 6  99109177.962 6  24203437.492                    24203446.098
 112109622.273 7  87358269.90645  21333731.969                    21333740.066
 121153594.692 7  94405514.18944  23054745.133                    23054753.586
 109216792.436 8  85104034.67746  20783228.766                    20783234.250
 109178179.546 8  85073987.971 7  20775918.805                    20775926.148
 109086710.039 8  85002708.959 8  20758492.609                    20758500.648
 11  8 12  1 39  0.0000000  0  8G25G30G17G10G04G02G12G05
 118669884.665 7  92470060.960 7  22582122.844                    22582132.855
 114609829.654 7  89306423.97145  21809524.664                    21809532.898
 127259365.221 6  99163244.781 6  24216640.742                    24216650.016
 112162528.366 8  87399495.43745  21343799.578                    21343807.609
 121236217.066 7  94469895.31244  23070467.250                    23070475.703
 109237958.852 8  85120528.01446  20787256.688                    20787262.266
 109166344.809 8  85064766.107 7  20773666.570                    20773673.816
 109033742.196 8  84961435.360 8  20748413.203                    20748421.164
 11  8 12  1 39 30.0000000  0  8G25G30G17G10G04G02G12G05
 118597803.838 7  92413894.061 7  22568406.492                    22568416.777
 114559701.142 8  89267362.85245  21799985.875                    21799993.613
 127328936.275 6  99217455.984 6  24229879.984                    24229888.820
 112215979.261 7  87441145.48245  21353971.422                    21353978.988
 121318841.564 7  94534278.04644  23086190.391                    23086198.645
 109259313.589 7  85137168.10446  20791320.695                    20791325.914
 109155087.559 8  85055994.227 7  20771524.109                    20771531.332
 108981291.328 8  84920564.604 7  20738432.445                    20738440.152
 11  8 12  1 40  0.0000000  0  9G25G30G29G17G10G04G02G12G05
 118526139.606 7  92358051.783 7  22554768.773                    22554779.191
 114510123.794 7  89228731.19545  21790551.430                    21790559.180
 129606664.59716 100992270.84416  24663339.367                    24663348.789
 127398692.882 6  99271811.734 6  24243153.867                    24243163.043
 112269972.565 7  87483218.20345  21364245.867                    21364253.434
 121401466.951 6  94598661.45744  23101913.172                    23101921.895
 109280855.654 7  85153954.16846  20795419.406                    20795424.785
 109144408.249 8  85047672.692 7  20769492.047                    20769499.426
 108929358.848 7  84880097.792 7  20728549.719                    20728557.352
 11  8 12  1 40 30.0000000  0  9G25G30G29G17G10G04G02G12G05
 118454894.387 7  92302536.045 7  22541211.594                    22541221.766
 114461099.368 7  89190530.39145  21781222.102                    21781230.629
 129526985.624 6 100930183.409 6  24648176.875                    24648186.969
 127468634.367 6  99326311.558 6  24256463.172                    24256472.688
 112324506.406 7  87525712.10545  21374623.484                    21374631.270
 121484092.516 6  94663045.04444  23117636.594                    23117645.160
 109302584.014 8  85170885.38446  20799554.492                    20799559.813
 109134306.865 8  85039801.485 7  20767570.328                    20767577.070
 108877946.432 8  84840036.210 8  20718766.289                    20718774.004
 11  8 12  1 41  0.0000000  0  9G25G30G29G17G10G04G02G12G05
 118384070.973 7  92247348.987 7  22527734.039                    22527744.789
 114412629.858 8  89152761.96245  21771998.727                    21772006.777
 129447232.362 6 100868038.111 6  24632999.203                    24633009.582
 127538761.258 6  99380955.852 6  24269808.813                    24269817.207
 112379578.846 7  87568625.70945  21385102.852                    21385110.816
 121566717.073 7  94727427.82844  23133360.000                    23133368.078
 109324498.306 8  85187961.48046  20803724.531                    20803729.828
 109124784.925 8  85032381.803 7  20765758.141                    20765764.941
 108827056.143 8  84800381.493 8  20709082.266                    20709090.051
 11  8 12  1 41 30.0000000  0  9G25G30G29G17G10G04G02G12G05
 118313671.604 7  92192492.377 7  22514337.961                    22514348.211
 114364716.989 8  89115427.28345  21762881.383                    21762889.449
 129367405.223 6 100805835.221 6  24617809.453                    24617818.879
 127609073.748 6  99435744.743 6  24283187.805                    24283197.414
 112435187.379 7  87611957.03545  21395685.453                    21395693.133
 121649339.457 7  94791808.94244  23149082.180                    23149090.902
 109346597.009 8  85205181.26046  20807929.563                    20807934.898
 109115843.095 8  85025414.145 7  20764056.094                    20764063.094
 108776689.194 8  84761134.569 8  20699497.680                    20699505.727
 11  8 12  1 42  0.0000000  0  9G25G30G29G17G10G04G02G12G05
 118243698.480 7  92137967.896 7  22501022.055                    22501032.656
 114317362.332 7  89078527.58645  21753869.891                    21753878.289
 129287504.543 6 100743575.064 6  24602604.688                    24602614.043
 127679571.400 6  99490677.916 6  24296603.156                    24296612.770
 112491330.219 7  87655704.70845  21406368.617                    21406376.203
 121731958.748 7  94856187.63744  23164803.930                    23164812.586
 109368878.875 8  85222543.77146  20812169.758                    20812175.121
 109107480.950 8  85018898.203 7  20762465.125                    20762472.309
 108726847.507 8  84722296.937 8  20690013.477                    20690020.883
 11  8 12  1 42 30.0000000  0  9G25G30G29G17G10G04G02G12G05
 118174154.042 7  92083777.449 7  22487788.336                    22487798.277
 114270567.573 8  89042064.17845  21744965.078                    21744973.480
 129207530.672 6 100681257.838 6  24587386.422                    24587395.910
 127750254.405 6  99545755.549 6  24310053.430                    24310063.680
 112548004.938 7  87699866.83245  21417153.555                    21417161.352
 121814573.883 7  94920563.07644  23180525.836                    23180533.270
 109391342.926 8  85240048.24546  20816444.734                    20816450.102
 109099699.690 8  85012834.884 8  20760984.422                    20760991.617
 108677532.506 8  84683869.719 8  20680628.820                    20680636.410
 11  8 12  1 43  0.0000000  0  9G25G30G29G17G10G04G02G12G05
 118105040.461 7  92029922.742 7  22474636.258                    22474646.500
 114224334.174 7  89006038.20445  21736167.203                    21736175.594
 129127484.432 6 100618884.270 6  24572153.898                    24572163.441
 127821122.578 6  99600977.423 6  24323540.727                    24323549.680
 112605209.543 7  87744441.85745  21428039.523                    21428046.805
 121897183.506 7  94984934.22944  23196244.992                    23196253.563
 109413987.872 8  85257693.67446  20820753.750                    20820759.363
 109092499.215 8  85007224.138 8  20759614.023                    20759621.602
 108628745.598 8  84645853.992 8  20671344.938                    20671352.531
 11  8 12  1 43 30.0000000  0  9G25G30G29G17G10G04G02G12G05
 118036360.311 7  91976405.781 7  22461566.570                    22461576.867
 114178663.979 7  88970451.08545  21727475.953                    21727484.652
 129047366.375 6 100556454.741 6  24556907.938                    24556916.676
 127892176.025 6  99656343.708 6  24337060.734                    24337070.672
 112662941.887 7  87789428.11545  21439025.063                    21439032.988
 121979786.857 7  95049300.48244  23211964.156                    23211972.566
 109436812.913 8  85275479.43246  20825097.273                    20825102.672
 109085880.234 8  85002066.491 7  20758354.656                    20758361.875
 108580488.359 8  84608250.998 8  20662161.813                    20662169.523
 11  8 12  1 44  0.0000000  0  9G25G30G29G17G10G04G02G12G05
 117968115.758 7  91923228.260 7  22448579.969                    22448590.613
 114133558.451 7  88935303.96945  21718893.133                    21718901.555
 128967176.945 6 100493969.596 6  24541647.813                    24541657.328
 127963414.555 6  99711854.217 6  24350617.055                    24350626.453
 112721199.891 7  87834823.97845  21450111.555                    21450119.402
 122062382.967 7  95113661.11144  23227681.414                    23227689.930
 109459816.896 8  85293404.61546  20829474.797                    20829480.063
 109079843.547 8  84997362.578 7  20757205.898                    20757213.059
 108532762.192 8  84571061.819 8  20653079.711                    20653087.258
 11  8 12  1 44 30.0000000  0  9G25G30G29G17G10G04G02G12G05
 117900309.205 7  91870392.049 7  22435676.406                    22435687.469
 114089019.275 8  88900598.16445  21710417.492                    21710425.902
 128886917.056 6 100431429.529 6  24526374.930                    24526384.801
 128034838.294 6  99767509.031 6  24364208.461                    24364217.766
 112779981.007 7  87880627.45845  21461297.016                    21461304.910
 122144970.782 7  95178015.23044  23243397.742                    23243405.977
 109482999.041 8  85311468.62946  20833886.281                    20833891.488
 109074389.239 8  84993112.478 8  20756168.172                    20756175.063
 108485568.784 8  84534287.792 8  20644099.086                    20644107.293
 11  8 12  1 45  0.0000000  0  9G25G30G29G17G10G04G02G12G05
 117832942.809 7  91817898.838 7  22422857.469                    22422867.922
 114045047.866 7  88866334.78545  21702049.844                    21702058.023
 128806586.796 6 100368834.614 6  24511088.898                    24511098.004
 128106446.860 6  99823307.867 5  24377835.367                    24377844.023
 112839282.807 7  87926836.67245  21472581.703                    21472589.695
 122227549.376 6  95242362.16144  23259111.633                    23259120.414
 109506357.938 7  85329670.36446  20838331.406                    20838336.426
 109069517.495 7  84989316.316 7  20755240.984                    20755248.289
 108438909.569 8  84497930.010 8  20635220.211                    20635227.906
 11  8 12  1 45 30.0000000  0  9G25G30G29G17G10G04G02G12G05
 117766019.070 7  91765750.532 7  22410122.469                    22410132.922
 114001645.905 7  88832515.11645  21693790.648                    21693798.867
 128726186.771 6 100306185.347 6  24495788.250                    24495798.215
 128178240.573 6  99879250.990 5  24391497.766                    24391506.152
 112899103.443 7  87973450.16345  21483965.813                    21483973.316
 122310117.719 7  95306701.15343  23274823.633                    23274831.758
 109529892.760 7  85348009.17146  20842809.914                    20842815.098
 109065228.997 7  84985974.644 7  20754424.648                    20754431.824
 108392785.994 8  84461989.599 8  20626443.211                    20626451.020
 11  8 12  1 46  0.0000000  0  9G25G30G29G17G10G04G02G12G05
 117699540.023 7  91713948.746 7  22397472.289                    22397482.277
 113958814.779 8  88799140.25345  21685640.570                    21685648.324
 128645717.632 6 100243482.191 5  24480475.836                    24480484.785
 128250219.284 6  99935338.251 5  24405194.570                    24405202.754
 112959440.499 7  88020466.06845  21495446.961                    21495454.375
 122392674.750 6  95371031.28944  23290534.398                    23290542.934
 109553602.347 8  85366484.17346  20847321.797                    20847326.488
 109061523.781 8  84983087.470 7  20753719.648                    20753726.664
 108347199.268 8  84426467.523 8  20617768.367                    20617776.156
 11  8 12  1 46 30.0000000  0  9G25G30G29G17G10G04G02G12G05
 117633508.113 7  91662495.380 7  22384906.258                    22384916.426
 113916556.198 8  88766211.53945  21677598.469                    21677606.625
 128565180.201 6 100180725.804 5  24465150.156                    24465158.918
 128322382.714 6  99991569.491 5  24418926.203                    24418935.430
 113020291.750 7  88067882.63545  21507026.453                    21507034.270
 122475219.602 6  95435351.92243  23306241.531                    23306249.656
 109577485.727 7  85385094.58346  20851866.422                    20851871.559
 109058402.684 8  84980655.468 7  20753125.688                    20753132.926
 108302151.130 8  84391365.124 8  20609195.969                    20609203.820
 11  8 12  1 47  0.0000000  0  9G25G30G29G17G10G04G02G12G05
 117567925.427 7  91611392.058 7  22372426.250                    22372436.523
 113874871.271 8  88733729.81445  21669666.266                    21669674.410
 128484574.759 6 100117916.474 5  24449810.852                    24449820.563
 128394730.886 6 100047944.680 5  24432694.242                    24432702.496
 113081654.796 7  88115698.00145  21518703.367                    21518711.008
 122557751.241 6  95499662.29543  23321946.688                    23321954.797
 109601541.643 8  85403839.45446  20856444.359                    20856449.680
 109055865.244 8  84978678.249 7  20752643.039                    20752649.906
 108257642.665 8  84356683.258 8  20600726.195                    20600733.629
 11  8 12  1 47 30.0000000  0  9G25G30G29G17G10G04G02G12G05
 117502794.342 7  91560640.647 7  22360031.734                    22360042.551
 113833761.742 7  88701696.45445  21661843.180                    21661851.332
 128403902.317 6 100055054.843 5  24434459.719                    24434468.961
 128467263.689 6 100104463.745 5  24446496.477                    24446505.535
 113143527.414 7  88163910.44645  21530477.758                    21530485.438
 122640268.779 6  95563961.65943  23337648.984                    23337657.180
 109625769.379 8  85422718.20346  20861054.391                    20861060.051
 109053911.688 7  84977156.008 7  20752271.031                    20752278.336
 108213675.345 8  84322423.045 8  20592359.555                    20592367.504
 11  8 12  1 48  0.0000000  0  9G25G30G29G17G10G04G02G12G05
 117438116.929 7  91510242.748 7  22347724.438                    22347734.445
 113793228.755 8  88670112.34145  21654130.219                    21654138.402
 128323163.427 6  99992141.432 5  24419095.570                    24419104.828
 128539981.004 6 100161126.560 5  24460335.031                    24460342.969
 113205907.167 7  88212518.05145  21542348.141                    21542355.992
 122722771.217 6  95628249.23743  23353349.211                    23353357.445
 109650167.767 8  85441729.92646  20865697.695                    20865702.840
 109052542.521 8  84976089.133 7  20752010.563                    20752017.645
 108170250.304 8  84288585.407 8  20584096.172                    20584103.258
 11  8 12  1 48 30.0000000  0  9G25G30G29G17G10G04G02G12G05
 117373895.400 7  91460200.068 7  22335503.227                    22335513.148
 113753273.738 8  88638978.58845  21646526.828                    21646534.699
 128242358.636 6  99929176.675 6  24403719.828                    24403728.727
 128612882.748 7 100217933.096 5  24474207.172                    24474215.938
 113268791.553 7  88261518.88445  21554314.945                    21554322.180
 122805257.569 6  95692524.30143  23369045.609                    23369053.598
 109674735.707 8  85460873.75946  20870372.375                    20870377.578
 109051757.994 8  84975477.829 8  20751861.328                    20751868.238
 108127368.784 8  84255171.273 8  20575935.992                    20575943.324
 11  8 12  1 49  0.0000000  0  9G25G30G29G17G10G04G02G12G05
 117310132.069 7  91410514.421 7  22323369.195                    22323379.230
 113713898.204 8  88608296.38745  21639034.430                    21639042.031
 128161488.379 6  99866160.937 6  24388329.742                    24388339.563
 128685968.539 6 100274883.066 5  24488115.281                    24488123.969
 113332178.467 7  88310911.28945  21566376.828                    21566385.031
 122887727.091 6  95756786.28043  23384739.797                    23384747.379
 109699472.353 8  85480149.06446  20875079.766                    20875085.344
 109051558.533 8  84975322.409 7  20751823.664                    20751830.328
 108085032.410 8  84222181.925 8  20567879.094                    20567887.078
 11  8 12  1 49 30.0000000  0  9G25G30G29G17G10G04G02G12G05
 117246829.090 7  91361187.503 7  22311323.320                    22311333.551
 113675103.543 8  88578066.80545  21631652.023                    21631659.813
 128080553.567 6  99803094.889 6  24372928.555                    24372938.188
 128759238.543 7 100331976.535 5  24502058.102                    24502066.660
 113396065.326 7  88360693.26245  21578533.852                    21578541.668
 122970178.953 6  95821034.43543  23400429.727                    23400437.355
 109724376.670 8  85499555.01546  20879819.055                    20879824.117
 109051943.550 8  84975622.421 7  20751896.344                    20751903.961
 108043242.354 8  84189618.290 8  20559927.148                    20559934.680
 11  8 12  1 50  0.0000000  0  8G25G30G29G10G04G02G12G05
 117183989.271 7  91312221.470 7  22299365.664                    22299375.676
 113636891.589 7  88548291.28045  21624380.313                    21624388.363
 127999555.477 6  99739979.556 6  24357515.297                    24357523.891
 113460450.390 7  88410863.44345  21590786.211                    21590793.684
 123052612.721 6  95885268.54543  23416116.156                    23416124.629
 109749448.371 8  85519091.39746  20884589.711                    20884595.230
 109052914.035 8  84976378.650 7  20752081.234                    20752088.574
 108002000.348 7  84157481.702 8  20552078.617                    20552086.426
 11  8 12  1 50 30.0000000  0  8G25G30G29G10G04G02G12G05
 117121614.082 7  91263617.467 7  22287495.672                    22287505.938
 113599263.028 7  88518970.35045  21617219.875                    21617227.848
 127918494.228 6  99676815.026 6  24342089.414                    24342098.762
 113525330.392 7  88461419.28845  21603132.141                    21603140.039
 123135026.954 6  95949487.42243  23431798.852                    23431807.605
 109774685.764 8  85538756.89546  20889392.234                    20889397.645
 109054469.857 8  84977590.974 8  20752377.125                    20752384.277
 107961307.001 7  84125772.631 8  20544335.523                    20544342.410
 11  8 12  1 51  0.0000000  0  8G25G30G29G10G04G02G12G05
 117059705.467 7  91215377.045 7  22275714.688                    22275725.137
 113562218.892 7  88490104.80545  21610170.617                    21610178.207
 127837370.308 6  99613601.637 6  24326652.570                    24326661.484
 113590703.195 7  88512359.13345  21615572.742                    21615579.988
 123217420.593 6  96013690.25044  23447478.008                    23447486.430
 109800087.440 8  85558550.41946  20894225.945                    20894231.441
 109056610.472 7  84979258.997 8  20752784.883                    20752792.176
 107921163.364 8  84094491.915 8  20536696.055                    20536703.719
 11  8 12  1 51 30.0000000  0  8G25G30G29G10G04G02G12G05
 116998265.628 7  91167501.905 7  22264023.172                    22264033.477
 113525760.555 7  88461695.73045  21603232.859                    21603240.738
 127756184.478 6  99550340.009 6  24311202.438                    24311212.527
 113656566.217 7  88563680.97645  21628105.719                    21628113.574
 123299792.763 6  96077876.32043  23463153.344                    23463160.855
 109825652.582 8  85578471.31546  20899091.008                    20899096.250
 109059335.892 8  84981382.694 7  20753303.375                    20753310.551
 107881570.534 8  84063640.385 8  20529161.602                    20529169.461
 11  8 12  1 52  0.0000000  0  8G25G30G29G10G04G02G12G05
 116937296.760 8  91119993.744 7  22252421.375                    22252431.230
 113489889.298 8  88433744.11245  21596406.641                    21596414.359
 127674937.452 6  99487030.717 6  24295742.133                    24295751.137
 113722916.964 7  88615382.84545  21640731.578                    21640739.918
 123382142.677 6  96142045.08443  23478823.625                    23478831.688
 109851380.311 8  85598518.90546  20903986.977                    20903991.957
 109062646.213 8  84983962.161 8  20753933.305                    20753940.504
 107842529.756 8  84033219.033 8  20521732.039                    20521739.793
 11  8 12  1 52 30.0000000  0  8G25G30G29G10G04G02G12G05
 116876801.093 8  91072854.314 7  22240909.359                    22240919.434
 113454606.429 8  88406250.99145  21589692.344                    21589700.551
 127593630.026 6  99423674.334 6  24280269.313                    24280278.973
 113789753.137 7  88667462.99245  21653450.609                    21653458.168
 123464469.723 6  96206196.01443  23494489.594                    23494498.488
 109877269.719 8  85618692.48146  20908913.492                    20908918.703
 109066541.689 8  84986997.594 7  20754675.039                    20754681.703
 107804042.498 8  84003228.994 8  20514408.461                    20514415.797
 11  8 12  1 53  0.0000000  0  8G25G30G29G10G04G02G12G05
 116816780.431 8  91026084.990 7  22229487.563                    22229497.816
 113419912.902 8  88379217.08945  21583090.336                    21583098.500
 127512262.764 6  99360271.384 6  24264785.969                    24264794.941
 113857072.065 7  88719919.29245  21666260.297                    21666268.672
 123546772.649 6  96270328.15943  23510151.328                    23510160.750
 109903319.680 8  85638991.15546  20913870.797                    20913875.742
 109071021.871 8  84990488.631 8  20755527.117                    20755534.262
 107766109.415 8  83973670.786 8  20507189.836                    20507197.391
 11  8 12  1 53 30.0000000  0  8G25G30G29G10G04G02G12G05
 116757236.854 8  90979687.427 7  22218157.156                    22218167.023
 113385809.807 7  88352643.25845  21576601.438                    21576609.078
 127430836.435 6  99296822.355 6  24249290.633                    24249299.891
 113924871.118 7  88772749.71745  21679162.648                    21679170.020
 123629050.869 6  96334441.06643  23525809.148                    23525817.477
 109929528.939 7  85659413.96746  20918858.031                    20918863.188
 109076087.174 8  84994435.611 8  20756490.945                    20756498.363
 107728731.696 8  83944545.311 8  20500077.383                    20500084.918
 11  8 12  1 54  0.0000000  0  8G25G30G29G10G04G02G12G05
 116698172.767 8  90933663.478 7  22206917.336                    22206927.277
 113352298.607 7  88326530.65045  21570224.109                    21570231.758
 127349352.146 6  99233328.176 6  24233785.477                    24233794.746
 113993148.490 7  88825952.85645  21692155.133                    21692162.488
 123711303.679 6  96398534.13343  23541460.953                    23541469.785
 109955897.429 8  85679960.85646  20923876.031                    20923880.613
 109081737.652 8  84998838.570 7  20757566.461                    20757573.250
 107691910.593 8  83915853.583 8  20493070.508                    20493078.133
 11  8 12  1 54 30.0000000  0  8G25G30G29G10G04G02G12G05
 116639589.845 8  90888014.469 7  22195769.898                    22195779.461
 113319380.136 7  88300879.89945  21563959.969                    21563967.637
 127267810.078 6  99169788.935 6  24218268.719                    24218277.277
 114061901.114 7  88879526.31845  21705238.383                    21705246.215
 123793530.120 6  96462606.64544  23557108.172                    23557116.652
 109982423.577 8  85700630.60046  20928923.563                    20928928.844
 109087972.452 8  85003696.849 8  20758752.914                    20758760.082
 107655646.672 8  83887596.010 8  20486169.891                    20486176.887
 11  8 12  1 55  0.0000000  0  8G25G30G29G10G04G02G12G05
 116581490.432 8  90842742.216 7  22184713.516                    22184723.703
 113287055.637 7  88275691.97645  21557808.609                    21557816.262
 127186211.191 6  99106205.445 6  24202740.445                    24202749.512
 114131126.870 7  88933468.45945  21718411.586                    21718419.262
 123875729.581 6  96526658.15343  23572750.344                    23572759.293
 110009106.686 8  85721422.64946  20934001.063                    20934006.844
 109094791.814 8  85009010.631 8  20760050.055                    20760057.621
 107619941.131 7  83859773.539 8  20479374.922                    20479382.473
 11  8 12  1 55 30.0000000  0  8G25G30G29G10G04G02G12G05
 116523876.270 8  90797848.089 7  22173749.414                    22173759.508
 113255325.980 7  88250967.56745  21551770.820                    21551778.250
 127104556.400 6  99042578.348 6  24187201.547                    24187210.293
 114200822.750 7  88987776.93045  21731674.094                    21731682.023
 123957900.917 6  96590687.76344  23588387.164                    23588395.715
 110035945.317 8  85742335.88746  20939108.313                    20939113.996
 109102195.087 8  85014779.405 8  20761459.195                    20761466.262
 107584795.041 8  83832387.009 8  20472686.906                    20472694.398
 11  8 12  1 56  0.0000000  0  8G25G30G29G10G04G02G12G05
 116466749.375 8  90753333.656 7  22162879.250                    22162888.848
 113224192.202 7  88226707.49045  21545846.047                    21545853.910
 127022846.526 6  98978908.319 6  24171653.938                    24171661.918
 114270986.032 7  89042449.60645  21745025.836                    21745033.703
 124040043.696 6  96654695.11643  23604017.656                    23604027.176
 110062938.889 7  85763369.86246  20944244.977                    20944249.832
 109110182.543 8  85021003.385 8  20762979.328                    20762986.102
 107550209.383 8  83805437.172 8  20466105.406                    20466113.012
 11  8 12  1 56 30.0000000  0  8G25G30G29G10G04G02G12G05
 116410112.110 7  90709200.736 7  22152100.586                    22152110.867
 113193655.717 7  88202912.84745  21540034.945                    21540043.078
 126941082.167 6  98915195.846 6  24156093.648                    24156102.891
 114341614.613 7  89097484.85345  21758466.266                    21758473.840
 124122157.229 7  96718679.67144  23619643.211                    23619653.145
 110090086.812 8  85784524.11546  20949411.258                    20949416.410
 109118754.085 8  85027682.502 7  20764609.898                    20764617.590
 107516185.138 8  83778924.806 8  20459630.938                    20459638.332
 11  8 12  1 57  0.0000000  0  8G25G30G29G10G04G02G12G05
 116353966.051 8  90665450.578 7  22141416.664                    22141426.805
 113163717.089 7  88179584.05245  21534337.805                    21534345.695
 126859264.414 6  98851441.752 6  24140523.883                    24140533.340
 114412705.844 7  89152880.61645  21771994.500                    21772002.215
 124204240.540 7  96782640.65743  23635263.445                    23635272.781
 110117387.795 8  85805797.63546  20954606.289                    20954611.492
 109127909.256 8  85034816.387 7  20766352.398                    20766359.387
 107482723.007 8  83752850.454 8  20453263.156                    20453270.523
 11  8 12  1 57 30.0000000  0  8G25G30G29G10G04G02G12G05
 116298313.258 8  90622084.771 7  22130826.648                    22130836.672
 113134377.291 7  88156721.89245  21528754.711                    21528762.758
 126777394.076 6  98787646.701 6  24124945.156                    24124953.441
 114484256.838 7  89208634.62445  21785610.125                    21785617.676
 124286292.788 7  96846577.49243  23650877.781                    23650886.590
 110144840.871 8  85827189.66246  20959830.383                    20959835.828
 109137647.893 8  85042404.925 8  20768205.664                    20768212.770
 107449823.935 8  83727214.847 8  20447002.828                    20447010.156
 11  8 12  1 58  0.0000000  0  8G25G30G29G10G04G02G12G05
 116243155.471 8  90579104.691 7  22120330.227                    22120340.988
 113105637.144 8  88134326.99145  21523285.906                    21523293.742
 126695471.657 6  98723811.044 6  24109355.531                    24109364.457
 114556264.820 7  89264744.73745  21799312.602                    21799320.102
 124368313.335 7  96910489.58143  23666486.219                    23666494.727
 110172444.851 8  85848699.28546  20965083.273                    20965088.465
 109147969.382 8  85050447.619 7  20770170.023                    20770176.699
 107417488.709 8  83702018.598 8  20440849.406                    20440856.859
 11  8 12  1 58 30.0000000  0  8G25G30G29G10G04G02G12G05
 116188494.496 8  90536511.738 7  22109928.328                    22109938.473
 113077497.453 7  88112399.95846  21517931.031                    21517939.027
 126613498.004 6  98659935.508 6  24093756.477                    24093765.398
 114628727.232 7  89321208.95945  21813102.000                    21813109.586
 124450301.342 6  96974376.32143  23682087.836                    23682096.898
 110200198.584 8  85870325.59146  20970364.570                    20970369.309
 109158873.166 8  85058944.066 7  20772244.641                    20772252.078
 107385718.077 8  83677262.306 8  20434803.547                    20434811.469
 11  8 12  1 59  0.0000000  0  8G25G30G29G10G04G02G12G05
 116134332.627 8  90494307.701 7  22099621.813                    22099632.145
 113049959.463 7  88090941.79745  21512690.602                    21512698.504
 126531474.390 6  98596021.018 6  24078148.008                    24078157.203
 114701642.222 7  89378025.82445  21826976.945                    21826984.500
 124532256.333 6  97038237.35843  23697683.063                    23697692.219
 110228102.180 8  85892068.67046  20975674.516                    20975679.703
 109170359.476 8  85067894.424 7  20774430.438                    20774437.438
 107354513.109 8  83652946.783 8  20428865.422                    20428873.074
 11  8 12  1 59 30.0000000  0  8G25G30G29G10G04G02G12G05
 116080671.601 8  90452493.936 7  22089410.195                    22089420.176
 113023023.784 7  88069952.96945  21507564.898                    21507572.801
 126449401.231 6  98532067.920 6  24062530.469                    24062539.305
 114775006.875 7  89435193.07545  21840938.422                    21840945.688
 124614177.400 7  97102071.97143  23713272.539                    23713281.430
 110256154.249 8  85913927.44146  20981013.063                    20981017.875
 109182427.414 8  85077298.008 7  20776726.961                    20776733.918
 107323874.347 8  83629072.453 8  20423034.875                    20423042.836
 11  8 12  2  0  0.0000000  0  8G25G30G29G10G04G02G12G05
 116027513.019 8  90411071.671 7  22079295.133                    22079304.652
 112996691.119 8  88049434.02345  21502553.977                    21502561.859
 126367279.578 6  98468077.082 6  24046902.742                    24046911.879
 114848818.012 7  89492708.24045  21854983.898                    21854991.172
 124696063.832 6  97165879.58943  23728854.680                    23728863.793
 110284353.736 8  85935901.08146  20986378.570                    20986384.313
 109195076.719 8  85087154.606 7  20779134.094                    20779140.781
 107293802.560 8  83605639.939 8  20417312.672                    20417320.164
 11  8 12  2  0 30.0000000  0  8G25G30G29G10G04G02G12G05
 115974859.247 8  90370042.763 7  22069274.969                    22069285.148
 112970962.654 7  88029385.89545  21497658.273                    21497665.813
 126285110.449 7  98404049.244 6  24031266.516                    24031275.602
 114923073.558 7  89550569.70245  21869113.664                    21869121.652
 124777915.262 6  97229659.90743  23744431.000                    23744439.121
 110312700.277 8  85957989.29746  20991772.797                    20991778.410
 109208307.449 8  85097464.260 7  20781651.688                    20781659.188
 107264298.868 8  83582650.087 8  20411698.125                    20411705.715
 11  8 12  2  1  0.0000000  0  8G25G30G29G10G04G02G12G05
 115922711.788 8  90329408.410 7  22059351.664                    22059362.102
 112945838.855 7  88009808.91545  21492877.055                    21492884.820
 126202894.598 6  98339985.026 6  24015621.477                    24015630.004
 114997770.748 7  89608775.30245  21883328.266                    21883336.320
 124859730.852 7  97293412.33843  23759999.188                    23760008.078
 110341192.520 8  85980191.04746  20997195.023                    20997200.289
 109222118.764 8  85108226.314 8  20784280.063                    20784287.461
 107235363.370 8  83560102.988 8  20406192.266                    20406199.418
 11  8 12  2  1 30.0000000  0  8G25G30G29G10G04G02G12G05
 115871072.523 8  90289170.052 7  22049524.977                    22049535.348
 112921320.490 7  87990703.70546  21488211.164                    21488219.277
 126120633.034 7  98275885.154 6  23999967.398                    23999975.430
 115072906.733 7  89667322.81245  21897626.484                    21897634.285
 124941509.814 7  97357136.23743  23775561.711                    23775570.590
 110369829.783 8  86002505.79846  21002644.289                    21002649.723
 109236510.033 8  85119440.267 7  20787018.414                    20787025.891
 107206997.001 8  83537999.370 8  20400793.953                    20400801.402
 11  8 12  2  2  0.0000000  0  8G25G30G29G10G04G02G12G05
 115819943.105 8  90249328.975 7  22039795.773                    22039805.805
 112897408.239 7  87972070.79645  21483661.297                    21483669.227
 126038326.287 6  98211750.097 6  23984304.875                    23984313.500
 115148478.531 7  89726209.92145  21912006.695                    21912014.348
 125023251.627 6  97420831.13943  23791116.547                    23791125.152
 110398610.826 8  86024932.58546  21008120.938                    21008126.152
 109251480.577 8  85131105.607 7  20789867.125                    20789874.469
 107179200.484 8  83516339.792 8  20395504.852                    20395511.820
 11  8 12  2  2 30.0000000  0  8G25G30G29G10G04G02G12G05
 115769325.468 8  90209886.687 7  22030163.023                    22030172.871
 112874102.876 7  87953910.77845  21479226.211                    21479233.688
 125955975.677 6  98147580.857 6  23968634.133                    23968642.848
 115224484.024 7  89785434.97945  21926470.547                    21926478.563
 125104955.468 6  97484496.49243  23806664.648                    23806673.074
 110427535.146 8  86047471.00046  21013625.406                    21013630.758
 109267030.217 8  85143222.187 7  20792826.313                    20792833.793
 107151974.100 8  83495124.480 8  20390323.766                    20390330.602
 11  8 12  2  3  0.0000000  0  8G25G30G29G10G04G02G12G05
 115719221.158 8  90170844.387 7  22020628.625                    22020638.898
 112851404.844 8  87936224.00845  21474906.578                    21474914.902
 125873581.717 6  98083377.897 6  23952954.367                    23952964.008
 115300920.364 7  89844995.76645  21941015.648                    21941023.656
 125186620.819 6  97548131.82643  23822204.328                    23822213.297
 110456601.672 8  86070120.24446  21019156.625                    21019161.922
 109283158.073 8  85155789.328 7  20795895.508                    20795902.672
 107125318.840 8  83474354.188 8  20385251.148                    20385258.504
 11  8 12  2  3 30.0000000  0  8G25G30G29G10G04G02G12G05
 115669632.076 8  90132203.563 7  22011191.813                    22011201.844
 112829314.954 8  87919011.11345  21470703.117                    21470711.395
 125791145.590 7  98019142.020 6  23937268.195                    23937276.484
 115377784.585 7  89904889.97245  21955642.766                    21955650.504
 125268246.946 6  97611736.60743  23837737.633                    23837745.938
 110485809.700 8  86092879.73046  21024714.492                    21024719.875
 109299864.355 8  85168807.188 7  20799074.328                    20799081.855
 107099235.583 8  83454029.622 8  20380287.961                    20380295.172
 11  8 12  2  4  0.0000000  0  8G25G30G29G10G04G02G12G05
 115620559.819 8  90093965.463 7  22001853.961                    22001864.121
 112807833.649 8  87902272.44346  21466615.711                    21466623.852
 125708668.322 6  97954874.112 6  23921573.180                    23921581.121
 115455073.989 7  89965115.47845  21970350.219                    21970358.363
 125349833.314 6  97675310.39443  23853263.117                    23853271.496
 110515158.435 8  86115748.86946  21030299.273                    21030304.805
 109317147.278 8  85182274.387 7  20802363.242                    20802370.855
 107073724.305 8  83434150.746 8  20375433.047                    20375440.422
 11  8 12  2  4 30.0000000  0  8G25G30G29G10G04G02G12G05
 115572005.918 8  90056131.276 7  21992614.219                    21992624.137
 112786961.388 7  87886008.35145  21462643.805                    21462651.836
 125626150.875 6  97890574.898 6  23905870.148                    23905879.016
 115532785.485 7  90025669.88745  21985138.125                    21985145.797
 125431379.015 6  97738852.50943  23868780.188                    23868789.594
 110544646.699 8  86138726.73246  21035910.578                    21035916.418
 109335006.509 8  85196190.659 7  20805761.688                    20805768.859
 107048785.423 8  83414717.896 8  20370687.492                    20370694.320
 11  8 12  2  5  0.0000000  0  8G25G30G29G10G04G02G12G05
 115523972.571 8  90018702.718 7  21983474.156                    21983484.012
 112766699.125 8  87870219.57745  21458787.734                    21458795.633
 125543594.065 6  97826244.995 6  23890160.016                    23890168.848
 115610916.879 7  90086551.49545  22000006.211                    22000013.754
 125512883.990 6  97802362.88143  23884290.297                    23884298.863
 110574274.031 8  86161812.95646  21041548.773                    21041554.055
 109353441.966 8  85210555.941 7  20809269.883                    20809277.141
 107024419.781 8  83395731.715 8  20366050.523                    20366057.566
 11  8 12  2  5 30.0000000  0  8G25G30G29G10G04G02G12G05
 115476461.255 8  89981680.938 7  21974432.984                    21974442.820
 112747047.293 7  87854906.45645  21455048.594                    21455055.949
 125460998.992 6  97761885.271 6  23874442.641                    23874451.512
 115689465.589 7  90147758.29145  22014953.539                    22014961.102
 125594347.478 6  97865840.89143  23899792.258                    23899800.797
 110604039.613 8  86185006.89446  21047212.813                    21047218.477
 109372452.455 8  85225369.293 7  20812887.367                    20812894.777
 107000627.948 8  83377192.660 8  20361523.219                    20361530.445
 11  8 12  2  6  0.0000000  0  8G25G30G29G10G04G02G12G05
 115429473.283 8  89945066.952 7  21965491.344                    21965501.219
 112728006.033 7  87840069.12346  21451424.969                    21451432.539
 125378366.635 6  97697496.479 6  23858717.953                    23858727.262
 115768428.534 7  90209287.86345  22029979.867                    22029987.785
 125675768.489 6  97929285.82943  23915286.078                    23915295.145
 110633942.307 8  86208307.69146  21052903.320                    21052908.672
 109392037.405 8  85240630.280 7  20816614.469                    20816621.738
 106977410.212 8  83359100.949 8  20357104.914                    20357112.293
 11  8 12  2  6 30.0000000  0  8G25G30G29G10G04G02G12G05
 115383010.556 8  89908862.236 7  21956649.922                    21956659.863
 112709576.061 8  87825708.11545  21447917.414                    21447925.512
 125295698.141 7  97633079.520 6  23842986.633                    23842995.766
 115847803.002 7  90271138.11744  22045084.211                    22045092.277
 125757146.914 6  97992697.62643  23930771.211                    23930780.496
 110663981.522 8  86231714.85446  21058619.789                    21058625.055
 109412196.090 8  85256338.338 7  20820450.641                    20820457.699
 106954766.897 8  83341456.839 8  20352795.992                    20352803.422
 11  8 12  2  7  0.0000000  0  8G25G30G29G10G04G02G12G05
 115337074.639 8  89873068.021 7  21947908.305                    21947918.496
 112691757.811 8  87811823.78645  21444526.805                    21444535.086
 125212994.422 7  97568635.115 6  23827248.508                    23827258.027
 115927586.221 7  90333306.86245  22060266.742                    22060274.238
 125838482.047 6  98056075.62243  23946249.484                    23946258.414
 110694156.686 8  86255227.95346  21064361.781                    21064367.051
 109432927.813 8  85272492.929 7  20824395.563                    20824402.906
 106932698.766 8  83324260.925 8  20348596.258                    20348603.820
 11  8 12  2  7 30.0000000  0  8G25G30G29G10G04G02G12G05
 115291667.146 8  89837685.552 7  21939267.828                    21939277.637
 112674551.741 7  87798416.47245  21441252.867                    21441260.922
 125130256.173 6  97504163.801 6  23811503.906                    23811513.383
 116007775.221 7  90395791.78845  22075526.000                    22075533.836
 125919773.387 6  98119419.50743  23961718.484                    23961727.516
 110724466.799 8  86278846.20946  21070129.594                    21070134.664
 109454231.483 8  85289093.178 7  20828449.781                    20828456.945
 106911205.892 8  83307513.268 8  20344506.586                    20344513.789
 11  8 12  2  8  0.0000000  0  8G25G30G29G10G04G02G12G05
 115246789.503 8  89802715.958 7  21930727.727                    21930738.070
 112657958.018 7  87785486.32046  21438095.117                    21438102.809
 125047484.532 7  97439666.437 6  23795753.180                    23795762.223
 116088367.543 7  90458590.99045  22090862.219                    22090870.000
 126001020.070 6  98182728.60743  23977179.750                    23977188.215
 110754910.790 8  86302568.79446  21075922.563                    21075928.051
 109476106.625 8  85306138.742 7  20832612.305                    20832619.715
 106890288.520 8  83291214.048 8  20340525.883                    20340533.070
 11  8 12  2  8 30.0000000  0  8G25G30G29G10G04G02G12G05
 115202443.444 8  89768160.578 7  21922289.172                    21922299.406
 112641977.179 8  87773033.71946  21435053.938                    21435061.867
 124964680.687 6  97375143.994 6  23779996.281                    23780004.961
 116169360.540 7  90521702.44445  22106274.477                    22106281.855
 126082222.062 6  98246002.89243  23992631.570                    23992640.781
 110785488.220 8  86326395.35746  21081741.484                    21081746.996
 109498552.049 8  85323628.669 7  20836883.930                    20836890.965
 106869947.303 8  83275363.789 8  20336655.172                    20336662.512
 11  8 12  2  9  0.0000000  0  8G25G30G29G10G04G02G12G05
 115158631.455 8  89734021.361 7  21913951.797                    21913962.012
 112626610.525 8  87761059.70345  21432129.750                    21432137.875
 124881846.788 6  97310598.129 6  23764233.867                    23764242.102
 116250752.193 7  90585124.49945  22121762.930                    22121770.742
 126163379.725 6  98309242.61343  24008075.836                    24008084.496
 110816199.310 8  86350326.07746  21087585.734                    21087591.258
 109521567.923 8  85341563.121 7  20841263.328                    20841270.621
 106850183.569 8  83259963.508 8  20332894.086                    20332901.359
 11  8 12  2  9 30.0000000  0  8G25G30G29G10G04G02G12G05
 115115353.879 8  89700298.570 7  21905716.578                    21905726.648
 112611857.171 8  87749563.59445  21429322.188                    21429330.219
 124798982.816 7  97246028.855 6  23748464.695                    23748473.914
 116332538.689 7  90648854.23345  22137326.320                    22137334.160
 126244491.142 6  98372446.32443  24023511.109                    24023519.070
 110847042.130 8  86374359.44546  21093455.039                    21093460.008
 109545152.191 8  85359940.468 7  20845751.234                    20845758.352
 106830995.998 8  83245012.181 8  20329242.875                    20329250.398
 11  8 12  2 10  0.0000000  0  8G25G30G29G10G04G02G12G05
 115072612.058 8  89666993.270 7  21897582.625                    21897592.754
 112597717.245 8  87738545.47546  21426631.398                    21426639.246
 124716089.537 7  97181436.746 6  23732690.328                    23732699.328
 116414717.018 7  90712889.29444  22152964.648                    22152972.277
 126325555.844 6  98435613.63043  24038936.703                    24038944.930
 110878015.707 8  86398494.70546  21099348.898                    21099354.324
 109569303.909 8  85378759.990 7  20850346.977                    20850354.730
 106812385.037 8  83230510.160 8  20325701.477                    20325708.566
 11  8 12  2 10 30.0000000  0  8G25G30G29G10G04G02G12G05
 115030407.232 8  89634106.398 7  21889551.734                    21889561.914
 112584190.810 8  87728005.39746  21424057.664                    21424065.828
 124633167.751 7  97116822.402 6  23716911.422                    23716919.566
 116497284.246 7  90777227.40145  22168676.305                    22168683.961
 126406573.163 6  98498744.00443  24054353.336                    24054362.453
 110909118.979 8  86422731.03146  21105267.820                    21105272.992
 109594021.881 8  85398020.740 7  20855050.961                    20855058.105
 106794350.671 8  83216457.428 8  20322269.789                    20322276.906
 11  8 12  2 11  0.0000000  0  8G25G30G29G10G04G02G12G05
 114988741.003 8  89601639.214 7  21881622.633                    21881632.371
 112571278.232 8  87717943.65345  21421600.469                    21421608.012
 124550219.043 7  97052187.089 6  23701126.438                    23701135.340
 116580237.486 7  90841866.29144  22184461.625                    22184469.086
 126487542.631 6  98561837.08943  24069761.453                    24069770.168
 110940351.449 8  86447068.02846  21111211.211                    21111216.262
 109619305.431 8  85417722.200 7  20859862.438                    20859869.410
 106776893.320 8  83202854.332 8  20318947.664                    20318954.941
 11  8 12  2 11 30.0000000  0  8G25G30G29G10G04G02G12G05
 114947615.074 8  89569593.039 7  21873797.148                    21873806.973
 112558979.920 8  87708360.56846  21419260.344                    21419267.895
 124467244.530 7  96987531.698 6  23685337.266                    23685345.527
 116663574.336 7  90906804.09744  22200320.141                    22200328.078
 126568464.017 6  98624892.70843  24085160.781                    24085169.609
 110971712.743 8  86471505.41146  21117178.883                    21117184.195
 109645153.520 8  85437863.565 7  20864780.953                    20864787.945
 106760013.386 8  83189701.165 8  20315735.383                    20315742.633
 11  8 12  2 12  0.0000000  0  8G25G30G29G10G04G02G12G05
 114907030.634 8  89537968.802 7  21866074.266                    21866083.855
 112547295.889 8  87699256.12746  21417037.344                    21417044.672
 124384245.095 7  96922856.858 6  23669542.297                    23669551.391
 116747291.759 7  90972038.45244  22216251.188                    22216258.797
 126649336.802 6  98687910.45443  24100550.102                    24100559.090
 111003201.733 8  86496042.29246  21123171.086                    21123176.434
 109671565.241 8  85458444.126 8  20869806.961                    20869814.324
 106743711.014 8  83176998.047 8  20312633.266                    20312640.195
 11  8 12  2 12 30.0000000  0  8G25G30G29G10G04G02G12G05
 114866989.110 8  89506767.623 7  21858454.492                    21858463.965
 112536226.218 8  87690630.40645  21414930.336                    21414937.996
 124301222.128 7  96858163.688 6  23653744.695                    23653752.270
 116831387.078 7  91037567.26944  22232254.242                    22232261.711
 126730160.472 6  98750889.90443  24115930.797                    24115939.293
 111034817.890 8  86520678.27146  21129187.281                    21129192.949
 109698539.690 8  85479463.179 7  20874939.922                    20874947.316
 106727986.003 8  83164744.807 8  20309640.555                    20309647.898
 11  8 12  2 13  0.0000000  0  8G25G30G29G10G04G02G12G05
 114827491.888 8  89475990.582 7  21850938.273                    21850948.168
 112525771.084 8  87682483.53346  21412940.922                    21412948.766
 124218176.518 7  96793452.892 6  23637941.320                    23637948.961
 116915857.344 7  91103388.25744  22248327.992                    22248335.664
 126810934.588 6  98813830.78643  24131301.273                    24131310.234
 111066560.459 8  86545412.75346  21135227.734                    21135233.074
 109726075.388 7  85500919.573 7  20880179.766                    20880187.422
 106712838.522 8  83152941.596 8  20306758.203                    20306764.898
 11  8 12  2 13 30.0000000  0  8G25G30G29G10G04G02G12G05
 114788540.386 8  89445638.782 7  21843526.297                    21843535.813
 112515930.634 8  87674815.64845  21411068.344                    21411075.559
 124135109.505 7  96728725.394 6  23622133.828                    23622142.285
 117000699.857 7  91169499.31044  22264473.188                    22264480.566
 126891658.898 6  98876732.81043  24146662.281                    24146671.535
 111098428.902 8  86570245.31946  21141292.203                    21141297.594
 109754171.618 8  85522812.740 7  20885526.625                    20885533.957
 106698269.128 8  83141588.845 8  20303985.664                    20303992.832
 11  8 12  2 14  0.0000000  0  8G25G30G29G10G04G02G12G05
 114750135.489 8  89415712.890 7  21836217.930                    21836227.504
 112506704.513 8  87667626.45245  21409312.641                    21409320.094
 124052022.031 7  96663981.992 6  23606322.320                    23606331.250
 117085911.270 7  91235897.80544  22280688.836                    22280695.824
 126972332.610 6  98939595.43743  24162014.266                    24162023.465
 111130421.925 8  86595174.95646  21147380.141                    21147385.391
 109782826.656 8  85545141.336 7  20890979.625                    20890986.387
 106684277.070 8  83130685.964 8  20301323.109                    20301330.523
 11  8 12  2 14 30.0000000  0  8G25G30G29G10G04G02G12G05
 114712278.947 8  89386214.296 7  21829014.008                    21829023.844
 112498093.198 8  87660916.33445  21407673.664                    21407681.402
 123968915.734 7  96599223.891 6  23590508.031                    23590516.590
 117171489.177 7  91302581.89444  22296973.594                    22296980.770
 127052955.465 6  99002418.45243  24177356.727                    24177365.387
 111162539.528 8  86620201.68146  21153491.883                    21153497.270
 109812039.763 8  85567904.786 7  20896538.188                    20896545.758
 106670862.948 8  83120233.419 8  20298770.523                    20298777.883
 11  8 12  2 15  0.0000000  0  8G25G30G29G10G04G02G12G05
 114674971.876 8  89357143.866 7  21821914.516                    21821924.168
 112490096.496 8  87654685.14146  21406151.586                    21406159.852
 123885791.434 7  96534451.774 6  23574690.008                    23574698.375
 117257430.854 7  91369549.43344  22313327.664                    22313334.875
 127133527.051 6  99065201.48343  24192688.227                    24192697.410
 111194780.668 7  86645324.66046  21159627.523                    21159632.504
 109841809.821 8  85591102.231 7  20902203.625                    20902210.641
 106658026.778 8  83110231.231 8  20296327.773                    20296334.949
 11  8 12  2 15 30.0000000  0  8G25G30G29G10G04G02G12G05
 114638215.498 8  89328502.555 7  21814920.000                    21814929.883
 112482714.360 8  87648932.82445  21404747.195                    21404755.348
 123802650.414 7  96469666.618 6  23558868.563                    23558876.742
 117343733.212 7  91436798.02244  22329750.297                    22329757.258
 127214046.897 6  99127944.20643  24208010.313                    24208019.840
 111227144.824 7  86670543.48946  21165785.961                    21165791.113
 109872135.581 8  85614732.688 7  20907974.297                    20907981.402
 106645768.156 8  83100679.072 8  20293995.039                    20294002.387
 11  8 12  2 16  0.0000000  0  8G25G30G29G10G04G02G12G05
 114602011.124 8  89300291.370 7  21808030.609                    21808040.332
 112475946.798 8  87643659.39445  21403459.797                    21403467.660
 123719493.909 7  96404869.403 6  23543044.070                    23543052.238
 117430393.387 7  91504325.41944  22346241.250                    22346248.828
 127294514.578 6  99190646.29443  24223323.586                    24223332.625
 111259630.986 7  86695857.39446  21171968.109                    21171973.031
 109903015.697 7  85638795.114 7  20913850.523                    20913857.488
 106634087.077 8  83091576.950 8  20291772.117                    20291778.906
 11  8 12  2 16 30.0000000  0  8G25G30G29G10G04G02G12G05
 114566359.709 8  89272511.048 7  21801246.422                    21801255.961
 112469793.423 8  87638864.55045  21402288.367                    21402296.109
 123636322.957 7  96340060.933 6  23527216.680                    23527225.961
 117517408.207 7  91572129.16244  22362799.695                    22362807.082
 127374929.749 6  99253307.47543  24238625.242                    24238634.523
 111292238.362 8  86721265.75846  21178173.031                    21178178.047
 109934448.831 8  85663288.458 7  20919832.289                    20919839.414
 106622983.574 8  83082924.896 8  20289659.227                    20289666.457
 11  8 12  2 17  0.0000000  0  8G25G30G29G10G04G02G12G05
 114531262.404 8  89245162.502 7  21794567.477                    21794577.426
 112464254.023 8  87634548.11445  21401234.438                    21401241.934
 123553138.740 7  96275242.121 6  23511387.500                    23511396.707
 117604775.233 7  91640207.34544  22379425.109                    22379432.336
 127455291.893 6  99315927.28143  24253918.172                    24253927.090
 111324966.506 8  86746768.21146  21184400.875                    21184406.359
 109966434.099 8  85688212.040 7  20925918.594                    20925925.883
 106612457.477 8  83074722.762 8  20287656.109                    20287663.652
 11  8 12  2 17 30.0000000  0  8G25G30G29G10G04G02G12G05
 114496720.971 8  89218247.102 7  21787994.570                    21788003.938
 112459329.156 8  87630710.53546  21400297.523                    21400305.219
 123469942.883 6  96210414.241 6  23495556.336                    23495565.527
 117692491.751 7  91708557.86144  22396117.266                    22396124.277
 127535600.973 6  99378505.82843  24269200.555                    24269209.121
 111357815.380 8  86772364.74446  21190651.852                    21190657.020
 109998970.041 8  85713564.725 7  20932110.398                    20932117.328
 106602509.107 8  83066970.809 8  20285762.734                    20285770.336
 11  8 12  2 18  0.0000000  0  8G25G30G29G10G04G02G12G05
 114462735.833 8  89191765.191 7  21781527.484                    21781536.680
 112455017.814 8  87627351.04046  21399476.977                    21399484.816
 123386736.230 7  96145577.945 6  23479722.922                    23479731.168
 117780554.615 7  91777178.26544  22412874.469                    22412882.359
 127615856.280 6  99441042.38042  24284472.992                    24284481.660
 111390783.404 8  86798054.13146  21196924.977                    21196930.262
 110032054.963 8  85739345.187 7  20938406.117                    20938413.043
 106593137.754 8  83059668.482 8  20283979.609                    20283986.855
 11  8 12  2 18 30.0000000  0  9G25G30G29G26G10G04G02G12G05
 114429308.509 8  89165717.937 7  21775166.734                    21775176.543
 112451320.340 8  87624469.88645  21398772.977                    21398781.074
 123303520.297 6  96080734.412 6  23463887.156                    23463895.543
 130484176.40616 101676060.82253  24830321.656                    24830333.641
 117868960.960 7  91846066.31144  22429697.906                    22429705.406
 127696057.590 6  99503536.91442  24299734.297                    24299742.438
 111423870.384 8  86823836.20046  21203221.570                    21203227.145
 110065687.860 8  85765552.640 7  20944806.156                    20944812.676
 106584343.652 8  83052815.958 8  20282306.203                    20282313.453
 11  8 12  2 19  0.0000000  0  9G25G30G29G26G10G04G02G12G05
 114396439.632 8  89140105.839 7  21768911.414                    21768921.195
 112448235.971 7  87622066.48646  21398186.305                    21398194.203
 123220295.927 7  96015884.345 6  23448049.617                    23448059.102
 130390967.184 6 101603430.44143  24812584.484                    24812596.383
 117957707.741 7  91915219.62844  22446585.523                    22446593.508
 127776204.069 6  99565988.65642  24314985.695                    24314993.633
 111457075.332 7  86849710.19446  21209540.289                    21209545.527
 110099866.954 8  85792185.708 7  20951310.469                    20951317.277
 106576125.846 8  83046412.495 8  20280742.648                    20280749.711
 11  8 12  2 19 30.0000000  0  9G25G30G29G26G10G04G02G12G05
 114364130.056 8  89114929.568 7  21762763.336                    21762772.996
 112445764.217 8  87620140.43945  21397716.078                    21397723.840
 123137064.171 7  95951028.489 6  23432211.477                    23432220.184
 130297627.860 6 101530698.70442  24794822.719                    24794834.484
 118046791.811 7  91984635.76344  22463538.063                    22463545.957
 127856295.314 6  99628397.44542  24330227.086                    24330234.500
 111490397.156 7  86875675.25346  21215881.258                    21215886.387
 110134590.647 8  85819243.140 7  20957917.742                    20957924.930
 106568484.059 8  83040457.895 8  20279288.148                    20279295.336
 11  8 12  2 20  0.0000000  0  9G25G30G29G26G10G04G02G12G05
 114332381.664 8  89090190.575 7  21756721.828                    21756731.449
 112443905.540 8  87618692.12746  21397361.945                    21397369.914
 123053826.831 7  95886168.284 6  23416371.609                    23416380.117
 130204161.926 6 101457868.28643  24777036.219                    24777047.395
 118136211.025 7  92054313.05744  22480554.391                    22480561.559
 127936331.800 6  99690763.55242  24345457.477                    24345464.887
 111523836.371 7  86901731.80046  21222244.531                    21222250.113
 110169858.665 7  85846724.721 7  20964629.117                    20964636.480
 106561419.134 8  83034952.785 8  20277943.992                    20277951.035
 11  8 12  2 20 30.0000000  0  9G25G30G29G26G10G04G02G12G05
 114301195.214 8  89065889.463 7  21750786.719                    21750797.102
 112442659.492 8  87617721.17845  21397125.313                    21397132.742
 122970585.272 7  95821304.806 6  23400531.070                    23400539.977
 130110572.150 6 101384941.35742  24759226.883                    24759237.414
 118225962.185 7  92124249.01044  22497632.914                    22497641.094
 128016312.964 6  99753086.50243  24360677.313                    24360684.844
 111557392.051 7  86927879.09246  21228629.445                    21228635.137
 110205668.850 7  85874628.763 7  20971443.766                    20971450.516
 106554930.127 8  83029896.444 8  20276708.695                    20276716.301
 11  8 12  2 21  0.0000000  0  9G25G30G29G26G10G04G02G12G05
 114270571.631 8  89042026.948 7  21744959.703                    21744969.086
 112442025.501 8  87617227.16045  21397004.203                    21397012.617
 122887340.919 7  95756439.127 6  23384690.531                    23384698.832
 130016861.307 6 101311920.04342  24741394.078                    24741404.563
 118316042.413 7  92194441.39544  22514774.469                    22514782.176
 128096238.295 6  99815365.97442  24375886.711                    24375894.309
 111591063.415 8  86954116.52746  21235037.344                    21235042.832
 110242020.035 8  85902954.362 7  20978360.969                    20978368.270
 106549016.961 8  83025288.816 8  20275583.797                    20275590.969
 11  8 12  2 21 30.0000000  0  9G25G30G29G26G10G04G02G12G05
 114240511.924 8  89018603.824 7  21739239.352                    21739248.988
 112442003.352 8  87617209.89645  21397000.320                    21397008.551
 122804094.791 7  95691572.080 6  23368849.570                    23368857.773
 129923032.703 5 101238807.01342  24723538.820                    24723550.043
 118406448.978 7  92264888.04444  22531978.680                    22531986.723
 128176107.506 6  99877601.78142  24391084.945                    24391092.387
 111624849.988 7  86980443.73846  21241466.625                    21241471.551
 110278910.671 7  85931700.315 7  20985380.781                    20985388.324
 106543679.278 8  83021129.610 8  20274568.031                    20274575.023
 11  8 12  2 22  0.0000000  0  9G25G30G29G26G10G04G02G12G05
 114211017.052 8  88995620.812 7  21733626.680                    21733636.582
 112442592.539 8  87617669.00045  21397112.391                    21397120.125
 122720848.216 7  95626704.674 6  23353008.461                    23353016.242
 129829088.897 6 101165604.27543  24705662.961                    24705673.676
 118497178.980 7  92335586.73344  22549244.344                    22549251.895
 128255920.516 7  99939793.65543  24406273.367                    24406281.031
 111658751.090 7  87006860.18546  21247917.953                    21247923.039
 110316339.000 8  85960865.242 7  20992503.328                    20992510.707
 106538916.793 8  83017418.621 8  20273661.711                    20273669.297
 11  8 12  2 22 30.0000000  0  9G25G30G29G26G10G04G02G12G05
 114182087.978 8  88973078.687 7  21728121.508                    21728131.391
 112443792.698 8  87618604.18246  21397340.914                    21397348.574
 122637602.696 7  95561838.094 6  23337166.758                    23337174.680
 129735032.841 6 101092314.04143  24687763.758                    24687774.461
 118588229.412 7  92406535.09344  22566570.359                    22566578.207
 128335676.882 7 100001941.48043  24421449.914                    24421458.148
 111692766.228 7  87033365.49046  21254390.617                    21254396.176
 110354303.836 8  85990448.231 7  20999728.078                    20999734.820
 106534729.081 8  83014155.497 8  20272864.813                    20272872.043
 11  8 12  2 23  0.0000000  0  9G25G30G29G26G10G04G02G12G05
 114153725.461 8  88950978.031 7  21722724.289                    21722734.242
 112445603.233 7  87620014.99046  21397685.406                    21397693.289
 122554359.335 7  95496973.212 6  23321325.633                    23321334.609
 129640867.448 6 101018938.56143  24669844.555                    24669855.516
 118679597.134 7  92477730.70744  22583957.047                    22583964.699
 128415376.261 7 100064044.89143  24436616.961                    24436624.262
 111726894.563 7  87059958.99146  21260884.828                    21260890.141
 110392803.370 8  86020447.859 7  21007053.727                    21007061.145
 106531115.385 8  83011339.657 8  20272177.031                    20272184.293
 11  8 12  2 23 30.0000000  0  9G25G30G29G26G10G04G02G12G05
 114125930.272 7  88929319.465 7  21717435.055                    21717445.406
 112448023.493 7  87621900.89745  21398146.063                    21398153.898
 122471119.561 6  95432111.108 6  23305485.820                    23305494.199
 129546595.595 6 100945480.11043  24651904.500                    24651916.230
 118771279.621 6  92549171.59044  22601403.359                    22601411.590
 128495018.274 7 100126103.55443  24451772.781                    24451779.934
 111761135.527 7  87086640.27046  21267400.859                    21267405.719
 110431836.049 8  86050862.927 7  21014481.680                    21014489.172
 106528075.477 8  83008970.929 8  20271598.641                    20271605.902
 11  8 12  2 24  0.0000000  0  9G25G30G29G26G10G04G02G12G05
 114098703.549 8  88908103.849 7  21712254.070                    21712264.250
 112451053.304 8  87624261.79346  21398722.531                    21398730.633
 122387884.590 6  95367252.754 6  23289646.805                    23289655.563
 129452220.454 6 100871941.20643  24633945.336                    24633957.199
 118863273.982 6  92620855.47344  22618909.820                    22618917.730
 128574602.993 6 100188117.63743  24466916.281                    24466924.496
 111795488.622 8  87113408.91646  21273938.070                    21273943.074
 110471400.231 8  86081692.150 7  21022010.719                    21022017.777
 106525609.196 8  83007049.184 8  20271129.047                    20271136.516
 11  8 12  2 24 30.0000000  0  9G25G30G29G26G10G04G02G12G05
 114072045.964 8  88887331.734 7  21707181.250                    21707191.285
 112454691.846 8  87627097.01545  21399414.977                    21399422.949
 122304655.967 6  95302399.341 6  23273808.430                    23273817.266
 129357744.906 6 100798324.06443  24615967.914                    24615979.160
 118955577.218 7  92692780.05544  22636474.109                    22636481.867
 128654129.788 6 100250086.55643  24482049.914                    24482058.422
 111829953.433 7  87140264.60746  21280496.953                    21280501.867
 110511494.486 8  86112934.412 7  21029640.445                    21029647.730
 106523715.721 8  83005573.775 8  20270768.797                    20270776.488
 11  8 12  2 25  0.0000000  0  9G25G30G29G26G10G04G02G12G05
 114045958.592 8  88867003.913 7  21702217.086                    21702226.750
 112458938.967 8  87630406.46846  21400222.805                    21400230.727
 122221435.494 6  95237552.267 6  23257971.828                    23257980.973
 129263172.010 6 100724631.08843  24597971.078                    24597981.723
 119048186.643 6  92764943.24644  22654096.977                    22654104.688
 128733598.862 6 100312010.51543  24497171.852                    24497180.875
 111864529.578 8  87167207.05446  21287076.477                    21287081.516
 110552117.232 8  86144588.484 7  21037370.703                    21037377.883
 106522395.089 8  83004544.732 8  20270517.133                    20270524.934
 11  8 12  2 25 30.0000000  0  9G25G30G29G26G10G04G02G12G05
 114020441.963 8  88847120.825 7  21697361.297                    21697371.172
 112463793.709 8  87634189.39845  21401146.516                    21401154.879
 122138224.142 6  95172712.296 6  23242137.820                    23242146.801
 129168504.585 6 100650864.40843  24579956.492                    24579967.270
 119141099.190 6  92837342.61944  22671778.102                    22671785.570
 128813009.722 6 100373889.07343  24512284.109                    24512292.180
 111899216.511 8  87194235.82446  21293676.930                    21293682.199
 110593266.814 8  86176653.082 7  21045201.266                    21045208.137
 106521646.372 8  83003961.346 8  20270375.344                    20270382.535
 11  8 12  2 26  0.0000000  0  9G25G30G29G26G10G04G02G12G05
 113995496.363 8  88827682.690 7  21692614.594                    21692624.625
 112469254.999 8  87638444.93746  21402185.977                    21402193.816
 122055022.874 6  95107880.175 6  23226304.875                    23226313.660
 129073745.717 6 100577026.56843  24561924.391                    24561934.926
 119234311.595 6  92909975.64544  22689515.906                    22689523.598
 128892361.489 6 100435721.65143  24527383.375                    24527392.672
 111934013.080 8  87221350.02346  21300298.414                    21300303.762
 110634941.290 8  86209126.690 7  21053131.266                    21053138.500
 106521468.635 8  83003822.873 8  20270341.102                    20270348.551
 11  8 12  2 26 30.0000000  0  9G25G30G29G26G10G04G02G12G05
 113971122.945 8  88808690.408 7  21687976.289                    21687986.332
 112475322.590 8  87643172.92645  21403340.523                    21403348.887
 121971833.436 6  95043057.287 6  23210475.031                    23210483.395
 128978898.064 7 100503119.51243  24543875.063                    24543885.648
 119327821.366 6  92982840.38844  22707310.406                    22707318.055
 128971654.502 6 100497508.35843  24542472.758                    24542481.660
 111968919.092 7  87248549.51046  21306941.063                    21306945.758
 110677138.810 8  86242007.855 7  21061161.164                    21061168.793
 106521861.717 8  83004129.203 8  20270416.109                    20270422.918
 11  8 12  2 27  0.0000000  0  9G25G30G29G26G10G04G02G12G05
 113947322.381 8  88790144.517 7  21683447.180                    21683457.098
 112481995.678 7  87648372.72245  21404610.477                    21404618.523
 121888657.419 7  94978244.854 6  23194646.555                    23194655.188
 128883964.630 6 100429145.55843  24525810.023                    24525820.219
 119421625.451 6  93055934.47144  22725160.188                    22725168.215
 129050888.367 6 100559249.05642  24557550.438                    24557559.379
 112003933.880 7  87275833.74746  21313603.898                    21313609.402
 110719858.147 8  86275295.625 7  21069290.539                    21069297.645
 106522824.859 8  83004879.726 8  20270599.586                    20270606.688
 11  8 12  2 27 30.0000000  0  9G25G30G29G26G10G04G02G12G05
 113924095.153 8  88772045.368 7  21679026.914                    21679037.000
 112489273.439 8  87654043.70445  21405995.383                    21406003.395
 121805495.983 7  94913443.743 6  23178822.133                    23178829.805
 128788948.582 7 100355107.26643  24507728.773                    24507739.277
 119515720.871 6  93129255.55244  22743066.094                    22743073.535
 129130062.890 6 100620943.43642  24572616.898                    24572625.461
 112039056.927 7  87303202.36045  21320287.609                    21320292.828
 110763096.886 8  86308988.130 7  21077518.602                    21077525.895
 106524357.298 8  83006073.861 8  20270891.078                    20270897.863
 11  8 12  2 28  0.0000000  0  9G25G30G29G26G10G04G02G12G05
 113901442.277 8  88754393.760 7  21674716.609                    21674726.375
 112497155.430 8  87660185.51346  21407495.234                    21407503.445
 121722350.816 7  94848655.313 6  23162999.609                    23163008.348
 128693853.421 6 100281007.33443  24489632.078                    24489642.691
 119610104.951 6  93202801.55444  22761026.773                    22761034.578
 129209178.062 6 100682591.63342  24587670.500                    24587680.527
 112074287.999 7  87330655.13646  21326992.320                    21326997.039
 110806853.588 8  86343084.246 7  21085845.680                    21085852.402
 106526458.724 8  83007711.358 8  20271290.906                    20271298.215
 11  8 12  2 28 30.0000000  0  9G25G30G29G26G10G04G02G12G05
 113879364.079 8  88737189.954 7  21670515.227                    21670524.914
 112505640.684 7  87666797.39645  21409109.930                    21409117.766
 121639222.971 7  94783880.393 6  23147180.859                    23147189.242
 128598681.885 6 100206847.82043  24471521.891                    24471531.336
 119704774.863 6  93276570.31144  22779041.836                    22779049.750
 129288233.388 6 100744193.15642  24602715.750                    24602724.469
 112109626.376 7  87358191.54346  21333716.781                    21333722.172
 110851126.512 8  86377582.619 7  21094270.227                    21094277.676
 106529128.332 8  83009791.597 8  20271798.781                    20271806.180
 11  8 12  2 29  0.0000000  0  9G25G30G29G26G10G04G02G12G05
 113857861.311 8  88720434.547 7  21666423.727                    21666433.098
 112514728.378 8  87673878.72845  21410839.344                    21410847.223
 121556114.207 6  94719120.329 6  23131365.969                    23131374.535
 128503436.971 6 100132631.17943  24453396.992                    24453406.855
 119799727.187 6  93350559.13344  22797110.945                    22797119.094
 129367228.835 6 100805748.02443  24617747.539                    24617756.719
 112145072.075 7  87385811.55846  21340461.813                    21340467.039
 110895913.830 8  86412481.816 7  21102793.109                    21102799.941
 106532365.598 8  83012314.170 8  20272414.977                    20272422.094
 11  8 12  2 29 30.0000000  0  9G25G30G29G26G10G04G02G12G05
 113836934.398 8  88704127.852 7  21662441.367                    21662451.105
 112524417.638 8  87681428.80846  21412682.914                    21412691.227
 121473025.902 7  94654376.210 6  23115555.273                    23115562.730
 128408121.690 6 100058359.65743  24435259.180                    24435268.457
 119894959.302 7  93424765.94844  22815232.391                    22815240.777
 129446164.095 6 100867256.05342  24632769.000                    24632777.766
 112180623.872 7  87413514.25146  21347226.945                    21347232.434
 110941213.702 8  86447780.406 7  21111413.570                    21111420.551
 106536169.555 7  83015278.317 8  20273138.594                    20273145.730
 11  8 12  2 30  0.0000000  0  9G25G30G29G26G10G04G02G12G05
 113816584.004 8  88688270.392 7  21658568.695                    21658578.422
 112534707.640 8  87689446.99946  21414641.438                    21414649.480
 121389959.669 6  94589649.273 6  23099747.891                    23099756.020
 128312739.126 6  99984035.77543  24417108.148                    24417118.188
 119990468.629 7  93499188.79544  22833408.266                    22833414.965
 129525039.105 6 100928717.12142  24647777.203                    24647787.375
 112216281.455 8  87441299.38546  21354012.477                    21354017.527
 110987024.127 8  86483476.827 7  21120130.563                    21120137.711
 106540539.557 8  83018683.543 8  20273970.141                    20273977.074
 11  8 12  2 30 30.0000000  0  9G25G30G29G26G10G04G02G12G05
 113796810.404 8  88672862.394 7  21654805.984                    21654815.668
 112545597.216 8  87697932.40145  21416713.984                    21416721.047
 121306916.731 6  94524940.516 6  23083944.609                    23083953.875
 128217292.171 6  99909661.62942  24398945.719                    24398955.297
 120086251.754 7  93573824.99144  22851634.883                    22851641.820
 129603853.290 6 100990130.77542  24662775.461                    24662785.543
 112252044.055 8  87469166.34446  21360817.492                    21360823.078
 111033343.057 8  86519569.490 7  21128945.117                    21128951.988
 106545474.273 8  83022528.796 8  20274909.172                    20274916.344
 11  8 12  2 31  0.0000000  0  9G25G30G29G26G10G04G02G12G05
 113777614.278 8  88657904.377 7  21651153.039                    21651162.754
 112557085.742 8  87706884.51145  21418899.586                    21418907.188
 121223898.874 7  94460251.293 6  23068147.867                    23068155.516
 128121784.276 6  99835240.02242  24380771.266                    24380780.496
 120182306.154 7  93648672.54544  22869913.297                    22869921.172
 129682606.827 6 101051497.18742  24677762.570                    24677772.176
 112287911.536 8  87497115.03546  21367643.070                    21367648.398
 111080169.280 8  86556057.440 7  21137855.648                    21137863.059
 106550973.703 8  83026814.093 8  20275955.609                    20275963.055
 11  8 12  2 31 30.0000000  0  8G25G30G29G26G10G02G12G05
 113758996.472 8  88643396.995 7  21647610.242                    21647619.973
 112569172.524 8  87716302.77645  21421199.781                    21421207.410
 121140907.720 7  94395582.856 6  23052354.570                    23052362.867
 128026218.716 6  99760773.50543  24362584.969                    24362594.996
 120278629.061 7  93723729.34844  22888242.906                    22888251.160
 112323883.895 8  87525145.45146  21374488.609                    21374493.289
 111127500.649 8  86592939.026 7  21146862.977                    21146869.805
 106557037.042 8  83031538.802 8  20277109.391                    20277116.418
 11  8 12  2 32  0.0000000  0  8G25G30G29G26G10G02G12G05
 113740957.081 8  88629340.364 7  21644177.227                    21644187.215
 112581856.244 8  87726186.20945  21423613.906                    21423621.754
 121057944.515 7  94330936.222 6  23036567.422                    23036575.824
 127930598.385 6  99686264.30943  24344388.313                    24344399.250
 120375217.504 7  93798993.06244  22906623.109                    22906631.465
 112359960.368 8  87553256.99146  21381353.250                    21381358.707
 111175335.337 8  86630212.796 7  21155964.781                    21155972.324
 106563663.143 8  83036702.017 8  20278370.414                    20278377.383
 11  8 12  2 32 30.0000000  0  8G25G30G29G26G10G02G12G05
 113723496.453 8  88615734.725 7  21640854.789                    21640864.234
 112595135.883 8  87736534.00645  21426140.359                    21426148.289
 120975010.800 7  94266312.568 6  23020785.500                    23020793.613
 127834926.340 6  99611714.81043  24326182.789                    24326193.563
 120472068.416 7  93874461.28444  22925053.352                    22925061.531
 112396140.064 8  87581448.97846  21388238.414                    21388243.777
 111223670.808 8  86667876.796 7  21165162.969                    21165170.230
 106570851.200 8  83042303.121 8  20279738.336                    20279745.098
 11  8 12  2 33  0.0000000  0  8G25G30G29G26G10G02G12G05
 113706614.839 8  88602580.269 7  21637642.289                    21637651.887
 112609010.280 8  87747345.24646  21428780.883                    21428788.668
 120892107.770 7  94201712.832 6  23005009.492                    23005018.090
 127739205.651 6  99537127.40643  24307967.805                    24307977.586
 120569179.007 7  93950131.86544  22943532.219                    22943540.254
 112432422.651 8  87609721.12446  21395142.867                    21395148.270
 111272505.084 8  86705929.480 7  21174455.914                    21174463.367
 106578600.043 8  83048341.206 8  20281212.609                    20281219.742
 11  8 12  2 33 30.0000000  0  8G25G30G29G26G10G02G12G05
 113690312.762 8  88589877.415 7  21634540.055                    21634550.016
 112623478.369 8  87758619.11346  21431533.664                    21431541.434
 120809237.333 7  94137138.507 6  22989240.023                    22989247.992
 127643439.575 6  99462504.67243  24289743.617                    24289753.973
 120666546.327 7  94026002.48244  22962060.617                    22962068.746
 112468808.000 8  87638073.35046  21402066.203                    21402071.926
 111321836.519 8  86744369.547 7  21183843.344                    21183850.566
 106586909.089 8  83054815.808 8  20282793.945                    20282801.109
 11  8 12  2 34  0.0000000  0  8G25G30G29G26G10G02G12G05
 113674590.436 8  88577626.310 7  21631548.156                    21631557.977
 112638539.175 8  87770354.81445  21434399.820                    21434407.547
 120726400.962 7  94072590.747 6  22973476.313                    22973484.855
 127547631.164 6  99387848.94543  24271511.969                    24271522.703
 120764167.301 6  94102070.75244  22980637.656                    22980645.223
 112505295.372 8  87666505.08146  21409010.250                    21409015.031
 111371663.075 8  86783195.438 7  21193324.758                    21193331.949
 106595777.179 8  83061726.035 8  20284481.711                    20284488.473
 11  8 12  2 34 30.0000000  0  8G25G30G29G26G10G02G12G05
 113659448.192 8  88565827.216 7  21628666.383                    21628676.148
 112654191.493 8  87782551.44645  21437378.352                    21437386.027
 120643600.292 7  94008070.795 6  22957720.438                    22957728.176
 127451783.588 6  99313162.66543  24253273.688                    24253283.359
 120862039.284 7  94178334.62344  22999262.109                    22999269.867
 112541884.506 7  87695016.10646  21415972.422                    21415977.902
 111421982.437 8  86822405.322 7  21202900.445                    21202907.906
 106605203.239 8  83069071.032 8  20286274.953                    20286282.344
 11  8 12  2 35  0.0000000  0  8G25G30G29G26G10G02G12G05
 113644886.313 8  88554480.327 7  21625895.250                    21625905.109
 112670434.117 8  87795208.04046  21440468.844                    21440476.867
 120560836.933 7  93943579.903 6  22941970.859                    22941978.586
 127355900.082 6  99238448.37443  24235027.164                    24235037.223
 120960159.472 6  94254791.90843  23017933.680                    23017941.648
 112578575.042 8  87723606.15646  21422954.531                    21422959.652
 111472792.432 8  86861997.523 7  21212569.125                    21212576.605
 106615186.550 8  83076850.247 8  20288174.773                    20288181.754
 11  8 12  2 35 30.0000000  0  8G25G30G29G26G10G02G12G05
 113630905.161 8  88543585.972 7  21623235.109                    21623244.754
 112687266.092 8  87808323.87345  21443672.195                    21443680.008
 120478112.275 7  93879119.172 7  22926228.805                    22926237.234
 127259983.862 6  99163708.61243  24216773.984                    24216784.973
 121058524.946 6  94331440.32644  23036652.555                    23036660.242
 112615366.451 8  87752274.80045  21429955.820                    21429961.676
 111524091.494 8  86901970.803 7  21222331.313                    21222338.688
 106625726.152 8  83085062.940 8  20290180.328                    20290187.313
 11  8 12  2 36  0.0000000  0  8G25G30G29G26G10G02G12G05
 113617505.182 8  88533144.453 7  21620685.047                    21620694.691
 112704686.334 8  87821898.07846  21446986.922                    21446994.902
 120395428.042 7  93814689.971 6  22910494.609                    22910502.422
 127164038.363 6  99088945.98544  24198516.789                    24198526.582
 121157133.218 6  94408277.92444  23055416.727                    23055424.555
 112652258.824 8  87781022.11046  21436976.031                    21436980.871
 111575877.754 8  86942323.731 7  21232185.758                    21232192.875
 106636821.438 8  83093708.635 8  20292291.898                    20292298.668
 11  8 12  2 36 30.0000000  0  8G25G30G29G26G10G02G12G05
 113604686.182 8  88523155.662 7  21618245.945                    21618254.922
 112722693.348 8  87835929.51445  21450414.086                    21450421.645
 120312785.981 7  93750293.620 6  22894768.484                    22894775.813
 127068066.457 6  99014162.77243  24180253.320                    24180263.754
 121255980.678 6  94485301.91844  23074226.711                    23074234.523
 112689251.028 8  87809847.21946  21444015.156                    21444020.371
 111628148.607 8  86983054.273 7  21242132.664                    21242139.480
 106648470.699 8  83102786.000 8  20294508.867                    20294515.711
 11  8 12  2 37  0.0000000  0  8G25G30G29G26G10G02G12G05
 113592448.536 8  88513619.863 7  21615916.977                    21615926.500
 112741286.051 8  87850417.33446  21453951.703                    21453959.430
 120230187.482 7  93685931.222 6  22879050.000                    22879058.094
 126972071.613 7  98939361.69244  24161986.758                    24161995.895
 121355064.651 6  94562510.17943  23093081.539                    23093089.059
 112726343.055 8  87838750.10246  21451073.813                    21451078.828
 111680901.799 8  87024160.645 7  21252171.719                    21252178.402
 106660672.951 8  83112294.266 8  20296830.820                    20296837.445
 11  8 12  2 37 30.0000000  0  8G25G30G29G26G10G02G12G05
 113580792.312 8  88504537.106 7  21613698.672                    21613708.512
 112760462.935 8  87865360.35546  21457600.961                    21457609.129
 120147634.123 7  93621603.984 6  22863340.445                    22863347.965
 126876056.761 7  98864545.04443  24143715.328                    24143724.969
 121454382.384 6  94639900.60943  23111980.773                    23111989.309
 112763534.178 8  87867730.20446  21458151.070                    21458156.102
 111734135.397 8  87065641.379 7  21262301.148                    21262308.563
 106673427.054 8  83122232.538 8  20299257.492                    20299264.453
 11  8 12  2 38  0.0000000  0  8G25G30G29G26G10G02G12G05
 113569717.783 8  88495907.616 7  21611591.047                    21611601.207
 112780222.945 8  87880757.76545  21461361.313                    21461369.273
 120065127.627 7  93557313.258 6  22847639.938                    22847647.867
 126780025.403 6  98789715.46243  24125441.031                    24125450.648
 121553931.395 7  94717471.28944  23130924.875                    23130932.555
 112800824.696 8  87896787.76846  21465246.930                    21465252.574
 111787847.461 8  87107494.929 7  21272522.555                    21272529.523
 106686732.288 8  83132600.266 8  20301789.727                    20301796.664
 11  8 12  2 38 30.0000000  0  8G25G30G29G26G10G02G12G05
 113559224.803 8  88487731.261 7  21609594.313                    21609604.340
 112800564.583 8  87896608.39346  21465232.172                    21465240.109
 119982669.982 7  93493060.608 6  22831948.063                    22831956.523
 126683980.670 6  98714875.49843  24107163.969                    24107173.469
 121653708.564 6  94795219.70844  23149911.898                    23149919.723
 112838213.987 8  87925922.28346  21472361.961                    21472367.555
 111842035.403 8  87149719.290 7  21282834.094                    21282841.125
 106700587.378 8  83143396.456 8  20304426.086                    20304433.234
 11  8 12  2 39  0.0000000  0  8G25G30G29G26G10G02G12G05
 113549313.556 8  88480008.203 7  21607708.547                    21607717.992
 112821486.482 8  87912911.13846  21469213.914                    21469221.332
 119900262.489 7  93428847.046 7  22816266.977                    22816275.473
 126587925.867 6  98640027.71943  24088885.180                    24088894.719
 121753710.794 7  94873143.51944  23168941.578                    23168948.938
 112875701.329 8  87955133.20346  21479495.875                    21479500.957
 111896697.440 8  87192313.072 7  21293235.883                    21293242.969
 106714990.725 8  83154619.847 8  20307166.961                    20307173.945
 11  8 12  2 39 30.0000000  0  8G25G30G29G26G10G02G12G05
 113539984.038 8  88472738.439 7  21605933.133                    21605942.742
 112842987.187 8  87929664.91646  21473304.828                    21473312.895
 119817906.566 7  93364673.665 7  22800595.086                    22800603.410
 126491864.121 6  98565174.50743  24070605.477                    24070615.082
 121853935.380 7  94951240.60544  23188014.180                    23188021.973
 112913286.499 8  87984420.34046  21486647.977                    21486653.074
 111951830.763 8  87235274.098 7  21303727.219                    21303734.758
 106729941.414 8  83166269.744 8  20310011.805                    20310018.840
 11  8 12  2 40  0.0000000  0  8G25G30G29G26G10G02G12G05
 113531236.430 8  88465922.114 7  21604268.414                    21604277.570
 112865065.485 8  87946868.76646  21477506.133                    21477514.023
 119735604.085 7  93300541.935 7  22784933.742                    22784941.805
 126395798.962 6  98490318.63343  24052324.773                    24052334.184
 121954379.788 6  95029508.96943  23207127.430                    23207135.910
 112950969.499 8  88013783.72746  21493818.750                    21493824.090
 112007433.462 8  87278600.856 7  21314308.195                    21314315.473
 106745438.534 8  83178345.432 8  20312960.742                    20312967.934
 11  8 12  2 40 30.0000000  0  8G25G30G29G26G10G02G12G05
 113523070.693 8  88459559.186 7  21602714.672                    21602723.918
 112887720.055 8  87964521.66246  21481817.445                    21481825.605
 119653357.093 7  93236453.433 7  22769282.719                    22769290.934
 126299733.633 6  98415462.62443  24034043.148                    24034053.621
 122055041.112 7  95107946.33943  23226282.898                    23226291.047
 112988749.806 8  88043222.92846  21501008.016                    21501013.535
 112063503.391 8  87322291.702 7  21324978.086                    21324985.086
 106761480.824 8  83190845.923 8  20316013.688                    20316020.668
 11  8 12  2 41  0.0000000  0  8G25G30G29G26G10G02G12G05
 113515486.788 8  88453649.624 7  21601271.891                    21601281.125
 112910949.282 8  87982622.35145  21486237.930                    21486245.461
 119571166.940 7  93172409.225 7  22753642.406                    22753650.629
 126203671.375 6  98340609.02243  24015763.766                    24015773.727
 122155916.269 7  95186550.36343  23245479.086                    23245486.852
 113026627.130 8  88072737.72745  21508216.078                    21508221.289
 112120038.289 8  87366344.865 7  21335736.273                    21335743.391
 106778066.828 8  83203770.094 8  20319169.945                    20319176.465
 11  8 12  2 41 30.0000000  0  8G25G30G29G26G10G02G12G05
 113508484.806 8  88448193.512 7  21599938.906                    21599948.551
 112934751.830 8  88001169.77546  21490767.438                    21490774.926
 119489035.467 7  93108410.755 7  22738013.125                    22738021.078
 126107615.749 6  98265760.60243  23997484.727                    23997494.805
 122257002.854 6  95265319.10743  23264714.766                    23264723.086
 113064601.035 8  88102327.77946  21515442.117                    21515447.156
 112177035.853 8  87410758.538 7  21346582.414                    21346589.910
 106795195.749 8  83217117.316 8  20322429.461                    20322436.227
 11  8 12  2 42  0.0000000  0  8G25G30G29G26G10G02G12G05
 113502064.334 8  88443190.540 7  21598717.188                    21598726.813
 112959125.879 7  88020162.52045  21495405.609                    21495413.367
 119406964.106 7  93044459.123 7  22722395.516                    22722403.406
 126011569.923 6  98190919.79843  23979207.625                    23979217.215
 122358297.547 7  95344250.02343  23283991.750                    23283998.566
 113102671.092 8  88131992.74946  21522686.609                    21522691.996
 112234493.700 7  87455530.882 7  21357516.195                    21357523.570
 106812865.793 8  83230886.194 8  20325791.773                    20325798.680
 11  8 12  2 42 30.0000000  0  8G25G30G29G26G10G02G12G05
 113496225.504 8  88438640.780 7  21597606.031                    21597616.215
 112984070.131 8  88039599.60645  21500152.477                    21500160.422
 119324954.863 7  92980555.900 6  22706789.766                    22706797.160
 125915537.038 6  98116089.05943  23960933.781                    23960942.898
 122459797.764 6  95423341.09943  23303304.867                    23303312.977
 113140837.358 8  88161732.68945  21529949.508                    21529955.039
 112292409.503 7  87500660.061 7  21368537.500                    21368544.938
 106831075.843 8  83245075.864 8  20329257.031                    20329264.188
 11  8 12  2 43  0.0000000  0  8G25G30G29G26G10G02G12G05
 113490967.886 8  88434543.917 7  21596605.406                    21596615.199
 113009582.757 7  88059479.55746  21505007.078                    21505014.867
 119243009.374 7  92916702.355 6  22691195.289                    22691203.602
 125819520.345 6  98041270.97343  23942662.133                    23942671.773
 122561500.695 7  95502590.11143  23322658.875                    23322666.813
 113179099.174 8  88191547.08646  21537230.891                    21537235.852
 112350780.534 7  87546143.976 7  21379645.078                    21379652.207
 106849824.264 8  83259685.031 8  20332825.172                    20332831.992
 11  8 12  2 43 30.0000000  0  8G25G30G29G26G10G02G12G05
 113486291.633 8  88430900.081 7  21595715.930                    21595725.078
 113035662.472 8  88079801.40846  21509969.891                    21509977.418
 119161129.250 7  92852899.729 7  22675614.227                    22675622.516
 125723523.576 6  97966468.42843  23924394.383                    23924404.148
 122663403.565 7  95581994.95743  23342050.344                    23342058.352
 113217456.547 8  88221435.94645  21544529.695                    21544534.477
 112409605.062 7  87591981.250 7  21390838.766                    21390846.539
 106869110.202 8  83274713.049 8  20336494.828                    20336501.508
 11  8 12  2 44  0.0000000  0  8G25G30G29G26G10G02G12G05
 113482196.452 8  88427709.024 7  21594936.391                    21594946.355
 113062307.500 7  88100563.76746  21515040.109                    21515048.090
 119079316.545 7  92789149.654 7  22660045.664                    22660053.934
 125627549.822 6  97891683.82243  23906130.992                    23906140.840
 122765503.567 6  95661553.39943  23361478.859                    23361487.344
 113255909.051 8  88251398.93345  21551846.875                    21551851.770
 112468880.531 7  87638169.917 7  21402118.633                    21402126.184
 106888932.115 8  83290158.716 8  20340266.734                    20340273.711
 11  8 12  2 44 30.0000000  0  8G25G30G29G26G10G02G12G05
 113478682.132 8  88424970.591 7  21594267.852                    21594277.480
 113089516.315 8  88121765.43046  21520218.313                    21520225.793
 118997572.772 7  92725453.278 7  22644490.375                    22644498.383
 125531602.658 6  97816919.90044  23887873.133                    23887882.762
 122867797.724 7  95741263.12144  23380946.102                    23380954.098
 113294456.380 8  88281435.80445  21559182.203                    21559187.375
 112528604.658 7  87684708.182 7  21413483.836                    21413491.176
 106909288.644 8  83306020.955 8  20344140.250                    20344147.246
 11  8 12  2 45  0.0000000  0  8G25G30G29G26G10G02G12G05
 113475748.463 8  88422684.612 7  21593709.047                    21593719.176
 113117287.301 8  88143405.15845  21525502.625                    21525510.734
 118915899.866 7  92661812.104 6  22628948.453                    22628956.410
 125435685.254 6  97742179.21243  23869620.180                    23869630.293
 122970283.617 7  95821122.25443  23400447.859                    23400456.438
 113333098.550 8  88311546.57745  21566535.180                    21566540.457
 112588774.930 7  87731594.084 7  21424934.063                    21424941.297
 106930178.496 8  83322298.780 8  20348115.742                    20348122.652
 11  8 12  2 45 30.0000000  0  8G25G30G29G26G10G02G12G05
 113473395.395 8  88420851.043 7  21593261.750                    21593271.547
 113145618.887 7  88165481.71945  21530893.625                    21530901.883
 118834299.588 7  92598227.539 7  22613420.391                    22613428.090
 125339801.270 6  97667464.54944  23851374.055                    23851384.203
 123072958.268 7  95901128.46443  23419985.938                    23419994.188
 113371834.955 8  88341730.77745  21573907.008                    21573911.699
 112649388.988 7  87778825.800 7  21436468.195                    21436475.441
 106951600.343 8  83338991.161 8  20352192.094                    20352198.785
 11  8 12  2 46  0.0000000  0  8G25G30G29G26G10G02G12G05
 113471622.265 8  88419469.385 7  21592924.500                    21592933.707
 113174509.057 7  88187993.53346  21536391.563                    21536399.430
 118752773.589 7  92534700.852 7  22597906.250                    22597914.324
 125243953.742 6  97592778.27943  23833134.922                    23833144.387
 123175818.786 7  95981279.52343  23439560.273                    23439567.699
 113410665.690 8  88371988.49745  21581295.859                    21581301.074
 112710444.108 7  87826401.206 7  21448086.961                    21448094.465
 106973552.286 8  83356096.587 8  20356369.672                    20356376.520
 11  8 12  2 46 30.0000000  0  8G25G30G29G26G10G02G12G05
 113470428.850 8  88418539.462 7  21592696.891                    21592706.430
 113203956.208 7  88210939.35445  21541995.219                    21542003.121
 118671323.826 7  92471233.563 7  22582406.773                    22582414.563
 125148146.182 6  97518123.14244  23814903.086                    23814913.090
 123278862.756 7  96061573.51043  23459168.789                    23459176.207
 113449590.302 8  88402319.36445  21588703.016                    21588708.473
 112771938.138 7  87874318.617 7  21459788.727                    21459796.234
 106996033.267 8  83373614.254 8  20360647.375                    20360654.266
 11  8 12  2 47  0.0000000  0  8G25G30G29G26G10G02G12G05
 113469814.765 8  88418060.979 7  21592580.352                    21592589.820
 113233958.551 7  88234317.80346  21547704.352                    21547712.590
 118589951.858 7  92407826.893 7  22566922.695                    22566930.613
 125052382.027 6  97443501.83244  23796680.359                    23796689.297
 123382086.912 7  96142007.90543  23478811.375                    23478819.094
 113488608.307 8  88432723.01345  21596128.055                    21596133.449
 112833868.375 7  87922575.939 7  21471573.586                    21471580.750
 107019041.383 8  83391542.681 8  20365025.953                    20365032.352
 11  8 12  2 47 30.0000000  0  8G25G30G29G26G10G02G12G05
 113469779.567 8  88418033.562 7  21592573.289                    21592582.953
 113264514.204 7  88258127.41345  21553518.977                    21553527.098
 118508659.576 7  92344482.319 7  22551453.242                    22551461.133
 124956664.537 6  97368916.87743  23778465.211                    23778474.813
 123485488.810 7  96222580.80543  23498487.922                    23498496.336
 113527719.655 8  88463199.38545  21603570.484                    21603575.281
 112896232.869 7  87971171.636 7  21483441.297                    21483448.375
 107042575.318 8  83409880.843 8  20369503.938                    20369511.105
 11  8 12  2 48  0.0000000  0  8G25G30G29G26G10G02G12G05
 113470322.935 8  88418456.963 7  21592676.945                    21592686.918
 113295621.532 8  88282366.89545  21559438.805                    21559446.496
 118427448.956 7  92281201.363 7  22535999.203                    22536006.762
 124860997.344 6  97294371.09743  23760259.625                    23760269.797
 123589065.658 7  96303290.03143  23518198.961                    23518206.301
 113566924.240 8  88493748.41545  21611031.484                    21611036.313
 112959028.315 7  88020103.145 7  21495390.984                    21495398.223
 107066633.633 8  83428627.603 8  20374081.945                    20374088.906
 11  8 12  2 48 30.0000000  0  8G25G30G29G26G10G02G12G05
 113471444.597 8  88419330.982 7  21592890.234                    21592900.246
 113327278.801 7  88307034.89345  21565462.891                    21565470.637
 118346321.724 7  92217985.379 6  22520561.297                    22520568.609
 124765383.993 6  97219867.28743  23742064.797                    23742075.414
 123692814.747 7  96384133.46743  23537940.766                    23537949.152
 113606221.862 8  88524369.95245  21618509.281                    21618514.199
 113022252.882 7  88069369.032 7  21507421.695                    21507429.336
 107091215.031 8  83447781.960 8  20378759.531                    20378766.727
 11  8 12  2 49  0.0000000  0  8G25G30G29G26G10G02G12G05
 113473144.232 8  88420655.377 7  21593214.055                    21593223.426
 113359484.309 7  88332130.09846  21571591.336                    21571599.051
 118265279.815 7  92154835.881 7  22505139.688                    22505147.027
 124669827.727 6  97145407.95343  23723882.109                    23723891.176
 123796733.294 7  96465108.93243  23557715.195                    23557724.258
 113645612.439 8  88555063.92945  21626004.813                    21626010.152
 113085904.067 7  88118967.342 7  21519534.500                    21519541.531
 107116318.009 8  83467342.751 8  20383536.703                    20383543.488
 11  8 12  2 49 30.0000000  0  8G25G30G29G26G10G02G12G05
 113475420.954 8  88422429.436 7  21593646.961                    21593656.340
 113392235.811 8  88357650.74345  21577823.227                    21577831.316
 118184325.062 7  92091754.318 7  22489734.023                    22489741.316
 124574332.089 6  97070995.83743  23705709.688                    23705718.309
 123900818.677 7  96546214.42943  23577522.992                    23577530.680
 113685095.407 8  88585829.89945  21633518.094                    21633523.137
 113149979.101 7  88168895.939 7  21531727.633                    21531734.984
 107141940.615 8  83487308.425 8  20388412.492                    20388419.547
 11  8 12  2 50  0.0000000  0  9G25G30G15G29G26G10G02G12G05
 113478274.318 8  88424652.829 7  21594190.117                    21594200.012
 113425531.420 8  88383595.36945  21584159.531                    21584167.434
 129381387.77316 100816712.11916  24620466.828                    24620476.078
 118103459.225 7  92028742.025 7  22474345.430                    22474353.473
 124478900.424 6  96996633.60443  23687550.023                    23687558.488
 124005067.824 7  96627447.52143  23597360.852                    23597368.531
 113724670.809 8  88616667.90446  21641049.375                    21641054.559
 113214475.336 8  88219152.747 7  21544001.000                    21544008.422
 107168081.271 8  83507677.793 8  20393387.109                    20393393.922
 11  8 12  2 50 30.0000000  0  9G25G30G15G29G26G10G02G12G05
 113481703.617 8  88427325.007 7  21594842.641                    21594852.461
 113459369.003 8  88409962.31545  21590598.914                    21590606.555
 129287442.276 6 100743508.080 6  24602589.102                    24602598.742
 118022683.972 7  91965800.338 7  22458974.844                    22458982.434
 124383536.181 6  96922323.89343  23669402.328                    23669411.375
 124109478.171 7  96708806.23343  23617230.063                    23617237.695
 113764338.098 8  88647577.50545  21648597.641                    21648603.070
 113279390.111 7  88269735.689 7  21556353.789                    21556361.250
 107194738.279 8  83528449.503 8  20398459.492                    20398466.578
 11  8 12  2 51  0.0000000  0  9G25G30G15G29G26G10G02G12G05
 113485708.490 8  88430445.696 7  21595604.766                    21595614.688
 113493746.904 8  88436750.28645  21597140.656                    21597148.277
 129193371.710 6 100670206.519 6  24584687.555                    24584697.289
 117942001.259 7  91902930.763 7  22443621.414                    22443629.238
 124288242.745 7  96848069.35643  23651268.258                    23651277.383
 124214047.155 7  96790288.55843  23637127.875                    23637136.242
 113804097.256 8  88678558.69145  21656163.266                    21656168.777
 113344720.960 7  88320642.844 7  21568785.750                    21568792.977
 107221910.086 8  83549622.362 8  20403630.039                    20403636.980
 11  8 12  2 51 30.0000000  0  9G25G30G15G29G26G10G02G12G05
 113490288.649 8  88434014.673 7  21596476.734                    21596486.043
 113528663.517 8  88463958.03245  21603784.797                    21603792.828
 129099179.075 6 100596809.804 6  24566763.391                    24566772.688
 117861413.253 7  91840134.996 7  22428285.500                    22428293.211
 124193024.013 7  96773873.04843  23633149.336                    23633157.484
 124318772.233 7  96871892.54443  23657057.102                    23657064.902
 113843948.318 8  88709611.49045  21663747.039                    21663751.871
 113410465.683 8  88371872.511 7  21581296.555                    21581304.027
 107249595.660 8  83571195.542 8  20408898.719                    20408905.492
 11  8 12  2 52  0.0000000  0  9G25G30G15G29G26G10G02G12G05
 113495443.277 8  88438031.277 7  21597457.109                    21597467.031
 113564116.524 8  88491583.75045  21610531.195                    21610539.176
 129004866.298 6 100523319.181 5  24548816.852                    24548825.176
 117780922.048 7  91777414.653 6  22412968.398                    22412975.953
 124097883.267 7  96699737.49343  23615043.961                    23615052.691
 124423650.472 6  96953615.84843  23677014.531                    23677023.383
 113883891.218 8  88740735.84945  21671348.359                    21671353.176
 113476621.634 8  88423422.624 7  21593885.867                    21593892.953
 107277792.858 8  83593167.405 8  20414264.352                    20414271.234
 11  8 12  2 52 30.0000000  0  9G25G30G15G29G26G10G02G12G05
 113501171.343 8  88442494.713 7  21598547.133                    21598556.523
 113600103.639 7  88519625.65045  21617379.773                    21617387.563
 128910437.513 6 100449738.797 6  24530847.039                    24530856.445
 117700528.840 7  91714770.663 7  22397670.781                    22397678.043
 124002823.516 7  96625665.06544  23596955.133                    23596962.906
 124528678.799 6  97035456.10943  23697000.891                    23697009.082
 113923925.150 7  88771931.15145  21678966.031                    21678971.344
 113543185.357 8  88475290.481 7  21606552.398                    21606560.020
 107306499.655 8  83615536.347 8  20419727.039                    20419734.113
 11  8 12  2 53  0.0000000  0  9G25G30G15G29G26G10G02G12G05
 113507472.755 8  88447404.907 7  21599746.414                    21599756.008
 113636623.298 8  88548082.52245  21624328.984                    21624336.527
 128815893.234 6 100376068.023 6  24512856.023                    24512864.828
 117620236.073 7  91652204.941 7  22382390.875                    22382398.871
 123907848.855 7  96551658.90243  23578881.461                    23578889.824
 124633854.961 6  97117411.56743  23717015.070                    23717023.602
 113964050.514 8  88803197.68245  21686601.469                    21686606.734
 113610154.961 8  88527474.592 7  21619296.336                    21619303.770
 107335714.748 8  83638301.359 8  20425286.633                    20425293.250
 11  8 12  2 53 30.0000000  0  9G25G30G15G29G26G10G02G12G05
 113514346.659 8  88452761.202 7  21601054.555                    21601064.016
 113673673.376 8  88576952.69845  21631379.531                    21631387.688
 128721236.948 7 100302310.027 6  24494842.828                    24494851.949
 117540045.593 7  91589718.942 7  22367131.758                    22367139.148
 123812962.767 7  96477721.77843  23560825.445                    23560833.875
 124739176.162 6  97199480.04643  23737057.375                    23737065.387
 114004267.133 7  88834535.33145  21694254.469                    21694259.645
 113677528.029 8  88579973.105 7  21632116.898                    21632124.145
 107365436.571 8  83661461.234 8  20430942.391                    20430949.297
 11  8 12  2 54  0.0000000  0  9G25G30G15G29G26G10G02G12G05
 113521792.324 8  88458563.021 7  21602471.148                    21602480.785
 113711251.892 8  88606234.66245  21638530.172                    21638537.918
 128626470.993 7 100228466.511 6  24476809.086                    24476819.301
 117459959.373 7  91527314.167 7  22351891.609                    22351899.090
 123718168.775 7  96403856.42143  23542786.523                    23542795.164
 124844639.970 6  97281659.61243  23757125.625                    23757134.246
 114044574.908 7  88865944.00245  21701924.500                    21701929.914
 113745301.417 7  88632783.548 7  21645013.539                    21645020.555
 107395663.461 8  83685014.658 8  20436694.383                    20436701.309
 11  8 12  2 54 30.0000000  0  9G25G30G15G29G26G10G02G12G05
 113529808.990 8  88464809.778 7  21603996.852                    21604006.297
 113749356.601 8  88635926.62945  21645781.836                    21645789.355
 128531598.135 7 100154539.687 6  24458755.586                    24458765.328
 117379979.096 7  91464991.973 7  22336671.469                    22336679.301
 123623470.141 7  96330065.37144  23524765.758                    23524774.512
 124950243.728 6  97363948.26843  23777221.383                    23777230.418
 114084973.806 7  88897423.67945  21709612.375                    21709617.301
 113813472.802 7  88685904.114 7  21657986.234                    21657993.227
 107426393.453 8  83708960.119 8  20442542.102                    20442549.012
 11  8 12  2 55  0.0000000  0  9G25G30G15G29G26G10G02G12G05
 113538395.665 8  88471500.703 7  21605630.289                    21605640.508
 113787985.130 8  88666026.78245  21653132.430                    21653140.168
 128436620.777 7 100080531.499 6  24440682.039                    24440691.871
 117300106.781 7  91402753.888 7  22321472.922                    22321480.055
 123528870.260 7  96256351.25144  23506764.156                    23506772.504
 125055984.232 6  97446343.47543  23797343.289                    23797351.750
 114125463.125 7  88928973.81245  21717317.242                    21717322.570
 113882039.055 8  88739332.358 7  21671034.172                    21671041.578
 107457624.349 8  83733295.890 8  20448485.242                    20448492.055
 11  8 12  2 55 30.0000000  0  9G25G30G15G29G26G10G02G12G05
 113547551.930 8  88478635.465 7  21607373.172                    21607382.582
 113827135.768 7  88696533.76145  21660582.414                    21660590.012
 128341541.550 6 100006443.896 5  24422589.695                    24422598.496
 117220344.637 7  91340601.639 7  22306294.055                    22306301.629
 123434373.313 7  96182717.36544  23488781.867                    23488790.691
 125161859.269 6  97528843.46643  23817490.688                    23817499.129
 114166043.152 7  88960594.61545  21725039.547                    21725044.570
 113950997.946 8  88793066.558 7  21684156.195                    21684163.742
 107489355.091 8  83758021.146 8  20454523.227                    20454529.930
 11  8 12  2 56  0.0000000  0  9G25G30G15G29G26G10G02G12G05
 113557276.887 8  88486213.375 7  21609224.039                    21609233.430
 113866806.350 8  88727445.90445  21668131.492                    21668139.477
 128246363.186 6  99932279.059 6  24404476.570                    24404486.074
 117140694.488 7  91278536.665 7  22291137.320                    22291144.332
 123339982.342 7  96109166.05144  23470819.641                    23470828.254
 125267866.118 6  97611446.19343  23837663.789                    23837671.289
 114206713.817 7  88992286.04745  21732778.820                    21732783.734
 114020347.080 8  88847104.845 7  21697353.266                    21697360.676
 107521583.827 8  83783134.451 8  20460656.203                    20460662.785
 11  8 12  2 56 30.0000000  0  9G25G30G15G29G26G10G02G12G05
 113567569.851 8  88494233.876 7  21611182.766                    21611192.051
 113906994.824 8  88758761.61145  21675779.344                    21675786.793
 128151088.197 6  99858038.924 5  24386347.055                    24386355.992
 117061158.329 7  91216560.501 7  22276001.203                    22276009.570
 123245701.245 7  96035700.34544  23452878.984                    23452886.809
 125374002.279 6  97694149.71243  23857860.508                    23857868.383
 114247475.318 7  89024048.25245  21740535.164                    21740540.410
 114090083.248 7  88901444.701 7  21710623.516                    21710630.813
 107554308.863 8  83808634.476 8  20466883.570                    20466890.133
 11  8 12  2 57  0.0000000  0  9G25G30G15G29G26G10G02G12G05
 113578429.734 8  88502696.141 7  21613249.320                    21613258.816
 113947698.802 8  88790478.98445  21683524.984                    21683532.836
 128055719.188 6  99783725.500 5  24368197.641                    24368206.484
 116981738.169 7  91154674.728 7  22260888.063                    22260896.305
 123151533.426 7  95962322.92043  23434959.391                    23434967.453
 125480264.955 6  97776951.78643  23878081.414                    23878089.512
 114288327.181 8  89055880.86745  21748309.172                    21748314.590
 114160203.592 8  88956083.926 7  21723967.133                    21723974.008
 107587528.094 8  83834519.595 8  20473205.102                    20473211.762
 11  8 12  2 57 30.0000000  0  9G25G30G15G29G26G10G02G12G05
 113589855.394 8  88511599.240 7  21615423.438                    21615433.473
 113988915.836 8  88822596.15245  21691368.258                    21691376.297
 127960258.459 6  99709340.607 5  24350033.156                    24350040.891
 116902435.628 7  91092880.598 7  22245797.844                    22245805.426
 123057482.303 7  95889036.43244  23417061.992                    23417070.102
 125586651.560 7  97859850.45643  23898326.422                    23898333.852
 114329269.075 8  89087783.65245  21756100.070                    21756105.648
 114230705.520 8  89011020.483 7  21737382.953                    21737390.594
 107621239.340 8  83860788.096 8  20479619.875                    20479627.105
 11  8 12  2 58  0.0000000  0  9G25G30G15G29G26G10G02G12G05
 113601845.692 8  88520942.334 7  21617705.008                    21617714.719
 114030643.430 8  88855111.15845  21699308.672                    21699316.676
 127864708.724 6  99634886.400 6  24331850.422                    24331858.828
 116823252.740 7  91031179.690 7  22230729.859                    22230737.570
 122963551.012 7  95815843.32744  23399187.359                    23399195.621
 125693159.269 6  97942843.44443  23918593.672                    23918601.977
 114370300.751 8  89119756.38245  21763908.406                    21763913.762
 114301585.890 8  89066251.937 7  21750870.648                    21750878.395
 107655440.346 8  83887438.238 8  20486128.305                    20486134.781
 11  8 12  2 58 30.0000000  0  9G25G30G15G29G26G10G02G12G05
 113614400.399 8  88530725.214 7  21620093.977                    21620103.785
 114072880.047 7  88888022.79045  21707346.258                    21707353.695
 127769073.004 7  99560365.140 6  24313651.477                    24313659.973
 116744191.958 7  90969573.920 7  22215685.484                    22215692.824
 122869743.840 7  95742746.92744  23381336.203                    23381345.000
 125799786.062 6  98025929.27543  23938883.469                    23938891.879
 114411422.757 7  89151799.50145  21771733.430                    21771738.516
 114372842.538 8  89121776.585 7  21764430.758                    21764437.879
 107690130.749 8  83914469.725 8  20492729.836                    20492736.574
 11  8 12  2 59  0.0000000  0  9G25G30G15G29G26G10G02G12G05
 113627518.254 8  88540946.928 7  21622590.203                    21622600.086
 114115623.218 8  88921329.15746  21715479.883                    21715487.762
 127673353.815 7  99485778.867 6  24295436.578                    24295445.219
 116665255.016 7  90908064.646 7  22200663.547                    22200671.313
 122776064.120 7  95669749.82144  23363508.961                    23363518.055
 125906528.935 6  98109105.57743  23959197.063                    23959204.551
 114452634.729 7  89183912.72145  21779575.453                    21779580.492
 114444472.603 8  89177592.206 7  21778061.406                    21778068.691
 107725307.908 8  83941880.507 8  20499422.852                    20499430.379
 11  8 12  2 59 30.0000000  0  9G25G30G15G29G26G10G02G12G05
 113641198.322 8  88551606.731 7  21625193.547                    21625203.238
 114158870.552 8  88955028.38545  21723709.758                    21723717.395
 127577553.448 7  99411129.293 6  24277206.531                    24277215.211
 116586444.153 7  90846653.588 7  22185666.414                    22185673.871
 122682515.539 7  95596854.93944  23345707.375                    23345716.105
 126013385.313 6  98192370.25543  23979530.797                    23979538.359
 114493936.810 7  89216096.15445  21787435.938                    21787440.680
 114516473.261 7  89233696.602 7  21791762.938                    21791769.988
 107760969.979 8  83969669.141 8  20506209.828                    20506216.520
 11  8 12  3  0  0.0000000  0  9G25G30G15G29G26G10G02G12G05
 113655439.434 8  88562703.712 7  21627903.344                    21627913.141
 114202619.727 8  88989118.65245  21732034.336                    21732042.473
 127481674.841 7  99336418.829 6  24258960.938                    24258969.875
 116507761.074 7  90785342.098 7  22170693.445                    22170701.008
 122589101.446 7  95524064.80343  23327931.227                    23327939.773
 126120352.835 6  98275721.59643  23999885.836                    23999893.953
 114535328.804 7  89248349.65745  21795312.164                    21795317.637
 114588842.070 7  89290087.872 7  21805533.875                    21805541.168
 107797115.013 8  83997834.111 8  20513087.953                    20513094.543
 11  8 12  3  0 30.0000000  0  9G25G30G15G29G26G10G02G12G05
 113670240.660 8  88574237.140 7  21630719.852                    21630729.664
 114246868.526 7  89023598.24045  21740454.594                    21740462.484
 127385720.687 6  99261649.466 6  24240700.977                    24240710.418
 116429208.105 7  90724131.987 7  22155745.891                    22155753.203
 122495825.741 6  95451382.52344  23310181.359                    23310189.707
 126227428.630 6  98359157.29943  24020261.547                    24020270.141
 114576810.670 7  89280673.19145  21803206.445                    21803210.848
 114661575.908 7  89346763.582 7  21819374.391                    21819381.813
 107833741.129 8  84026373.954 8  20520057.656                    20520064.797
 11  8 12  3  1  0.0000000  0  9G25G30G15G29G26G10G02G12G05
 113685600.987 8  88586206.220 7  21633643.164                    21633652.680
 114291614.573 8  89058465.29945  21748970.008                    21748977.895
 127289693.721 6  99186823.341 6  24222428.156                    24222436.703
 116350787.075 7  90663024.668 7  22140822.172                    22140829.668
 122402692.012 7  95378810.85044  23292458.547                    23292467.418
 126334610.373 6  98442675.54643  24040657.445                    24040665.992
 114618382.474 8  89313066.81145  21811116.984                    21811121.871
 114734672.179 7  89403721.712 7  21833284.727                    21833292.004
 107870846.233 8  84055287.031 8  20527118.664                    20527125.555
 11  8 12  3  1 30.0000000  0  9G25G30G15G29G26G10G02G12G05
 113701519.189 8  88598610.016 7  21636672.289                    21636681.738
 114336855.468 7  89093717.94945  21757578.656                    21757586.828
 127193596.405 7  99111942.420 6  24204140.938                    24204150.469
 116272500.214 7  90602021.886 7  22125925.063                    22125932.270
 122309703.660 7  95306352.47944  23274763.750                    23274771.945
 126441895.403 6  98526274.24743  24061073.352                    24061081.195
 114660044.054 7  89345530.38345  21819044.805                    21819049.441
 114808127.844 7  89460959.887 7  21847262.820                    21847269.961
 107908428.447 8  84084571.879 8  20534270.180                    20534276.906
 11  8 12  3  2  0.0000000  0  9G25G30G15G29G26G10G02G12G05
 113717994.169 8  88611447.648 7  21639807.234                    21639816.754
 114382588.790 7  89129354.30145  21766281.695                    21766289.438
 127097431.424 6  99037008.740 6  24185842.172                    24185850.309
 116194349.428 7  90541125.133 7  22111053.563                    22111060.531
 122216864.559 7  95234010.44043  23257096.531                    23257105.516
 126549281.230 6  98609951.55143  24081508.234                    24081516.500
 114701795.430 7  89378063.93845  21826989.609                    21826994.555
 114881940.191 7  89518476.006 7  21861308.656                    21861315.852
 107946485.979 8  84114227.106 8  20541512.203                    20541519.156
 11  8 12  3  2 30.0000000  0  9G25G30G15G29G26G10G02G12G05
 113735024.700 8  88624718.195 7  21643048.063                    21643057.703
 114428812.152 7  89165372.50445  21775077.906                    21775085.930
 127001201.749 6  98962024.676 6  24167530.109                    24167538.059
 116116336.783 7  90480336.013 7  22096207.789                    22096215.660
 122124178.013 7  95161787.20744  23239459.164                    23239467.680
 126656765.141 6  98693705.26143  24101961.648                    24101969.578
 114743636.453 7  89410667.34045  21834951.531                    21834956.449
 114956106.173 7  89576267.680 7  21875422.117                    21875428.980
 107985016.773 8  84144251.115 8  20548844.367                    20548851.238
 11  8 12  3  3  0.0000000  0  9G25G30G15G29G26G10G02G12G05
 113752609.748 8  88638420.826 7  21646394.250                    21646404.012
 114475523.185 7  89201770.70345  21783966.688                    21783974.344
 126904909.849 6  98886992.090 6  24149205.883                    24149214.254
 116038464.526 7  90419656.287 7  22081389.250                    22081397.102
 122031647.749 7  95089685.79344  23221850.898                    23221859.855
 126764344.808 6  98777533.55143  24122433.766                    24122441.391
 114785567.086 7  89443340.56245  21842931.047                    21842935.859
 115030623.154 7  89634332.866 7  21889601.984                    21889609.176
 108024018.852 8  84174642.357 8  20556266.250                    20556272.680
 11  8 12  3  3 30.0000000  0  9G25G30G15G29G26G10G02G12G05
 113770747.573 8  88652554.193 7  21649846.117                    21649855.781
 114522718.888 7  89238546.57345  21792947.469                    21792955.156
 126808558.241 6  98811913.009 6  24130870.250                    24130878.707
 115960734.202 7  90359087.170 7  22066597.922                    22066605.633
 121939276.928 6  95017708.60844  23204273.266                    23204281.621
 126872017.295 6  98861434.17543  24142923.125                    24142931.105
 114827586.962 7  89476083.32845  21850926.750                    21850931.898
 115105487.867 7  89692669.030 7  21903848.484                    21903855.621
 108063489.338 8  84205398.591 7  20563777.102                    20563783.813
 11  8 12  3  4  0.0000000  0  9G25G30G15G29G26G10G02G12G05
 113789437.559 8  88667117.821 7  21653402.500                    21653412.336
 114570397.555 7  89275698.77045  21802020.727                    21802028.430
 126712149.754 6  98736789.578 5  24112524.711                    24112531.836
 115883148.511 7  90298630.786 7  22051833.852                    22051841.547
 121847069.848 7  94945859.03944  23186726.398                    23186736.059
 126979780.733 6  98945405.69343  24163429.844                    24163437.703
 114869696.789 7  89508896.20545  21858940.336                    21858945.449
 115180697.959 7  89751274.308 7  21918160.672                    21918167.547
 108103427.361 8  84236519.140 8  20571377.203                    20571383.617
 11  8 12  3  4 30.0000000  0  9G25G30G15G29G26G10G02G12G05
 113808678.135 8  88682110.476 7  21657063.625                    21657073.414
 114618556.228 7  89313225.00045  21811184.938                    21811192.852
 126615687.251 6  98661624.044 5  24094168.734                    24094176.785
 115805709.077 7  90238288.378 7  22037097.672                    22037105.539
 121755029.739 7  94874139.56044  23169211.930                    23169221.023
 127087632.106 6  99029445.72943  24183953.859                    24183961.195
 114911896.052 7  89541778.75245  21866970.555                    21866976.078
 115256250.080 7  89810146.110 7  21932537.594                    21932544.883
 108143830.239 8  84268001.916 8  20579065.711                    20579072.230
 11  8 12  3  5  0.0000000  0  9G25G30G15G29G26G10G02G12G05
 113828468.183 8  88697531.292 7  21660829.523                    21660839.180
 114667192.595 7  89351123.46945  21820440.055                    21820448.098
 126519173.478 6  98586418.561 6  24075802.430                    24075810.445
 115728418.372 7  90178061.872 7  22022390.398                    22022397.738
 121663160.303 7  94802553.08244  23151730.422                    23151738.762
 127195568.994 6  99113552.40343  24204492.781                    24204500.742
 114954185.013 8  89574731.18045  21875017.609                    21875023.168
 115332141.928 7  89869282.640 7  21946979.539                    21946986.844
 108184696.125 8  84299845.480 8  20586842.148                    20586848.621
 11  8 12  3  5 30.0000000  0  9G25G30G15G29G26G10G02G12G05
 113848806.476 8  88713379.316 7  21664699.969                    21664709.672
 114716304.405 7  89389392.41045  21829785.273                    21829793.508
 126422611.383 6  98511175.400 6  24057427.633                    24057435.969
 115651278.530 7  90117952.978 7  22007710.258                    22007717.762
 121571465.438 7  94731102.59844  23134281.125                    23134289.586
 127303589.091 6  99197723.91843  24225049.000                    24225056.344
 114996563.544 8  89607753.41045  21883082.461                    21883087.680
 115408370.173 7  89928681.279 7  21961485.031                    21961492.465
 108226023.486 8  84332048.635 8  20594706.180                    20594712.961
 11  8 12  3  6  0.0000000  0  9G25G30G15G29G26G10G02G12G05
 113869691.448 8  88729653.331 7  21668674.359                    21668684.004
 114765888.606 7  89428029.44445  21839221.344                    21839228.758
 126326003.366 6  98435896.486 6  24039043.711                    24039052.438
 115574291.286 7  90057962.991 7  21993060.383                    21993067.543
 121479948.600 7  94659790.85544  23116865.875                    23116874.289
 127411689.784 6  99281958.24843  24245620.164                    24245626.512
 115039031.506 7  89640845.31145  21891163.305                    21891168.820
 115484931.965 7  89988339.826 7  21976054.547                    21976061.586
 108267809.512 8  84364609.188 8  20602658.047                    20602664.555
 11  8 12  3  6 30.0000000  0  9G25G30G15G29G26G10G02G12G05
 113891121.745 8  88746352.253 7  21672752.211                    21672761.883
 114815942.912 7  89467032.79945  21848745.828                    21848753.914
 126229352.023 6  98360583.827 6  24020651.359                    24020659.438
 115497459.186 7  89998093.916 7  21978440.008                    21978446.645
 121388613.092 7  94588620.41744  23099485.102                    23099493.523
 127519868.480 6  99366253.33943  24266205.219                    24266213.109
 115081589.208 8  89674007.13245  21899262.164                    21899267.559
 115561824.484 7  90048256.090 7  21990686.492                    21990693.441
 108310052.075 8  84397525.486 8  20610696.508                    20610703.219
 11  8 12  3  7  0.0000000  0  9G25G30G15G29G26G10G02G12G05
 113913096.259 8  88763475.236 7  21676933.906                    21676943.473
 114866464.847 7  89506400.53645  21858360.289                    21858367.852
 126132660.577 6  98285239.912 6  24002251.727                    24002259.520
 115420784.215 8  89938347.306 7  21963848.883                    21963856.129
 121297463.129 7  94517594.55344  23082139.953                    23082148.547
 127628122.994 6  99450607.54243  24286804.586                    24286812.715
 115124236.940 8  89707239.11245  21907377.219                    21907382.969
 115639044.936 8  90108427.878 7  22005381.023                    22005388.109
 108352749.514 8  84430796.239 8  20618821.570                    20618827.902
 11  8 12  3  7 30.0000000  0  9G25G30G15G29G26G10G02G12G05
 113935613.470 8  88781021.101 7  21681218.805                    21681228.824
 114917451.736 7  89546130.57545  21868062.547                    21868070.582
 126035931.671 7  98209866.811 6  23983844.516                    23983853.176
 115344268.417 7  89878724.726 7  21949288.289                    21949295.543
 121206502.261 7  94446716.02844  23064830.656                    23064839.066
 127736450.790 6  99535018.81042  24307418.734                    24307427.066
 115166974.567 8  89740541.13045  21915510.383                    21915515.695
 115716590.477 8  90168852.986 7  22020137.734                    22020144.617
 108395899.551 8  84464419.661 8  20627032.914                    20627039.313
 11  8 12  3  8  0.0000000  0  9G25G30G15G29G26G10G02G12G05
 113958671.951 8  88798988.736 7  21685606.711                    21685616.281
 114968901.021 7  89586220.92445  21877853.203                    21877861.184
 125939168.138 7  98134466.723 6  23965431.102                    23965439.266
 115267914.170 7  89819228.032 7  21934758.281                    21934765.469
 121115733.963 7  94375987.57544  23047558.211                    23047566.742
 127844849.351 6  99619485.23542  24328046.336                    24328054.617
 115209801.801 8  89773912.98845  21923660.398                    21923665.547
 115794458.075 8  90229529.049 7  22034955.063                    22034962.055
 108439500.123 8  84498394.148 8  20635329.789                    20635336.230
 11  8 12  3  8 30.0000000  0  9G25G30G15G29G26G10G02G12G05
 113982270.339 8  88817377.074 7  21690097.188                    21690106.801
 115020810.139 7  89626669.59045  21887730.961                    21887738.883
 125842372.681 7  98059041.752 6  23947011.539                    23947019.977
 115191723.288 8  89759858.636 7  21920259.727                    21920266.734
 121025162.056 7  94305412.13444  23030322.711                    23030331.363
 127953316.594 6  99704005.16142  24348686.664                    24348695.270
 115252718.818 8  89807354.79345  21931827.109                    21931832.031
 115872644.820 7  90290453.795 7  22049833.984                    22049840.465
 108483549.204 8  84532718.122 8  20643711.727                    20643718.715
 11  8 12  3  9  0.0000000  0  9G25G30G15G29G26G10G02G12G05
 114006407.259 8  88836185.053 7  21694690.555                    21694699.910
 115073176.507 7  89667474.55645  21897696.055                    21897704.199
 125745548.325 6  97983594.272 6  23928586.195                    23928594.445
 115115698.237 7  89700618.452 7  21905792.227                    21905799.762
 120934790.128 7  94234992.53544  23013124.805                    23013133.816
 128061849.780 6  99788576.49842  24369340.055                    24369348.613
 115295725.862 7  89840866.76645  21940010.930                    21940016.270
 115951148.183 7  90351625.255 7  22064772.070                    22064779.566
 108528044.634 8  84567389.900 8  20652179.086                    20652185.898
 11  8 12  3  9 30.0000000  0 10G25G30G15G29G26G21G10G02G12G05
 114031081.011 8  88855411.346 7  21699385.828                    21699395.379
 115125997.450 7  89708633.73445  21907747.734                    21907755.348
 125648697.660 6  97908126.284 6  23910155.875                    23910164.590
 115039840.795 7  89641508.865 7  21891356.930                    21891364.191
 120844621.860 7  94164731.62244  22995966.172                    22995974.750
 132308480.11716 103097538.28853  25177463.453                    25177472.266
 128170446.610 6  99873197.34842  24390005.922                    24390013.813
 115338822.658 7  89874448.66045  21948212.328                    21948217.469
 116029964.390 7  90413040.487 7  22079770.688                    22079777.453
 108572984.157 8  84602407.730 8  20660730.914                    20660737.160
 11  8 12  3 10  0.0000000  0 10G25G30G15G29G26G21G10G02G12G05
 114056290.028 8  88875054.730 7  21704183.109                    21704192.445
 115179270.109 7  89750144.89845  21917885.203                    21917892.887
 125551823.449 6  97832639.952 6  23891721.563                    23891730.000
 114964153.120 7  89582531.551 7  21876954.008                    21876961.043
 120754660.850 7  94094632.20244  22978847.758                    22978855.547
 132251027.302 6 103052770.11542  25166529.781                    25166539.305
 128279104.454 6  99957865.86742  24410682.445                    24410690.723
 115382009.583 7  89908100.80245  21956430.406                    21956435.434
 116109090.901 7  90474697.498 7  22094827.438                    22094834.988
 108618365.520 8  84637769.849 7  20669366.625                    20669373.078
 11  8 12  3 10 30.0000000  0 10G25G30G15G29G26G21G10G02G12G05
 114082032.904 8  88895114.097 7  21709081.617                    21709091.465
 115232991.976 7  89792006.10645  21928108.141                    21928115.691
 125454928.435 6  97757137.439 6  23873282.625                    23873290.926
 114888637.822 7  89523688.549 7  21862584.023                    21862591.098
 120664910.822 7  94024697.18744  22961768.484                    22961776.563
 132193586.639 6 103008011.30343  25155599.445                    25155607.895
 128387820.887 6 100042579.98242  24431369.656                    24431379.305
 115425286.723 7  89941823.23445  21964665.609                    21964670.883
 116188524.824 7  90536594.074 7  22109943.391                    22109950.730
 108664186.850 8  84673474.800 7  20678085.938                    20678092.574
 11  8 12  3 11  0.0000000  0 10G25G30G15G29G26G21G10G02G12G05
 114108308.084 8  88915588.249 7  21714081.477                    21714091.387
 115287160.384 7  89834215.24745  21938415.992                    21938423.363
 125358015.783 6  97681621.182 6  23854840.734                    23854849.469
 114813296.734 7  89464981.280 7  21848246.781                    21848253.645
 120575375.421 7  93954929.40344  22944730.438                    22944738.680
 132136157.369 6 102963261.41743  25144671.219                    25144679.758
 128496593.841 6 100127338.13143  24452069.094                    24452077.988
 115468654.011 7  89975615.92045  21972918.039                    21972923.133
 116268263.258 7  90598727.926 7  22125117.344                    22125124.414
 108710445.535 8  84709520.552 8  20686888.516                    20686895.359
 11  8 12  3 11 30.0000000  0 10G25G30G15G29G26G21G10G02G12G05
 114135114.103 8  88936476.045 7  21719182.445                    21719192.543
 115341772.748 7  89876770.34345  21948808.953                    21948815.906
 125261088.286 6  97606093.374 6  23836395.375                    23836404.730
 114738132.382 7  89406411.710 7  21833943.945                    21833950.844
 120486058.408 7  93885331.79444  22927734.117                    22927742.543
 132078739.088 6 102918520.02543  25133744.945                    25133753.367
 128605421.025 6 100212138.51043  24472779.070                    24472786.734
 115512111.757 7  90009479.11745  21981187.898                    21981192.703
 116348303.166 7  90661096.698 7  22140348.320                    22140355.707
 108757139.930 8  84745905.809 7  20695774.375                    20695781.305
 11  8 12  3 12  0.0000000  0 10G25G30G15G29G26G21G10G02G12G05
 114162449.400 8  88957776.280 7  21724384.570                    21724393.887
 115396826.290 7  89919669.20145  21959284.789                    21959292.363
 125164148.923 6  97530556.305 6  23817949.023                    23817957.836
 114663146.815 8  89347981.431 7  21819674.461                    21819681.598
 120396963.521 7  93815907.25944  22910779.633                    22910788.191
 132021331.468 6 102873786.98743  25122820.195                    25122829.195
 128714299.898 6 100296979.21543  24493497.523                    24493505.430
 115555659.965 7  90043412.78645  21989474.539                    21989479.988
 116428641.620 8  90723698.098 7  22155636.414                    22155643.398
 108804267.601 8  84782628.692 7  20704742.734                    20704748.902
 11  8 12  3 12 30.0000000  0 10G25G30G15G29G26G21G10G02G12G05
 114190312.268 8  88979487.600 7  21729686.289                    21729696.020
 115452318.291 7  89962909.72345  21969844.023                    21969852.750
 125067200.385 6  97455012.063 6  23799500.195                    23799508.918
 114588342.195 7  89289692.150 7  21805439.594                    21805446.766
 120308094.405 7  93746658.62844  22893868.711                    22893876.492
 131963933.822 6 102829061.70643  25111897.820                    25111906.695
 128823228.108 6 100381858.30543  24514225.484                    24514233.598
 115599298.714 7  90077417.01645  21997779.102                    21997783.617
 116509275.621 8  90786529.803 7  22170980.586                    22170987.426
 108851826.463 8  84819687.567 7  20713792.453                    20713799.184
 11  8 12  3 13  0.0000000  0 10G25G30G15G29G26G21G10G02G12G05
 114218700.956 8  89001608.651 7  21735088.836                    21735098.434
 115508245.950 7  90006489.72145  21980486.773                    21980494.824
 124970245.232 6  97379462.676 6  23781050.234                    23781058.672
 114513720.643 7  89231545.505 7  21791239.594                    21791246.609
 120219454.600 7  93677588.72644  22877000.742                    22877009.020
 131906545.618 6 102784343.80743  25100977.289                    25100985.445
 128932203.454 6 100466774.15943  24534963.414                    24534971.301
 115643027.881 7  90111491.71845  22006100.617                    22006105.508
 116590202.068 8  90849589.388 7  22186380.125                    22186387.211
 108899813.916 8  84857080.408 7  20722924.148                    20722930.617
 11  8 12  3 13 30.0000000  0 10G25G30G15G29G26G21G10G02G12G05
 114247613.831 8  89024138.166 7  21740590.945                    21740600.402
 115564606.482 7  90050407.00445  21991211.844                    21991219.352
 124873286.726 7  97303910.652 6  23762600.391                    23762608.609
 114439284.345 7  89173543.214 7  21777074.781                    21777081.961
 120131048.008 7  93608700.51944  22860177.930                    22860186.238
 131849166.070 6 102739632.61643  25090057.539                    25090066.801
 129041223.452 6 100551724.79643  24555709.492                    24555717.371
 115686848.042 7  90145637.32745  22014439.000                    22014444.043
 116671418.319 7  90912874.795 7  22201834.836                    22201842.363
 108948228.062 8  84894805.731 8  20732137.195                    20732143.699
 11  8 12  3 14  0.0000000  0 10G25G30G15G29G26G21G10G02G12G05
 114277049.196 8  89047074.829 7  21746191.945                    21746201.840
 115621397.163 7  90094659.48345  22002019.016                    22002026.992
 124776327.635 7  97228358.171 6  23744149.328                    23744157.770
 114365035.497 7  89115686.979 7  21762945.781                    21762952.961
 120042878.134 7  93539996.77844  22843399.617                    22843407.449
 131791794.767 6 102694927.82743  25079140.383                    25079148.559
 129150285.777 6 100636708.36743  24576463.914                    24576471.488
 115730759.095 7  90179853.77145  22022794.906                    22022799.848
 116752920.989 7  90976383.366 7  22217344.578                    22217351.770
 108997066.561 8  84932861.721 7  20741430.734                    20741437.359
 11  8 12  3 14 30.0000000  0 10G25G30G15G29G26G21G10G02G12G05
 114307005.932 8  89070417.748 7  21751892.305                    21751902.234
 115678615.768 7  90139245.40845  22012907.555                    22012915.281
 124679371.073 7  97152807.679 6  23725699.273                    23725706.609
 114290977.223 8  89057979.226 7  21748852.883                    21748860.180
 119954949.223 7  93471480.78444  22826667.750                    22826675.148
 131734431.451 6 102650229.28843  25068224.555                    25068232.645
 129259388.568 6 100721723.55143  24597225.430                    24597233.063
 115774761.744 7  90214141.57245  22031168.422                    22031173.480
 116834707.715 7  91040113.299 7  22232907.945                    22232915.148
 109046327.603 8  84971246.970 7  20750804.742                    20750811.359
 11  8 12  3 15  0.0000000  0  9G25G30G15G29G26G21G02G12G05
 114337481.933 8  89094165.289 7  21757691.891                    21757701.473
 115736259.150 7  90184162.31145  22023876.484                    22023884.430
 124582420.053 6  97077261.500 6  23707249.945                    23707257.602
 114217111.253 8  89000421.325 7  21734796.516                    21734803.898
 119867264.713 7  93403155.24444  22809981.500                    22809989.570
 131677075.715 6 102605536.62043  25057309.500                    25057318.668
 115818855.483 7  90248500.37045  22039559.406                    22039564.637
 116916775.416 7  91104062.169 7  22248525.047                    22248531.938
 109096008.864 8  85009959.666 7  20760258.609                    20760265.457
 11  8 12  3 15 30.0000000  0  9G25G30G15G29G26G21G02G12G05
 114368475.244 8  89118315.937 7  21763589.523                    21763599.660
 115794324.276 7  90229407.85845  22034926.125                    22034933.914
 124485477.113 7  97001721.646 6  23688801.266                    23688809.383
 114143439.455 8  88943014.729 7  21720777.352                    21720784.711
 119779827.917 7  93335022.72444  22793342.578                    22793350.730
 131619726.378 6 102560848.92043  25046396.648                    25046404.859
 115863040.459 7  90282930.24745  22047967.555                    22047972.352
 116999120.635 7  91168227.270 7  22264194.680                    22264201.703
 109146107.635 8  85048997.681 7  20769791.938                    20769798.652
 11  8 12  3 16  0.0000000  0  9G25G30G15G29G26G21G02G12G05
 114399983.945 8  89142868.176 7  21769585.563                    21769595.035
 115852808.238 7  90274979.77545  22046054.898                    22046062.906
 124388544.993 6  96926190.202 6  23670356.172                    23670363.902
 114069964.184 7  88885761.283 7  21706795.438                    21706802.391
 119692642.537 7  93267086.11945  22776752.219                    22776759.586
 131562383.192 6 102516166.02043  25035484.047                    25035492.828
 115907316.571 7  90317431.14845  22056392.391                    22056397.535
 117081740.279 7  91232606.228 7  22279916.875                    22279923.668
 109196621.592 8  85088359.214 7  20779404.930                    20779411.129
 11  8 12  3 16 30.0000000  0  9G25G30G15G29G26G21G02G12G05
 114432006.296 8  89167820.655 7  21775679.313                    21775688.727
 115911708.267 7  90320875.89545  22057263.625                    22057271.379
 124291626.798 6  96850669.602 6  23651912.563                    23651920.977
 113996687.687 7  88828662.725 7  21692851.336                    21692858.395
 119605712.271 7  93199348.29644  22760209.727                    22760217.559
 131505045.231 6 102471487.15743  25024572.938                    25024581.809
 115951684.202 7  90352003.34445  22064835.516                    22064840.742
 117164631.407 7  91297196.722 7  22295690.242                    22295697.488
 109247548.503 8  85128042.544 7  20789095.695                    20789102.441
 11  8 12  3 17  0.0000000  0  9G25G30G15G29G26G21G02G12G05
 114464540.600 8  89193172.063 7  21781870.414                    21781880.133
 115971021.669 7  90367094.13045  22068550.164                    22068558.273
 124194725.357 6  96775162.111 6  23633473.180                    23633481.234
 113923612.118 8  88771720.738 7  21678945.539                    21678952.234
 119519040.947 7  93131812.25744  22743716.844                    22743724.488
 131447712.191 6 102426812.12443  25013663.148                    25013671.094
 115996143.646 7  90386647.07345  22073296.086                    22073300.816
 117247791.069 7  91361996.471 7  22311515.086                    22311522.535
 109298886.137 8  85168045.899 7  20798865.148                    20798871.684
 11  8 12  3 17 30.0000000  0  9G25G30G15G29G26G21G02G12G05
 114497584.876 8  89218920.842 7  21788158.570                    21788168.074
 116030745.373 7  90413632.07445  22079915.398                    22079923.559
 124097843.705 6  96699670.011 6  23615036.844                    23615045.230
 113850739.796 8  88714937.124 7  21665078.313                    21665085.445
 119432632.211 7  93064480.83344  22727273.398                    22727281.820
 131390383.501 6 102382140.52842  25002753.422                    25002762.348
 116040694.694 7  90421362.18845  22081773.695                    22081779.539
 117331216.023 7  91427002.937 7  22327390.406                    22327397.645
 109350632.228 8  85208367.545 7  20808712.086                    20808718.402
 11  8 12  3 18  0.0000000  0  9G25G30G15G29G26G21G02G12G05
 114531137.400 8  89245065.674 7  21794543.211                    21794553.141
 116090876.643 7  90460487.61445  22091358.391                    22091366.184
 124000984.717 6  96624195.610 6  23596605.727                    23596614.102
 113778073.042 8  88658313.710 7  21651250.484                    21651257.590
 119346489.655 7  92997356.82745  22710881.078                    22710889.383
 131333058.569 6 102337471.81942  24991845.086                    24991852.695
 116085337.736 7  90456148.98545  22090269.047                    22090273.910
 117414903.678 7  91492214.103 7  22343315.438                    22343323.082
 109402784.463 8  85249005.661 7  20818636.000                    20818642.902
 11  8 12  3 18 30.0000000  0  9G25G30G15G29G26G21G02G12G05
 114565196.230 8  89271605.019 7  21801024.414                    21801034.004
 116151412.545 7  90507658.46345  22102877.516                    22102885.383
 123904151.270 7  96548741.097 6  23578178.477                    23578187.070
 113705613.998 8  88601852.153 7  21637461.758                    21637469.207
 119260617.006 7  92930443.14444  22694540.305                    22694548.039
 131275736.922 6 102292805.65142  24980937.258                    24980944.984
 116130072.752 7  90491007.42445  22098782.078                    22098787.180
 117498850.806 7  91557627.478 7  22359290.336                    22359297.383
 109455340.604 8  85289958.509 7  20828637.617                    20828643.879
 11  8 12  3 19  0.0000000  0  9G25G30G15G29G26G21G02G12G05
 114599759.344 8  89298537.314 7  21807601.164                    21807611.078
 116212350.175 7  90555142.34645  22114473.492                    22114481.668
 123807346.198 7  96473308.694 6  23559757.758                    23559765.457
 113633364.947 8  88545554.243 7  21623713.281                    21623719.801
 119175017.863 7  92863742.56544  22678250.859                    22678258.730
 131218417.985 6 102248141.63242  24970029.172                    24970037.508
 116174900.106 7  90525937.83445  22107312.070                    22107317.313
 117583054.256 7  91623240.577 7  22375313.641                    22375320.574
 109508298.277 8  85331224.241 7  20838714.891                    20838721.746
 11  8 12  3 19 30.0000000  0  9G25G30G15G29G26G21G02G12G05
 114634824.875 8  89325861.085 7  21814274.297                    21814284.199
 116273686.496 7  90602936.88645  22126145.539                    22126153.668
 123710572.512 7  96397900.704 6  23541341.805                    23541350.188
 113561328.413 8  88489421.924 7  21610004.914                    21610011.859
 119089696.098 7  92797258.13444  22662014.055                    22662022.156
 131161101.294 6 102203479.30542  24959122.930                    24959130.965
 116219819.775 7  90560940.16145  22115859.438                    22115865.457
 117667511.068 7  91689051.106 7  22391384.898                    22391391.996
 109561655.012 8  85372800.927 8  20848868.336                    20848875.121
 11  8 12  3 20  0.0000000  0  9G25G30G15G29G26G21G02G12G05
 114670390.989 8  89353574.924 7  21821042.281                    21821052.383
 116335418.858 7  90651040.03545  22137892.891                    22137900.902
 123613833.289 7  96322519.590 6  23522932.422                    23522940.938
 113489506.522 8  88433456.859 7  21596337.844                    21596344.531
 119004655.302 7  92730992.63244  22645831.781                    22645839.902
 131103786.207 6 102158818.26742  24948215.688                    24948223.938
 116264832.060 7  90596014.64945  22124426.055                    22124431.277
 117752218.156 7  91755056.645 7  22407504.219                    22407511.383
 109615408.641 8  85414686.880 7  20859097.125                    20859104.180
 11  8 12  3 20 30.0000000  0  9G25G30G15G29G26G21G02G12G05
 114706455.369 8  89381677.027 7  21827905.336                    21827915.180
 116397544.054 7  90699449.30345  22149714.813                    22149722.672
 123517131.333 7  96247167.474 6  23504531.055                    23504539.168
 113417901.119 8  88377660.487 7  21582711.750                    21582718.871
 118919898.993 7  92664948.79544  22629703.336                    22629710.859
 131046472.183 6 102114158.04743  24937308.813                    24937317.598
 116309937.008 7  90631161.32945  22133008.945                    22133014.520
 117837172.099 7  91821254.542 7  22423670.273                    22423677.453
 109669556.572 8  85456880.084 8  20869401.320                    20869408.211
 11  8 12  3 21  0.0000000  0  9G25G30G15G29G26G21G02G12G05
 114743016.274 8  89410166.050 7  21834862.125                    21834872.340
 116460059.239 7  90748162.45245  22161611.023                    22161619.352
 123420469.584 7  96171846.697 6  23486137.078                    23486144.516
 113346514.840 8  88322034.878 7  21569127.047                    21569134.680
 118835430.989 7  92599129.62044  22613629.313                    22613637.332
 130989158.513 6 102069498.07143  24926402.750                    24926410.371
 116355135.282 7  90666380.74045  22141610.156                    22141614.809
 117922370.322 7  91887642.790 7  22439882.820                    22439890.078
 109724096.598 8  85499378.822 8  20879779.852                    20879786.918
 11  8 12  3 21 30.0000000  0  9G25G30G15G29G26G21G02G12G05
 114780071.896 8  89439040.551 7  21841913.672                    21841924.039
 116522961.667 7  90797177.36045  22173580.852                    22173588.789
 123323851.235 7  96096559.735 6  23467751.039                    23467758.746
 113275350.146 8  88266581.908 7  21555585.359                    21555592.422
 118751254.948 7  92533537.94744  22597610.992                    22597619.105
 130931845.161 6 102024838.41043  24915497.422                    24915504.281
 116400426.540 7  90701672.59045  22150228.383                    22150233.504
 118007810.065 7  91954219.245 7  22456141.445                    22456148.781
 109779026.602 8  85542181.426 8  20890232.992                    20890239.555
 11  8 12  3 22  0.0000000  0  9G25G30G15G29G26G21G02G12G05
 114817619.975 8  89468298.795 7  21849059.250                    21849068.828
 116586248.259 7  90846491.61445  22185623.930                    22185631.949
 123227279.206 7  96021308.868 6  23449373.898                    23449381.945
 113204409.167 8  88211303.266 7  21542085.359                    21542092.328
 118667374.633 7  92468176.74144  22581649.094                    22581657.371
 130874531.249 6 101980178.27243  24904589.547                    24904598.410
 116445811.320 7  90737037.33645  22158865.047                    22158870.625
 118093487.571 7  92020980.969 7  22472445.805                    22472452.898
 109834344.128 8  85585286.002 7  20900759.438                    20900766.211
